[[{"header":{"parameterUnit":"m.s-1","parameterCategory":1,"la1":30.6,"la2":28.766,"lo1":-90.7593,"lo2":-88.6598,"dy":0.0162,"dx":0.0183,"nx":116,"ny":114,"refTime":"2024-04-18T12:00:00:Z","depth":0,"parameterNumber":2,"parameterNumberName":"U-component_of_WINDS"},"data":[0.0,0.0,0.0,0.0,0.0,0.0,0.0,0.0,0.0,0.0,0.0,0.0,0.0,0.0,0.0,0.0,0.0,0.0,0.0,0.0,0.0,0.0,0.0,0.0,0.0,0.0,0.0,0.0,0.0,0.0,0.0,0.0,0.0,0.0,0.0,0.0,0.0,0.0,0.0,0.0,0.0,0.0,0.0,0.0,0.0,0.0,0.0,0.0,0.0,0.0,0.0,0.0,0.0,0.0,0.0,0.0,0.0,0.0,0.0,0.0,0.0,0.0,0.0,0.0,0.0,0.0,0.0,0.0,0.0,0.0,0.0,0.0,0.0,0.0,0.0,0.0,0.0,0.0,0.0,0.0,0.0,0.0,0.0,0.0,0.0,0.0,0.0,0.0,0.0,0.0,0.0,0.0,0.0,0.0,0.0,0.0,0.0,0.0,0.0,0.0,0.0,0.0,0.0,0.0,0.0,0.0,0.0,0.0,0.0,0.0,0.0,0.0,0.0,0.0,0.0,0.0,0.0,0.0,0.0,0.0,0.0,0.0,0.0,0.0,0.0,0.0,0.0,0.0,0.0,0.0,0.0,0.0,0.0,0.0,0.0,0.0,0.0,0.0,0.0,0.0,0.0,0.0,0.0,0.0,0.0,0.0,0.0,0.0,0.0,0.0,0.0,0.0,0.0,0.0,0.0,0.0,0.0,0.0,0.0,0.0,0.0,0.0,0.0,0.0,0.0,0.0,0.0,0.0,0.0,0.0,0.0,0.0,0.0,0.0,0.0,0.0,0.0,0.0,0.0,0.0,0.0,0.0,0.0,0.0,0.0,0.0,0.0,0.0,0.0,0.0,0.0,0.0,0.0,0.0,0.0,0.0,0.0,0.0,0.0,0.0,0.0,0.0,0.0,0.0,0.0,0.0,0.0,0.0,0.0,0.0,0.0,0.0,0.0,0.0,0.0,0.0,0.0,0.0,0.0,0.0,0.0,0.0,0.0,0.0,0.0,0.0,0.0,0.0,0.0,0.0,0.0,0.0,0.0,0.0,0.0,0.0,0.0,0.0,0.0,0.0,0.0,0.0,0.0,0.0,0.0,0.0,0.0,0.0,0.0,0.0,0.0,0.0,0.0,0.0,0.0,0.0,0.0,0.0,0.0,0.0,0.0,0.0,0.0,0.0,0.0,0.0,0.0,0.0,0.0,0.0,0.0,0.0,0.0,0.0,0.0,0.0,0.0,0.0,0.0,0.0,0.0,0.0,0.0,0.0,0.0,0.0,0.0,0.0,0.0,0.0,0.0,0.0,0.0,0.0,0.0,0.0,0.0,0.0,0.0,0.0,0.0,0.0,0.0,0.0,0.0,0.0,0.0,0.0,0.0,0.0,0.0,0.0,0.0,0.0,0.0,0.0,0.0,0.0,0.0,0.0,0.0,0.0,0.0,0.0,0.0,0.0,0.0,0.0,0.0,0.0,0.0,0.0,0.0,0.0,0.0,0.0,0.0,0.0,0.0,0.0,0.0,0.0,0.0,0.0,0.0,0.0,0.0,0.0,0.0,0.0,0.0,0.0,0.0,0.0,0.0,0.0,0.0,0.0,0.0,0.0,0.0,0.0,0.0,0.0,0.0,0.0,0.0,0.0,0.0,0.0,0.0,0.0,0.0,0.0,0.0,0.0,0.0,0.0,0.0,0.0,0.0,0.0,0.0,0.0,0.0,0.0,0.0,0.0,0.0,0.0,0.0,0.0,0.0,0.0,0.0,0.0,0.0,0.0,0.0,0.0,0.0,0.0,0.0,0.0,0.0,0.0,0.0,0.0,0.0,0.0,0.0,0.0,0.0,0.0,0.0,0.0,0.0,0.0,0.0,0.0,0.0,0.0,0.0,0.0,0.0,0.0,0.0,0.0,0.0,0.0,0.0,0.0,0.0,0.0,0.0,0.0,0.0,0.0,0.0,0.0,0.0,0.0,0.0,0.0,0.0,0.0,0.0,0.0,0.0,0.0,0.0,0.0,0.0,0.0,0.0,0.0,0.0,0.0,0.0,0.0,0.0,0.0,0.0,0.0,0.0,0.0,0.0,0.0,0.0,0.0,0.0,0.0,0.0,0.0,0.0,0.0,0.0,0.0,0.0,0.0,0.0,0.0,0.0,0.0,0.0,0.0,0.0,0.0,0.0,0.0,0.0,0.0,0.0,0.0,0.0,0.0,0.0,0.0,0.0,0.0,0.0,0.0,0.0,0.0,0.0,0.0,0.0,0.0,0.0,0.0,0.0,0.0,0.0,0.0,0.0,0.0,0.0,0.0,0.0,0.0,0.0,0.0,0.0,0.0,0.0,0.0,0.0,0.0,0.0,0.0,0.0,0.0,0.0,0.0,0.0,0.0,0.0,0.0,0.0,0.0,0.0,0.0,0.0,0.0,0.0,0.0,0.0,0.0,0.0,0.0,0.0,0.0,0.0,0.0,0.0,0.0,0.0,0.0,0.0,0.0,0.0,0.0,0.0,0.0,0.0,0.0,0.0,0.0,0.0,0.0,0.0,0.0,0.0,0.0,0.0,0.0,0.0,0.0,0.0,0.0,0.0,0.0,0.0,0.0,0.0,0.0,0.0,0.0,0.0,0.0,0.0,0.0,0.0,0.0,0.0,0.0,0.0,0.0,0.0,0.0,0.0,0.0,0.0,0.0,0.0,0.0,0.0,0.0,0.0,0.0,0.0,0.0,0.0,0.0,0.0,0.0,0.0,0.0,0.0,0.0,0.0,0.0,0.0,0.0,0.0,0.0,0.0,0.0,0.0,0.0,0.0,0.0,0.0,0.0,0.0,0.0,0.0,0.0,0.0,0.0,0.0,0.0,0.0,0.0,0.0,0.0,0.0,0.0,0.0,0.0,0.0,0.0,0.0,0.0,0.0,0.0,0.0,0.0,0.0,0.0,0.0,0.0,0.0,0.0,0.0,0.0,0.0,0.0,0.0,0.0,0.0,0.0,0.0,0.0,0.0,0.0,0.0,0.0,0.0,0.0,0.0,0.0,0.0,0.0,0.0,0.0,0.0,0.0,0.0,0.0,0.0,0.0,0.0,0.0,0.0,0.0,0.0,0.0,0.0,0.0,0.0,0.0,0.0,0.0,0.0,0.0,0.0,0.0,0.0,0.0,0.0,0.0,0.0,0.0,0.0,0.0,0.0,0.0,0.0,0.0,0.0,0.0,0.0,0.0,0.0,0.0,0.0,0.0,0.0,0.0,0.0,0.0,0.0,0.0,0.0,0.0,0.0,0.0,0.0,0.0,0.0,0.0,0.0,0.0,0.0,0.0,0.0,0.0,0.0,0.0,0.0,0.0,0.0,0.0,0.0,0.0,0.0,0.0,0.0,0.0,0.0,0.0,0.0,0.0,0.0,0.0,0.0,0.0,0.0,0.0,0.0,0.0,0.0,0.0,0.0,0.0,0.0,0.0,0.0,0.0,0.0,0.0,0.0,0.0,0.0,0.0,0.0,0.0,0.0,0.0,0.0,0.0,0.0,0.0,0.0,0.0,0.0,0.0,0.0,0.0,0.0,0.0,0.0,0.0,0.0,0.0,0.0,0.0,0.0,0.0,0.0,0.0,0.0,0.0,0.0,0.0,0.0,0.0,0.0,0.0,0.0,0.0,0.0,0.0,0.0,0.0,0.0,0.0,0.0,0.0,0.0,0.0,0.0,0.0,0.0,0.0,0.0,0.0,0.0,0.0,0.0,0.0,0.0,0.0,0.0,0.0,0.0,0.0,0.0,0.0,0.0,0.0,0.0,0.0,0.0,0.0,0.0,0.0,0.0,0.0,0.0,0.0,0.0,0.0,0.0,0.0,0.0,0.0,0.0,0.0,0.0,0.0,0.0,0.0,0.0,0.0,0.0,0.0,0.0,0.0,0.0,0.0,0.0,0.0,0.0,0.0,0.0,0.0,0.0,0.0,0.0,0.0,0.0,0.0,0.0,0.0,0.0,0.0,0.0,0.0,0.0,0.0,0.0,0.0,0.0,0.0,0.0,0.0,0.0,0.0,0.0,0.0,0.0,0.0,0.0,0.0,0.0,0.0,0.0,0.0,0.0,0.0,0.0,0.0,0.0,0.0,0.0,0.0,0.0,0.0,0.0,0.0,0.0,0.0,0.0,0.0,0.0,0.0,0.0,0.0,0.0,0.0,0.0,0.0,0.0,0.0,0.0,0.0,0.0,0.0,0.0,0.0,0.0,0.0,0.0,0.0,0.0,0.0,0.0,0.0,0.0,0.0,0.0,0.0,0.0,0.0,0.0,0.0,0.0,0.0,0.0,0.0,0.0,0.0,0.0,0.0,0.0,0.0,0.0,0.0,0.0,0.0,0.0,0.0,0.0,0.0,0.0,0.0,0.0,0.0,0.0,0.0,0.0,0.0,0.0,0.0,0.0,0.0,0.0,0.0,0.0,0.0,0.0,0.0,0.0,0.0,0.0,0.0,0.0,0.0,0.0,0.0,0.0,0.0,0.0,0.0,0.0,0.0,0.0,0.0,0.0,0.0,0.0,0.0,0.0,0.0,0.0,0.0,0.0,0.0,0.0,0.0,0.0,0.0,0.0,0.0,0.0,0.0,0.0,0.0,0.0,0.0,0.0,0.0,0.0,0.0,0.0,0.0,0.0,0.0,0.0,0.0,0.0,0.0,0.0,0.0,0.0,0.0,0.0,0.0,0.0,0.0,0.0,0.0,0.0,0.0,0.0,0.0,0.0,0.0,0.0,0.0,0.0,0.0,0.0,0.0,0.0,0.0,0.0,0.0,0.0,0.0,0.0,0.0,0.0,0.0,0.0,0.0,0.0,0.0,0.0,0.0,0.0,0.0,0.0,0.0,0.0,0.0,0.0,0.0,0.0,0.0,0.0,0.0,0.0,0.0,0.0,0.0,0.0,0.0,0.0,0.0,0.0,0.0,0.0,0.0,0.0,0.0,0.0,0.0,0.0,0.0,0.0,0.0,0.0,0.0,0.0,0.0,0.0,0.0,0.0,0.0,0.0,0.0,0.0,0.0,0.0,0.0,0.0,0.0,0.0,0.0,0.0,0.0,0.0,0.0,0.0,0.0,0.0,0.0,0.0,0.0,0.0,0.0,0.0,0.0,0.0,0.0,0.0,0.0,0.0,0.0,0.0,0.0,0.0,0.0,0.0,0.0,0.0,0.0,0.0,0.0,0.0,0.0,0.0,0.0,0.0,0.0,0.0,0.0,0.0,0.0,0.0,0.0,0.0,0.0,0.0,0.0,0.0,0.0,0.0,0.0,0.0,0.0,0.0,0.0,0.0,0.0,0.0,0.0,0.0,0.0,0.0,0.0,0.0,0.0,0.0,0.0,0.0,0.0,0.0,0.0,0.0,0.0,0.0,0.0,0.0,0.0,0.0,0.0,0.0,0.0,0.0,0.0,0.0,0.0,0.0,0.0,0.0,0.0,0.0,0.0,0.0,0.0,0.0,0.0,0.0,0.0,0.0,0.0,0.0,0.0,0.0,0.0,0.0,0.0,0.0,0.0,0.0,0.0,0.0,0.0,0.0,0.0,0.0,0.0,0.0,0.0,0.0,0.0,0.0,0.0,0.0,0.0,0.0,0.0,0.0,0.0,0.0,0.0,0.0,0.0,0.0,0.0,0.0,0.0,0.0,0.0,0.0,0.0,0.0,0.0,0.0,0.0,0.0,0.0,0.0,0.0,0.0,0.0,0.0,0.0,0.0,0.0,0.0,0.0,0.0,0.0,0.0,0.0,0.0,0.0,0.0,0.0,0.0,0.0,0.0,0.0,0.0,0.0,0.0,0.0,0.0,0.0,0.0,0.0,0.0,0.0,0.0,0.0,0.0,0.0,0.0,0.0,0.0,0.0,0.0,0.0,0.0,0.0,0.0,0.0,0.0,0.0,0.0,0.0,0.0,0.0,0.0,0.0,0.0,0.0,0.0,0.0,0.0,0.0,0.0,0.0,0.0,0.0,0.0,0.0,0.0,0.0,0.0,0.0,0.0,0.0,0.0,0.0,0.0,0.0,0.0,0.0,0.0,0.0,0.0,0.0,0.0,0.0,0.0,0.0,0.0,0.0,0.0,0.0,0.0,0.0,0.0,0.0,-3.2394,0.0,0.0,0.0,0.0,0.0,0.0,0.0,0.0,0.0,0.0,0.0,0.0,0.0,0.0,0.0,0.0,0.0,0.0,0.0,0.0,0.0,0.0,0.0,0.0,-2.3932,-2.4085,-2.4457,-2.4829,-2.5033,-2.5033,0.0,0.0,0.0,0.0,0.0,-2.5596,-2.5615,-2.5615,-2.5596,-2.5755,-2.6486,-2.7724,-2.7141,-2.5693,-2.3616,0.0,0.0,0.0,0.0,0.0,0.0,0.0,0.0,0.0,0.0,0.0,0.0,0.0,0.0,0.0,0.0,0.0,0.0,0.0,0.0,0.0,0.0,0.0,0.0,0.0,0.0,0.0,0.0,0.0,0.0,0.0,0.0,0.0,0.0,0.0,0.0,0.0,0.0,0.0,0.0,0.0,0.0,0.0,0.0,0.0,0.0,0.0,0.0,0.0,0.0,0.0,0.0,0.0,0.0,0.0,0.0,0.0,0.0,0.0,0.0,0.0,0.0,0.0,0.0,0.0,0.0,0.0,0.0,0.0,0.0,0.0,-3.2509,0.0,0.0,0.0,0.0,0.0,0.0,0.0,0.0,0.0,0.0,0.0,0.0,0.0,0.0,0.0,0.0,0.0,0.0,0.0,0.0,0.0,-2.3881,-2.4609,-2.4694,-2.4745,-2.4863,-2.5439,-2.5795,-2.5795,-2.6353,0.0,0.0,0.0,-2.6085,-2.6013,-2.5652,-2.5766,-2.6376,-2.7384,-2.8495,-2.9625,-3.0133,-2.8255,-2.4489,-2.515,0.0,0.0,0.0,0.0,0.0,0.0,0.0,0.0,0.0,0.0,0.0,0.0,0.0,0.0,0.0,0.0,0.0,0.0,0.0,0.0,0.0,0.0,0.0,0.0,0.0,0.0,0.0,0.0,0.0,0.0,0.0,0.0,0.0,0.0,0.0,0.0,0.0,0.0,0.0,0.0,0.0,0.0,0.0,0.0,0.0,0.0,0.0,0.0,0.0,0.0,0.0,0.0,0.0,0.0,0.0,0.0,0.0,0.0,0.0,0.0,0.0,0.0,0.0,-3.4523,-3.4651,-3.4651,-3.4651,-3.4284,-3.3702,-3.4619,-3.5408,-3.5862,-3.3311,0.0,0.0,0.0,0.0,0.0,0.0,0.0,0.0,0.0,0.0,0.0,0.0,0.0,0.0,0.0,0.0,0.0,0.0,0.0,-2.4643,-2.5372,-2.5456,-2.571,-2.6336,-2.6488,-2.6539,-2.6539,-2.664,-2.6674,-2.6607,-2.6607,-2.6419,-2.6013,-2.6332,-2.6968,-2.7916,-2.9202,-2.9756,-2.9603,-3.0021,-2.9414,-2.7984,-2.9114,-2.8271,-2.6024,0.0,0.0,0.0,0.0,0.0,0.0,0.0,0.0,0.0,0.0,0.0,0.0,0.0,0.0,0.0,0.0,0.0,0.0,0.0,0.0,0.0,0.0,0.0,0.0,0.0,0.0,0.0,0.0,0.0,0.0,0.0,0.0,0.0,0.0,0.0,0.0,0.0,0.0,0.0,0.0,0.0,-2.8867,-3.1288,0.0,0.0,0.0,0.0,0.0,0.0,0.0,0.0,0.0,0.0,0.0,0.0,0.0,-3.3421,-3.333,-3.5073,-3.5973,-3.5991,-3.7386,-3.8046,-3.8046,-3.8046,-3.801,-3.779,-3.5848,0.0,-3.5206,-3.5514,0.0,0.0,0.0,0.0,0.0,0.0,0.0,0.0,0.0,0.0,0.0,0.0,0.0,0.0,0.0,0.0,0.0,0.0,0.0,0.0,0.0,-2.6979,-2.7638,-2.796,-2.8738,-2.8891,-2.8045,-2.7994,-2.7436,-2.6133,-2.6082,-2.6,-2.5782,-2.568,-2.6872,-2.9439,-3.1175,-3.2312,-3.2984,-3.3151,-3.2782,-3.2006,-3.2521,-3.0649,-2.7072,-2.7065,0.0,0.0,0.0,0.0,0.0,0.0,0.0,0.0,0.0,0.0,0.0,0.0,0.0,0.0,0.0,0.0,0.0,0.0,0.0,0.0,0.0,0.0,0.0,0.0,0.0,0.0,0.0,0.0,0.0,0.0,0.0,0.0,0.0,0.0,0.0,0.0,0.0,0.0,0.0,-2.8789,-3.0263,-3.1722,-3.2179,-3.1996,0.0,0.0,0.0,0.0,0.0,0.0,0.0,0.0,0.0,-3.3128,-3.4486,-3.4963,-3.4472,-3.6597,-3.7661,-3.7661,-3.8358,-3.8707,-3.8707,-3.8707,-3.8707,-3.8652,-3.7554,-3.7077,-3.7004,-3.5977,-3.5862,-3.6156,0.0,0.0,0.0,0.0,-3.1091,-3.1586,0.0,0.0,0.0,0.0,0.0,0.0,0.0,0.0,0.0,0.0,0.0,0.0,-2.7233,-2.8654,-2.9568,-2.9568,-3.0565,-3.0565,-2.9094,-2.8807,-2.7757,-2.5693,-2.5423,-2.5341,-2.5396,-2.5939,-2.7852,-3.117,-3.2885,-3.4369,-3.56,-3.5407,-3.5075,-3.46,-3.46,-3.2353,-2.8555,-2.8238,-2.7125,-2.5485,0.0,0.0,0.0,0.0,0.0,0.0,0.0,0.0,0.0,0.0,0.0,0.0,0.0,0.0,0.0,0.0,0.0,0.0,0.0,0.0,0.0,0.0,0.0,0.0,0.0,0.0,0.0,0.0,0.0,0.0,0.0,0.0,0.0,0.0,0.0,0.0,0.0,-3.0127,-3.1302,-3.2363,-3.3107,-3.3168,0.0,0.0,0.0,0.0,0.0,0.0,-3.4412,-3.4431,-3.4357,-3.416,-3.5954,-3.6597,-3.5958,-3.7774,-3.8707,-3.8707,-3.8707,-3.8707,-3.8707,-3.8707,-3.8707,-3.8707,-3.8707,-3.8707,-3.856,-3.671,-3.6325,-3.6872,-3.645,-3.5532,-3.4357,-3.3733,-3.3899,-3.4321,0.0,0.0,0.0,0.0,0.0,0.0,0.0,0.0,0.0,0.0,0.0,-2.884,-2.8874,-3.0211,-3.1089,-3.1089,-3.1157,-3.0565,-2.9094,-2.8281,-2.7181,-2.566,-2.4931,-2.4641,-2.484,-2.8312,-3.1145,-3.3246,-3.4126,-3.4898,-3.56,-3.4941,-3.4624,-3.46,-3.46,-3.3355,-3.1125,-2.9991,-2.8998,-2.7934,-2.4881,0.0,0.0,0.0,0.0,0.0,0.0,0.0,0.0,0.0,0.0,0.0,0.0,0.0,0.0,0.0,0.0,0.0,0.0,0.0,0.0,0.0,0.0,0.0,0.0,0.0,0.0,0.0,0.0,0.0,0.0,0.0,0.0,0.0,0.0,0.0,0.0,0.0,0.0,-3.3763,-3.5778,0.0,0.0,0.0,0.0,-3.3762,-3.3472,-3.4157,-3.6068,-3.6156,-3.6853,-3.8358,-3.8505,-3.856,-3.8505,-3.8652,-3.8707,-3.8707,-3.8707,-3.8707,-3.8707,-3.8707,-3.8707,-3.8707,-3.8707,-3.8707,-3.8689,-3.8579,-3.8542,-3.8432,-3.689,-3.6248,-3.5881,-3.3518,-3.4156,-3.6046,0.0,0.0,0.0,0.0,0.0,-2.1775,-2.3451,-2.4152,-2.4931,-2.615,-2.7893,-2.8993,-2.8993,-3.1157,-3.2628,-3.2628,-3.3491,-3.3406,-3.1935,-3.0243,-2.8601,-2.708,-2.5389,-2.5206,-2.6703,-3.0412,-3.2681,-3.3406,-3.4639,-3.5362,-3.56,-3.5362,-3.523,-3.523,-3.4783,-3.4176,-3.338,-3.2084,-3.0613,-2.9029,-2.7467,-2.5674,0.0,0.0,0.0,0.0,0.0,0.0,0.0,0.0,0.0,0.0,0.0,0.0,0.0,0.0,0.0,0.0,0.0,0.0,0.0,0.0,0.0,0.0,0.0,0.0,0.0,0.0,0.0,0.0,0.0,0.0,0.0,0.0,0.0,0.0,0.0,0.0,0.0,-3.3867,-3.4768,0.0,-3.5012,-3.5027,-3.5015,-3.4891,-3.5734,-3.6731,-3.7793,-3.7845,-3.812,-3.8689,-3.8707,-3.8707,-3.8707,-3.8707,-3.8707,-3.8707,-3.8707,-3.8707,-3.8707,-3.8707,-3.8707,-3.8707,-3.8707,-3.8707,-3.8707,-3.8707,-3.8707,-3.8652,-3.8065,-3.7845,-3.7734,-3.6853,-3.7092,-3.7808,0.0,0.0,0.0,0.0,0.0,-2.1633,-2.3539,-2.4096,-2.4993,-2.6957,-2.8699,-2.9941,-3.0429,-3.2679,-3.4129,-3.4129,-3.5042,-3.4754,-3.2797,-3.1055,-2.9176,-2.7148,-2.6133,-2.6776,-2.9262,-3.2002,-3.3643,-3.4129,-3.5109,-3.56,-3.56,-3.56,-3.56,-3.5577,-3.4894,-3.46,-3.4503,-3.3172,-3.1966,-3.0842,-2.9475,-2.72,-2.4529,0.0,0.0,0.0,0.0,0.0,0.0,0.0,0.0,0.0,0.0,0.0,0.0,0.0,0.0,0.0,0.0,0.0,0.0,0.0,0.0,0.0,0.0,0.0,0.0,0.0,0.0,0.0,0.0,0.0,0.0,0.0,0.0,0.0,0.0,0.0,-3.1888,-3.3716,-3.4456,-3.499,-3.5506,-3.5543,-3.5759,-3.6274,-3.7144,-3.7825,-3.8168,-3.8334,-3.8433,-3.8433,-3.8611,-3.8836,-3.9093,-3.9093,-3.9239,-3.9515,-3.9515,-3.9515,-3.9515,-3.9515,-3.9221,-3.8726,-3.9001,-3.8799,-3.8322,-3.8597,-3.8707,-3.8707,-3.8707,-3.8707,-3.8707,-3.8707,-3.8707,-3.8707,0.0,0.0,0.0,0.0,0.0,-2.1585,-2.3424,-2.3819,-2.4926,-2.7767,-2.9923,-3.1732,-3.3186,-3.4687,-3.56,-3.56,-3.56,-3.4366,-3.1461,-3.0548,-2.8772,-2.5795,-2.7114,-2.9313,-3.2276,-3.3068,-3.4184,-3.56,-3.56,-3.56,-3.56,-3.56,-3.56,-3.5577,-3.4894,-3.46,-3.4503,-3.3182,-3.3013,-3.3355,-3.0738,-2.8474,-2.6467,0.0,0.0,0.0,0.0,0.0,0.0,0.0,0.0,0.0,0.0,0.0,0.0,0.0,0.0,0.0,0.0,0.0,0.0,0.0,0.0,0.0,0.0,0.0,0.0,0.0,0.0,0.0,0.0,0.0,0.0,0.0,0.0,0.0,-2.7841,-3.1069,-3.3389,-3.3474,-3.52,-3.658,-3.7097,-3.7135,-3.7341,-3.7825,-3.7451,-3.7209,-3.7246,-3.7667,-3.7892,-3.7911,-3.8433,-3.9074,-3.9845,-3.99,-4.0322,-4.1095,-4.1095,-4.1095,-4.1095,-4.1095,-4.0251,-3.8817,-3.9588,-3.9053,-3.7676,-3.845,-3.8781,-3.8781,-3.8726,-3.8707,-3.8707,-3.8707,-3.8707,-3.8689,0.0,0.0,0.0,-2.0862,-2.0715,-2.1224,-2.3374,-2.3819,-2.4545,-2.636,-2.9286,-3.1343,-3.1765,-3.4083,-3.56,-3.56,-3.56,-3.4788,-3.2933,-3.1106,-2.9227,-2.7283,-2.9178,-3.1157,-3.3051,-3.4353,-3.5194,-3.56,-3.56,-3.56,-3.56,-3.56,-3.56,-3.5577,-3.4894,-3.46,-3.4552,-3.3684,-3.3443,-3.3457,-3.1697,-3.0097,-2.8652,0.0,0.0,0.0,0.0,0.0,0.0,0.0,0.0,0.0,0.0,0.0,0.0,0.0,0.0,0.0,0.0,0.0,0.0,0.0,0.0,0.0,0.0,0.0,0.0,0.0,0.0,0.0,0.0,0.0,0.0,0.0,0.0,-3.0838,-3.1041,-3.1955,-3.3186,-3.4788,-3.5484,-3.5876,-3.6032,-3.6054,-3.6232,-3.6766,-3.7039,-3.7609,-3.8528,-3.7964,-3.7878,-3.8462,-3.8627,-3.8817,-3.9038,-4.0194,-4.0875,-4.1095,-4.1095,-4.1095,-4.1095,-4.1095,-4.0857,-4.0453,-4.0655,-4.0524,-4.0139,-4.0359,-4.0435,-4.0306,-3.9166,-3.8707,-3.8707,-3.8707,-3.8707,-3.8542,0.0,0.0,0.0,-2.0632,-2.0483,-2.1004,-2.3121,-2.3535,-2.4407,-2.6621,-2.942,-3.1427,-3.2053,-3.4218,-3.56,-3.56,-3.56,-3.4704,-3.2628,-3.07,-2.9786,-3.0123,-3.141,-3.2814,-3.4281,-3.516,-3.56,-3.56,-3.56,-3.56,-3.56,-3.56,-3.56,-3.5577,-3.4894,-3.4455,-3.4137,-3.3469,-3.2997,-3.2637,-3.1838,-3.0911,-2.9942,-2.928,-2.82,-2.692,-2.6248,-2.6019,-2.5901,-2.5105,0.0,0.0,0.0,0.0,0.0,0.0,0.0,0.0,0.0,0.0,0.0,0.0,0.0,0.0,0.0,0.0,0.0,0.0,0.0,0.0,0.0,0.0,0.0,0.0,-2.9991,-3.2632,-3.3541,-3.3677,-3.4167,-3.5447,-3.56,-3.5694,-3.592,-3.5739,-3.5946,-3.6803,-3.6967,-3.7484,-3.8546,-3.8438,-3.8232,-3.8051,-3.9122,-3.9551,-3.9203,-4.0799,-4.1772,-4.2121,-4.2121,-4.2121,-4.2121,-4.2121,-4.1754,0.0,-4.1462,-4.1222,-4.0616,-4.0948,-4.1095,0.0,0.0,0.0,0.0,0.0,-3.8707,-3.8579,0.0,0.0,0.0,-2.0297,-2.0263,-2.0883,-2.2807,-2.3155,-2.4403,-2.7759,-2.9956,-3.1765,-3.3237,-3.4721,-3.56,-3.56,-3.5447,-3.4163,-3.1376,-2.9822,-3.033,-3.3271,-3.3406,-3.4078,-3.5566,-3.56,-3.56,-3.56,-3.56,-3.56,-3.56,-3.56,-3.56,-3.5577,-3.4894,-3.4235,-3.3572,-3.2895,-3.216,-3.1511,-3.1511,-3.1285,-3.0877,-3.0195,-2.9281,-2.8287,-2.7552,-2.7289,-2.7227,-2.7011,0.0,0.0,0.0,0.0,0.0,0.0,0.0,0.0,0.0,0.0,0.0,0.0,0.0,0.0,0.0,0.0,0.0,0.0,0.0,0.0,0.0,0.0,0.0,0.0,-3.1227,-3.3355,-3.5312,-3.56,-3.56,-3.56,-3.56,-3.5839,-3.6387,-3.6012,-3.623,-3.7439,-3.7205,-3.7329,-3.8068,0.0,0.0,0.0,0.0,-4.0595,-3.993,-4.1542,-4.273,-4.3515,-4.3515,-4.3515,-4.3515,-4.3515,-4.2708,-4.1407,-4.2139,-4.1625,-4.0359,-4.1093,-4.137,-4.1352,-4.1168,-4.0671,-3.9918,-3.9038,-3.8817,-3.8946,0.0,0.0,-1.9927,-2.0246,-2.0035,-2.0546,-2.2772,-2.3155,-2.4403,-2.7759,-2.9956,-3.1765,-3.3237,-3.4721,-3.56,-3.56,-3.4501,-3.3085,-3.1309,-2.9822,-3.033,-3.3271,-3.3406,-3.4078,-3.5566,-3.56,-3.56,-3.56,-3.56,-3.56,-3.56,-3.56,-3.56,-3.5577,-3.4894,-3.4235,-3.3572,-3.2895,-3.216,-3.1511,-3.1511,-3.2121,-3.294,-3.2298,-3.2534,-3.3096,-3.1852,-3.1451,-3.1186,-2.9572,-2.8572,-2.8252,-2.9614,-2.8459,0.0,0.0,0.0,0.0,0.0,0.0,0.0,0.0,0.0,0.0,0.0,0.0,0.0,0.0,0.0,0.0,0.0,0.0,0.0,-3.1582,-3.3525,-3.5092,-3.5532,-3.56,-3.56,-3.56,-3.56,-3.5881,-3.6667,-3.6644,-3.692,-3.7766,-3.8094,-3.8612,-3.9393,-3.8793,-3.8614,-3.8952,-3.9451,-3.9851,-4.0149,-4.1795,-4.2923,-4.3515,0.0,0.0,-4.3515,-4.3515,-4.3331,-4.3039,-4.3185,-4.3075,-4.2817,-4.2965,-4.3039,-4.291,-4.1625,-4.1003,-4.0691,-3.9239,-3.9517,-4.0453,0.0,-1.9708,-1.9764,-1.9965,-2.0,-2.0512,-2.2065,-2.3016,-2.4274,-2.6328,-2.8651,-3.0649,-3.2138,-3.2966,-3.3558,-3.3914,-3.2611,-3.1918,-3.2273,-3.1613,-3.2188,-3.4382,-3.4484,-3.4839,-3.5583,-3.56,-3.56,-3.56,-3.56,-3.56,-3.56,-3.56,-3.56,-3.56,-3.5253,-3.4544,-3.3582,-3.3235,-3.2489,-3.1511,-3.1511,-3.2132,-3.3066,-3.2722,-3.3209,-3.4012,-3.3339,-3.3093,-3.3009,-3.2325,-3.1679,-3.1332,-3.2676,-3.1954,-3.0293,0.0,0.0,0.0,0.0,0.0,0.0,0.0,0.0,0.0,0.0,0.0,0.0,0.0,0.0,-2.8993,-2.8993,0.0,-3.1007,-3.2124,-3.3241,-3.4336,-3.543,-3.596,-3.6062,-3.565,-3.596,-3.6349,-3.6761,-3.7134,-3.7652,-3.8396,-3.8683,-3.9138,-3.9898,-3.9683,-3.9487,-3.9391,-4.0849,-4.153,-4.1249,-4.3287,-4.4437,-4.469,-4.469,-4.469,-4.469,-4.469,-4.469,-4.4672,-4.4287,-4.4103,-4.4066,-4.3663,-4.3515,-4.3423,-4.2598,-4.2066,-4.1535,-4.0359,-4.0398,-4.0985,0.0,0.0,-1.9711,-1.98,-2.0017,-2.0528,-2.1558,-2.278,-2.3967,-2.5161,-2.7345,-2.933,-3.0818,-3.1106,-3.1309,-3.1633,-3.07,-3.092,-3.2848,-3.3254,-3.4044,-3.5532,-3.56,-3.56,-3.56,-3.56,-3.56,-3.56,-3.56,-3.56,-3.56,-3.56,-3.56,-3.56,-3.56,-3.4864,-3.3582,-3.3582,-3.2799,-3.1511,-3.1511,-3.1853,-3.241,-3.2547,-3.3029,-3.3582,-3.3469,-3.3495,-3.3633,-3.3896,-3.3719,-3.3582,-3.4681,-3.4728,-3.3724,-3.0238,-3.0375,0.0,0.0,0.0,0.0,0.0,0.0,0.0,0.0,0.0,-3.0161,-2.9738,-2.9991,-3.0296,-3.0296,-3.0296,-3.0871,-3.2666,-3.2953,-3.3558,-3.5346,-3.6282,-3.6575,-3.5904,-3.6518,-3.7083,-3.7218,-3.7753,-3.8413,-3.9157,-3.9208,-3.9462,-4.0079,-4.0658,-4.0591,-3.9777,-4.2359,-4.343,-4.2668,-4.4711,-4.5792,-4.5902,-4.5902,-4.5902,-4.5902,-4.5902,-4.5902,-4.5865,-4.5096,-4.4748,-4.4693,-4.3926,-4.3524,-4.3397,-4.3505,-4.3065,-4.2314,-4.1776,-4.1572,-4.1572,0.0,0.0,0.0,-2.0176,-1.9965,-2.0389,-2.2264,-2.2427,-2.3308,-2.6135,-2.7333,-2.8517,-3.0074,-3.0818,-3.07,-2.9484,-2.982,-3.048,-3.1376,-3.2679,-3.4044,-3.5532,-3.56,-3.56,-3.56,-3.56,-3.56,-3.56,-3.56,-3.56,-3.56,-3.56,-3.56,-3.56,-3.56,-3.4864,-3.3582,-3.3582,-3.2799,-3.1511,-3.1511,-3.1553,-3.1682,-3.2355,-3.3029,-3.3521,-3.2922,-3.3093,-3.3401,-3.2241,-3.2244,-3.2749,-3.2895,-3.3287,-3.3219,-3.0774,-3.0664,-3.053,-2.6721,-2.4846,-2.4277,-2.5643,-2.7486,-2.8993,0.0,0.0,-3.4298,-3.2344,-3.3491,-3.4856,-3.4856,-3.4856,-3.494,-3.5177,-3.5228,-3.5312,-3.5566,-3.6282,-3.6778,-3.6694,-3.7313,-3.8024,-3.8684,-3.8819,-3.9174,-3.9926,-3.9977,-4.0011,-4.0096,-4.0773,-4.1112,-4.1002,-4.2538,-4.3547,-4.3916,-4.4754,-4.5415,-4.5902,-4.5902,-4.5902,-4.5902,-4.5902,-4.5902,-4.5865,-4.5246,-4.4955,-4.4897,-4.4228,-4.3549,-4.3035,-4.3564,-4.3311,-4.27,-4.3084,-4.3222,-4.3222,0.0,0.0,0.0,-2.0599,-2.0565,-2.0743,-2.1585,-2.2356,-2.3219,-2.4229,-2.526,-2.6623,-2.8551,-2.9024,-2.8805,-2.7757,-2.8349,-2.9465,-3.1089,-3.2577,-3.4044,-3.5532,-3.56,-3.56,-3.56,-3.56,-3.56,-3.56,-3.56,-3.56,-3.56,-3.56,-3.56,-3.56,-3.56,-3.5075,-3.4186,-3.4186,-3.3633,-3.2718,-3.2718,-3.2718,-3.2718,-3.2641,-3.2761,-3.2929,-3.2256,-3.1962,0.0,-3.1636,-3.1495,-3.1645,-3.2803,-3.275,-3.2073,-3.1118,-3.0728,-3.0259,-2.8703,-2.8421,0.0,0.0,-3.1173,-3.2848,-3.2848,-3.4264,-3.5329,-3.4421,-3.4957,-3.56,-3.56,-3.4556,-3.41,0.0,-3.4523,-3.4286,-3.6045,-3.6958,-3.7584,-3.8024,-3.7973,-3.7855,-3.7743,-3.8894,-3.9419,-3.8853,-3.9622,-4.0299,-4.0713,-4.1035,-4.1571,-4.2346,-4.3377,-4.4401,-4.5308,-4.6053,-4.6717,-4.7297,-4.7297,-4.7297,-4.7278,-4.6934,-4.6305,-4.5483,-4.5229,-4.4848,-4.4417,-4.4112,-4.3827,-4.3589,-4.381,-4.374,-4.3432,-4.3152,-4.3232,-4.3463,0.0,0.0,0.0,-2.0682,-2.0813,-2.0894,-2.1134,-2.2058,-2.2697,-2.2587,-2.3531,-2.4881,-2.6674,-2.6877,-2.6759,-2.642,-2.7249,-2.877,-3.1055,-3.2577,-3.4044,-3.5532,-3.56,-3.56,-3.56,-3.56,-3.56,-3.56,-3.56,-3.56,-3.56,-3.56,-3.56,-3.56,-3.56,-3.523,-3.46,-3.46,-3.4112,-3.3339,-3.3547,-3.3375,-3.2997,-3.2722,-3.2137,-3.1413,-3.0958,-3.0577,-3.0282,-3.0022,-3.0109,-3.0457,-3.1307,-3.1333,-3.0929,-3.0499,-2.9828,-2.9219,-2.9437,0.0,0.0,-3.2039,-3.3491,-3.4839,-3.5464,-3.56,-3.56,-3.56,-3.56,-3.56,-3.56,-3.4303,-3.3728,-3.5329,-3.4438,-3.4307,-3.6491,-3.7601,-3.8244,-3.8379,-3.8108,-3.7364,-3.5977,-3.8058,-3.9208,-3.8565,-3.9665,-4.0629,-4.117,-4.1593,-4.2243,-4.3228,-4.4197,-4.5117,-4.5998,-4.6753,-4.7345,-4.7797,-4.7797,-4.7797,-4.7759,-4.7324,-4.6543,-4.5517,-4.5346,-4.4935,-4.4395,-4.4229,-4.4034,-4.3866,-4.4009,-4.398,-4.3692,-4.3063,-4.3062,-4.3249,0.0,0.0,0.0,0.0,-2.0331,-2.0616,-2.146,-2.1291,-2.1371,-2.22,-2.2955,-2.3729,-2.4508,-2.4592,-2.488,-2.5575,-2.6962,-2.877,-3.1055,-3.2577,-3.4044,-3.5532,-3.56,-3.56,-3.56,-3.56,-3.56,-3.56,-3.56,-3.56,-3.56,-3.56,-3.56,-3.56,-3.56,-3.523,-3.46,-3.46,-3.3836,-3.2695,-3.3339,-3.2799,-3.164,-3.2327,-3.0995,-2.8708,-2.8689,-2.9103,-2.9257,-2.6659,-2.7505,-2.9259,-2.718,-2.8232,-2.9934,-2.8532,-2.7536,-2.7057,-2.7781,0.0,-2.774,-3.1396,-3.2344,-3.297,-3.5092,-3.56,-3.56,-3.56,-3.56,-3.56,-3.56,-3.5549,-3.5515,-3.5583,-3.6197,-3.6694,-3.6795,-3.8065,-3.843,-3.7032,-3.7483,-3.6755,0.0,-3.6214,-3.8531,-3.9943,-4.073,-4.1187,-4.1204,-4.2574,-4.3352,-4.3369,-4.4732,-4.5485,-4.5511,-4.6143,-4.6454,-4.6454,-4.6454,-4.6454,-4.6454,-4.6454,-4.6413,-4.6324,-4.5748,-4.5485,-4.5416,-4.4811,-4.4118,-4.3478,-4.4062,-4.385,-4.3217,-4.319,-4.3057,-4.2823,0.0,0.0,0.0,0.0,0.0,-2.0208,-2.1071,-2.1306,-2.1613,-2.2209,-2.2936,0.0,0.0,0.0,0.0,0.0,-2.6049,-2.7317,-2.9602,-3.1106,-3.2611,-3.4083,-3.5076,-3.56,-3.56,-3.56,-3.56,-3.56,-3.56,-3.56,-3.56,-3.56,-3.56,-3.56,-3.56,-3.547,-3.5253,-3.5253,-3.5005,-3.456,-3.4333,-3.3971,-3.3393,-3.1862,-3.0433,-2.8918,0.0,-2.5183,-2.4954,-2.4447,-2.4778,-2.5518,-2.6103,-2.6388,-2.6293,-2.5248,-2.6526,-2.8092,-2.7321,0.0,-3.0719,-3.1989,-3.3389,-3.467,-3.543,-3.56,-3.56,-3.56,-3.4822,-3.4129,-3.4129,-3.3339,-3.3,-3.3981,-3.3947,-3.468,-3.7178,-3.6654,-3.6761,-3.8759,-3.7449,0.0,0.0,0.0,0.0,-3.7912,-3.9952,-4.1644,-4.2625,-4.3122,-4.3656,-4.4181,-4.465,-4.5089,-4.5511,-4.5707,-4.6014,-4.6407,-4.6407,-4.6192,-4.5808,-4.5808,-4.5571,-4.5178,-4.4998,-4.4906,-4.4879,-4.4665,-4.4445,-4.4225,-4.4412,-4.4367,-4.4061,-4.3522,-4.3305,-4.3107,0.0,0.0,0.0,0.0,0.0,0.0,0.0,0.0,0.0,0.0,0.0,0.0,0.0,0.0,0.0,0.0,0.0,-2.6454,-2.8433,-2.9738,-3.1055,-3.256,-3.3525,-3.4032,-3.4032,-3.4535,-3.4805,-3.4805,-3.5346,-3.56,-3.56,-3.56,-3.56,-3.56,-3.56,-3.56,-3.56,-3.56,-3.5316,-3.4837,-3.415,-3.3306,-3.2253,-3.0284,-2.8534,0.0,-2.4225,-2.2583,-2.1684,-2.2089,-2.2586,-2.3218,-2.3928,-2.4043,-2.4131,-2.5109,-2.6725,-2.8248,-2.862,-3.0465,-3.2496,-3.3292,-3.4556,-3.56,-3.56,-3.56,-3.56,-3.56,-3.4839,-3.3926,-3.3152,-3.2222,-3.1901,-3.2848,-3.3034,-3.4201,-3.7449,-3.7094,-3.7218,-3.9097,-3.7601,-3.6975,0.0,0.0,0.0,-3.7625,-3.958,-4.1339,-4.253,-4.2878,-4.3504,-4.4581,-4.4615,-4.4803,-4.5178,-4.5178,-4.5355,-4.5757,-4.5757,-4.5545,-4.5178,-4.5178,-4.468,-4.3819,-4.4361,-4.4293,-4.3836,-4.4378,-4.4615,-4.4615,-4.4615,-4.4615,-4.4547,-4.4012,-4.3826,-4.366,0.0,0.0,0.0,0.0,0.0,0.0,0.0,0.0,0.0,0.0,0.0,0.0,0.0,0.0,0.0,0.0,0.0,0.0,-2.7587,-2.8467,-2.9585,-3.1021,-3.1157,-3.119,-3.119,-3.2577,-3.3288,-3.3288,-3.4687,-3.5363,-3.5363,-3.5363,-3.5363,-3.5363,-3.5363,-3.5363,-3.5341,-3.5341,-3.4568,-3.3299,-3.2629,-3.0799,-2.8422,-2.7696,-2.5424,-2.2688,-2.2628,-2.1355,-1.9708,-1.9708,-2.1064,-2.2541,-2.1124,-2.176,-2.3784,-2.7686,-2.796,-2.774,-3.1193,-3.2293,-3.2987,-3.5076,-3.56,-3.56,-3.56,-3.56,-3.5566,-3.5447,-3.5363,-3.4636,0.0,0.0,-3.1955,-3.2158,-3.3359,-3.5081,-3.7415,-3.8954,-3.9385,0.0,0.0,0.0,0.0,0.0,0.0,-3.9056,0.0,-4.0578,-4.1339,-4.2033,-4.3081,-4.4564,-4.4615,-4.4615,-4.4615,-4.4615,-4.4615,-4.4615,-4.4615,-4.4615,-4.4615,-4.4615,-4.3819,-4.2489,-4.3972,-4.3785,-4.2523,-4.4005,-4.4615,-4.4615,-4.4615,-4.4615,-4.4615,-4.4615,-4.4615,-4.4395,0.0,0.0,0.0,0.0,0.0,0.0,0.0,0.0,0.0,0.0,0.0,0.0,0.0,0.0,0.0,0.0,0.0,0.0,-2.6049,-2.7384,-2.8552,-2.9517,-3.0618,-3.119,-3.119,-3.1562,-3.1765,-3.1765,-3.2138,-3.2324,-3.2324,-3.2324,-3.2324,-3.2324,-3.2324,-3.2105,-3.172,-3.172,-3.104,-2.9903,-2.9143,-2.8159,-2.6933,-2.5263,-2.3812,-2.2568,-2.156,-2.0557,-1.9708,-1.9708,-2.1565,-2.4134,-2.5518,-2.6623,-2.7281,-2.6641,-2.8552,-3.0719,-3.0025,-3.2239,-3.4873,-3.5447,-3.56,-3.56,-3.56,-3.56,-3.5126,-3.3474,-3.2273,-3.0818,0.0,0.0,0.0,-3.0209,-3.0987,0.0,-3.4979,-3.6163,0.0,-3.7043,0.0,-3.8176,-3.887,-3.9969,0.0,0.0,-4.1525,-4.2895,-4.3701,-4.3921,-4.4192,-4.4598,-4.4615,-4.4615,-4.4615,-4.4615,-4.4615,-4.4615,-4.4615,-4.4615,-4.4615,-4.4615,-4.4395,-4.4039,-4.4429,-4.4378,-4.4056,-4.4445,-4.4615,-4.4615,-4.4615,-4.4615,-4.4615,-4.4615,-4.4615,-4.4547,0.0,0.0,0.0,0.0,0.0,0.0,0.0,0.0,0.0,0.0,0.0,0.0,0.0,0.0,0.0,0.0,0.0,0.0,0.0,-2.6015,-2.7046,-2.7486,-2.8602,-2.9228,-2.9228,-2.989,-3.0245,-3.0245,-3.0869,-3.119,-3.119,-3.119,-3.119,-3.119,-3.119,-3.1035,-3.074,-3.0502,-2.9681,0.0,0.0,-2.6007,-2.4689,-2.2983,-2.1934,-2.128,-2.0528,-2.0019,-1.9977,-2.1695,0.0,-2.4692,-2.8387,-2.9184,-2.8856,-2.973,0.0,-3.2242,-3.1968,-3.3711,-3.56,-3.56,-3.56,-3.5346,-3.437,-3.415,-3.3525,-3.1312,-3.0176,0.0,-2.664,0.0,0.0,0.0,0.0,0.0,-3.4083,-3.5436,-3.6282,0.0,-3.7449,0.0,-4.0409,-4.1255,-4.1644,0.0,-4.21,-4.2777,-4.3565,-4.3599,-4.3904,-4.4581,-4.4615,-4.4615,-4.4615,-4.4615,-4.4615,-4.4615,-4.4615,-4.4615,-4.4615,-4.4615,-4.4242,-4.3633,0.0,-4.4225,-4.365,-4.4327,-4.4615,-4.4615,-4.4615,-4.4615,-4.4615,-4.4615,-4.4615,-4.4615,0.0,0.0,0.0,0.0,0.0,0.0,0.0,0.0,0.0,0.0,-2.2229,0.0,0.0,0.0,0.0,0.0,0.0,0.0,0.0,0.0,-2.5406,-2.5592,-2.6201,-2.659,-2.6691,-2.8011,-2.8688,-2.8688,-2.9991,-3.0598,-3.0598,-3.0598,-3.0598,-3.0598,-3.0598,-3.0579,-3.0465,-2.9941,-2.8897,-2.7455,-2.5822,-2.4025,-2.2179,0.0,-2.0213,-1.9708,-1.9708,-1.9708,-2.0325,-2.4364,-2.506,-2.5119,-3.0206,-3.065,-3.0032,-3.3905,-3.3934,-3.3106,-3.4726,-3.538,-3.56,-3.56,-3.56,-3.5092,-3.319,-3.2513,-3.1667,-2.945,0.0,-2.7943,-2.5964,-2.5592,-2.6387,-2.8773,0.0,-3.097,-3.3406,-3.5441,-3.6575,-3.6372,-3.7263,-3.8785,-4.1001,-4.1677,-4.2388,-4.3325,-4.232,-4.1931,-4.2557,-4.2591,-4.3227,-4.4564,-4.4615,-4.4615,-4.4615,-4.4615,-4.4615,-4.4615,-4.4615,-4.4615,-4.4615,-4.4615,-4.3887,-4.2685,-4.4022,0.0,-4.2692,-4.4056,-4.4615,-4.4615,-4.4615,-4.4615,-4.4615,-4.4615,-4.4615,-4.4615,0.0,0.0,0.0,0.0,0.0,0.0,0.0,0.0,0.0,0.0,-2.1921,-2.2296,0.0,0.0,0.0,0.0,0.0,0.0,0.0,0.0,0.0,-2.5542,-2.5711,-2.6082,-2.6691,-2.6962,-2.7097,-2.7097,-2.7351,-2.7469,-2.7469,-2.7469,-2.7469,-2.7469,-2.7469,-2.7277,-2.6882,-2.6327,-2.5054,-2.3366,-2.267,-2.1512,-2.0187,-1.9944,0.0,0.0,-1.9708,-1.9708,-2.0399,-2.4908,-2.6683,-2.7628,-3.1275,-3.3315,-3.4022,-3.2497,-3.3472,-3.4726,-3.3254,-3.4218,-3.56,-3.56,-3.56,-3.5498,-3.5109,-3.3609,0.0,0.0,-2.7486,-2.6065,-2.566,-2.5592,-2.6556,-2.9448,-3.0023,0.0,0.0,0.0,-3.5368,0.0,0.0,0.0,0.0,0.0,0.0,0.0,0.0,-4.4073,-4.4192,-4.4209,-4.4327,-4.4598,-4.4615,-4.4615,-4.4615,-4.4615,-4.4615,-4.4615,-4.4615,-4.4615,-4.4615,-4.4615,-4.4462,-4.4225,-4.4479,0.0,-4.4225,-4.4496,-4.4615,-4.4615,-4.4615,-4.4615,-4.4615,-4.4615,-4.4615,-4.4615,0.0,0.0,0.0,0.0,0.0,0.0,0.0,-2.0587,-2.0674,-2.0591,-2.0876,-2.1265,-2.1684,-2.2073,-2.2296,0.0,0.0,0.0,0.0,0.0,0.0,0.0,-2.5406,-2.5947,-2.6674,-2.6691,0.0,0.0,0.0,-2.6691,-2.6691,-2.6691,-2.6691,-2.6691,-2.6436,-2.6209,-2.5943,-2.5125,-2.4057,-2.2836,-2.2017,-2.1111,-2.0183,0.0,0.0,0.0,0.0,-1.9708,-2.0212,-2.3478,-2.504,-2.657,-3.1926,-3.4544,-3.5099,-3.2562,-3.3609,-3.5109,-3.2903,-3.3914,-3.56,-3.56,-3.56,-3.4991,-3.2696,0.0,0.0,0.0,-2.4644,-2.3868,-2.3868,-2.3868,0.0,-2.8907,-2.9533,0.0,0.0,0.0,0.0,0.0,0.0,0.0,0.0,0.0,0.0,0.0,0.0,-4.3768,-4.4564,-4.4615,-4.4615,-4.4615,-4.4615,-4.4615,-4.4615,-4.4615,-4.4615,-4.4615,-4.4615,-4.4615,-4.4615,-4.4615,-4.4615,-4.4615,-4.4615,0.0,-4.3481,-4.4276,-4.4141,-4.3498,-4.4293,-4.4615,-4.4615,-4.4615,-4.4615,-4.4615,0.0,0.0,0.0,0.0,0.0,0.0,0.0,-1.9968,-1.9871,-1.9778,-1.99,-2.0234,-2.0873,-2.1617,-2.2141,0.0,0.0,0.0,0.0,0.0,0.0,0.0,0.0,0.0,0.0,0.0,0.0,0.0,0.0,0.0,0.0,0.0,0.0,0.0,0.0,-2.5888,-2.5924,-2.4871,-2.3929,0.0,0.0,-2.1216,0.0,0.0,0.0,0.0,0.0,-1.9708,-2.0007,-2.2014,-2.3151,-2.4796,-3.093,-3.3346,-3.3654,-3.232,-3.3295,-3.4514,-3.3318,-3.4286,-3.56,-3.56,-3.56,-3.4568,-3.0618,-2.9348,0.0,-2.3849,-2.2634,-2.2431,-2.2922,-2.3006,-2.4374,0.0,-2.884,-2.9805,0.0,0.0,0.0,0.0,0.0,0.0,0.0,0.0,0.0,0.0,0.0,0.0,-4.4547,-4.4615,-4.4615,-4.4615,-4.4615,-4.4615,-4.4615,-4.4615,-4.4615,-4.4615,-4.4615,-4.4615,-4.4615,-4.4615,-4.4615,-4.4615,-4.4615,0.0,0.0,-4.3972,-4.3701,-4.2439,-4.4005,-4.4615,-4.4615,-4.4615,-4.4615,-4.4615,0.0,0.0,0.0,0.0,0.0,0.0,0.0,-2.0132,-1.9693,-1.9084,-1.9575,-2.0018,-2.0086,-2.0822,-2.1566,0.0,0.0,0.0,0.0,0.0,0.0,0.0,0.0,0.0,0.0,0.0,0.0,0.0,0.0,0.0,0.0,0.0,0.0,0.0,0.0,0.0,0.0,-2.4871,0.0,0.0,0.0,0.0,0.0,0.0,0.0,0.0,0.0,0.0,-2.0007,-2.2014,0.0,-2.4135,-2.6571,-2.7833,-2.8725,-3.0301,0.0,0.0,-3.47,-3.5447,-3.56,-3.56,-3.56,-3.4957,-3.2564,0.0,-2.8299,-2.5812,-2.3699,-2.2905,-2.4932,-2.5288,-2.6336,-2.9499,-2.8264,-2.8231,0.0,0.0,0.0,0.0,0.0,0.0,0.0,0.0,0.0,0.0,0.0,0.0,-4.4598,-4.4615,-4.4615,-4.4615,-4.4615,-4.4615,-4.4615,-4.4615,-4.4615,-4.4615,-4.4615,-4.4615,-4.4615,-4.4615,-4.4615,-4.4615,-4.4615,0.0,0.0,-4.3972,-4.3701,-4.2439,-4.4005,-4.4615,-4.4615,-4.4615,-4.4615,-4.4615,0.0,0.0,0.0,0.0,0.0,0.0,-1.9799,-1.9813,-1.9558,-1.8658,-1.9018,-1.935,-1.935,-2.0027,-2.0961,-2.2195,0.0,0.0,0.0,0.0,0.0,0.0,0.0,0.0,0.0,0.0,0.0,-2.6691,0.0,0.0,0.0,0.0,0.0,0.0,0.0,0.0,0.0,0.0,0.0,0.0,0.0,0.0,0.0,0.0,0.0,0.0,0.0,0.0,0.0,0.0,0.0,0.0,-2.219,-2.2644,0.0,0.0,-2.9523,-3.2004,-3.1708,-3.3575,-3.56,-3.56,-3.56,-3.467,-3.1125,0.0,-2.7977,-2.4374,-2.2905,-2.2567,-2.3446,-2.3615,-2.4426,-2.6979,-2.664,0.0,-3.2919,0.0,0.0,0.0,0.0,0.0,0.0,0.0,0.0,0.0,0.0,0.0,-4.4564,-4.4615,-4.4615,-4.4615,-4.4615,-4.4615,-4.4615,-4.4615,-4.4615,-4.4615,-4.4615,-4.4615,-4.4615,-4.4615,-4.4615,-4.4615,-4.4615,0.0,0.0,-4.3599,-4.3166,-4.1221,-4.3639,-4.4615,-4.4615,-4.4615,-4.4615,-4.4615,0.0,0.0,0.0,0.0,0.0,-2.0346,-1.9528,-1.9688,-1.9579,-1.8748,-1.8985,-1.9232,-1.9232,-1.9896,-2.0792,-2.1887,-2.2161,0.0,0.0,0.0,0.0,0.0,0.0,0.0,0.0,0.0,-2.5964,-2.6691,-2.6068,0.0,0.0,0.0,0.0,0.0,0.0,0.0,0.0,0.0,0.0,0.0,0.0,0.0,0.0,0.0,0.0,0.0,0.0,0.0,0.0,0.0,0.0,-1.9708,-1.9708,-1.9782,-2.052,-2.382,-2.7699,-3.0794,-3.0154,-3.273,-3.56,-3.56,-3.5092,-3.3643,0.0,0.0,-2.6911,-2.3091,-2.2296,-2.2296,-2.2296,-2.2296,-2.3023,-2.5253,-2.5795,-2.7774,-3.3085,-3.4032,0.0,0.0,0.0,0.0,0.0,0.0,0.0,0.0,0.0,0.0,0.0,-4.4615,-4.4615,-4.4615,-4.4615,-4.4615,-4.4615,-4.4615,-4.4615,-4.4615,-4.4615,-4.4361,-4.3955,-4.4395,-4.4361,-4.3955,-4.4412,0.0,0.0,-4.3548,-4.3064,-4.1018,-4.3572,-4.4615,-4.4615,-4.4615,-4.4615,-4.4615,0.0,0.0,0.0,0.0,0.0,0.0,-1.9877,-1.9906,-1.9771,-1.9443,-1.9736,-1.9985,-1.9985,-2.0703,-2.119,-2.1207,-2.187,0.0,0.0,0.0,0.0,0.0,0.0,0.0,0.0,0.0,-2.5964,-2.6691,-2.5691,-2.5221,-2.5182,-2.4116,0.0,0.0,0.0,0.0,0.0,0.0,0.0,0.0,0.0,0.0,0.0,0.0,0.0,0.0,0.0,0.0,0.0,0.0,0.0,0.0,0.0,-1.9965,-2.0822,-2.3522,-2.5937,-2.8425,-3.1449,-3.3897,-3.56,-3.56,-3.3947,-3.1752,0.0,0.0,-2.5,-2.2753,-2.2296,-2.2296,-2.2296,-2.2296,-2.3023,-2.5253,-2.6201,-2.8011,-3.1785,0.0,0.0,0.0,0.0,0.0,0.0,0.0,0.0,0.0,0.0,0.0,0.0,-4.4615,-4.4615,-4.4615,-4.4615,-4.4615,-4.4615,-4.4615,-4.4615,-4.4615,-4.4615,-4.3819,-4.2371,-4.3904,-4.3785,0.0,0.0,0.0,0.0,-4.3972,-4.3684,-4.2422,-4.4005,-4.4615,-4.4615,-4.4615,-4.4615,-4.4615,0.0,0.0,0.0,0.0,0.0,0.0,0.0,-2.0003,-1.9953,-1.9343,-1.9877,-2.0152,-1.9641,-2.0558,-2.1066,-2.0755,-2.1684,0.0,0.0,0.0,0.0,0.0,0.0,0.0,0.0,-2.4728,-2.531,-2.6227,-2.5542,-2.5012,-2.4652,-2.3943,-2.3702,-2.3858,0.0,0.0,0.0,0.0,0.0,0.0,0.0,0.0,0.0,0.0,0.0,0.0,0.0,0.0,0.0,0.0,0.0,0.0,0.0,0.0,0.0,-2.1247,-2.3595,-2.6076,-2.7043,-2.916,-3.1089,-3.1089,-3.0567,-2.945,-2.7182,-2.6116,-2.4967,-2.2753,-2.2296,-2.2296,-2.2296,-2.2296,-2.3023,-2.5253,-2.5812,-2.7791,0.0,0.0,0.0,0.0,0.0,0.0,0.0,0.0,0.0,0.0,0.0,0.0,0.0,-4.4615,-4.4615,-4.4615,-4.4615,-4.4615,-4.4615,-4.4615,-4.4615,-4.4615,-4.4615,-4.3802,-4.2337,-4.3904,0.0,0.0,0.0,0.0,0.0,-4.3972,-4.3701,-4.2439,-4.4005,-4.4615,-4.4615,-4.4615,-4.4615,-4.4615,0.0,0.0,0.0,0.0,0.0,0.0,0.0,-2.0052,-2.0141,-1.9673,-2.0241,-2.0409,-1.9666,-2.0513,-2.0883,-2.0326,-2.1218,0.0,0.0,0.0,0.0,0.0,0.0,0.0,-2.4068,-2.4355,-2.4843,-2.5549,-2.5063,-2.468,-2.4374,-2.3616,-2.337,-2.3595,-2.3595,-2.3595,0.0,0.0,0.0,0.0,0.0,0.0,-1.9708,0.0,0.0,0.0,0.0,0.0,0.0,0.0,0.0,0.0,0.0,0.0,0.0,0.0,-2.1563,-2.35,-2.4676,-2.6723,-2.855,-2.8684,-2.8117,-2.7126,-2.5698,-2.4838,-2.3953,-2.2584,-2.2955,-2.3294,-2.2448,-2.2972,-2.3716,-2.4257,-2.5778,0.0,0.0,0.0,0.0,0.0,0.0,0.0,0.0,0.0,0.0,0.0,0.0,0.0,0.0,-4.4615,-4.4615,-4.4615,-4.4615,-4.4615,-4.4615,-4.4615,-4.4615,-4.4615,-4.4615,-4.3802,-4.2337,-4.3904,0.0,0.0,0.0,0.0,0.0,-4.4209,-4.4039,-4.3278,-4.4225,-4.4615,-4.4615,-4.4615,-4.4615,-4.4615,0.0,0.0,0.0,0.0,0.0,0.0,0.0,-2.0017,-2.0263,-2.0263,-2.0649,-2.0687,-1.9987,-2.0575,-2.0703,-2.0003,-2.0544,0.0,0.0,0.0,0.0,0.0,0.0,0.0,-2.3354,-2.4044,-2.4528,-2.4783,-2.4344,-2.4198,-2.4251,-2.3146,-2.2957,-2.3535,-2.3535,-2.355,-2.355,-2.2912,-2.2283,-2.1635,-2.0932,-2.0258,0.0,0.0,0.0,0.0,0.0,0.0,0.0,0.0,0.0,0.0,0.0,0.0,0.0,0.0,0.0,0.0,0.0,-2.594,-2.7362,-2.7679,-2.625,-2.4762,-2.4762,-2.346,0.0,-2.2499,-2.4173,-2.4984,-2.2972,-2.4375,-2.5119,-2.2955,0.0,0.0,0.0,0.0,0.0,0.0,0.0,0.0,0.0,0.0,0.0,0.0,0.0,0.0,0.0,-4.4615,-4.4615,-4.4615,-4.4615,-4.4615,-4.4615,-4.4615,-4.4547,-4.4445,-4.4564,-4.3752,-4.2185,-4.3853,0.0,0.0,0.0,0.0,0.0,-4.4615,-4.4615,-4.4615,-4.4615,-4.4615,-4.4615,-4.4615,-4.4615,-4.4615,0.0,0.0,0.0,0.0,0.0,0.0,0.0,0.0,0.0,0.0,-2.021,-2.0404,-2.0214,-2.0685,-2.0782,0.0,0.0,0.0,0.0,0.0,0.0,0.0,0.0,0.0,-2.314,-2.3335,-2.3785,-2.4485,-2.3889,-2.3416,-2.309,-2.2299,-2.2283,-2.2912,-2.2912,-2.3182,-2.3535,-2.2398,-2.1844,-2.159,-2.0408,-1.9824,0.0,0.0,0.0,0.0,-1.9708,-1.9708,0.0,0.0,0.0,0.0,0.0,0.0,0.0,0.0,-1.9764,-2.0071,-2.1128,0.0,-2.2982,-2.2767,-2.2557,-2.2402,0.0,-2.2068,-2.235,-2.4398,-2.5253,-2.5609,0.0,-2.7046,-2.7638,0.0,0.0,0.0,0.0,0.0,0.0,0.0,0.0,0.0,0.0,0.0,0.0,0.0,0.0,0.0,0.0,-4.4615,-4.4615,-4.4615,-4.4615,-4.4615,-4.4615,-4.4615,-4.4022,-4.2844,-4.4039,-4.321,-4.0722,-4.3379,0.0,0.0,0.0,0.0,-4.4615,-4.4615,-4.4615,-4.4615,-4.4615,-4.4615,-4.4615,-4.4615,-4.4615,-4.4615,0.0,0.0,0.0,0.0,0.0,0.0,0.0,0.0,0.0,0.0,-1.9892,-2.0019,-2.0019,-2.026,-2.0311,0.0,0.0,0.0,0.0,0.0,0.0,0.0,0.0,-2.1271,-2.2572,-2.2925,-2.3357,-2.39,-2.3553,-2.3294,-2.3107,-2.2463,-2.2508,-2.3122,-2.3122,-2.3281,-2.352,-2.2233,-2.1695,-2.1575,-2.0247,0.0,0.0,0.0,0.0,0.0,-1.9708,-1.9708,0.0,-1.9708,-1.9708,-1.9708,0.0,0.0,0.0,0.0,-1.9708,-1.9747,-1.9965,-2.0381,-2.1018,-2.2224,-2.1908,-2.1644,-2.2881,-2.2524,-2.2622,-2.5087,-2.5592,-2.5711,0.0,0.0,0.0,0.0,0.0,0.0,0.0,0.0,0.0,0.0,0.0,0.0,0.0,0.0,0.0,0.0,0.0,0.0,0.0,-4.4615,-4.4615,-4.4615,-4.4615,-4.4615,-4.4615,-4.4615,-4.3836,-4.2303,-4.387,-4.3379,-4.1196,-4.3532,-4.4141,0.0,0.0,0.0,-4.4564,-4.3853,-4.3972,-4.4615,-4.4615,-4.4615,-4.4615,-4.4615,-4.4615,-4.4615,0.0,0.0,0.0,0.0,0.0,0.0,0.0,0.0,0.0,0.0,0.0,0.0,0.0,0.0,0.0,0.0,0.0,0.0,0.0,0.0,0.0,0.0,-2.021,-2.0755,-2.1933,-2.257,-2.3026,-2.3349,-2.3198,-2.3198,-2.3295,-2.2667,-2.2793,-2.346,-2.355,-2.3595,-2.352,-2.2233,-2.1695,-2.1575,-2.0247,0.0,0.0,0.0,0.0,0.0,0.0,0.0,0.0,-1.9708,-1.9708,-1.9708,-1.9708,0.0,0.0,0.0,0.0,0.0,-1.9708,-1.9708,-2.043,-2.3456,-2.2543,-2.1616,-2.4379,-2.3498,-2.2874,-2.5559,-2.6116,-2.615,0.0,-2.6759,0.0,0.0,0.0,0.0,0.0,0.0,0.0,0.0,0.0,0.0,0.0,0.0,0.0,0.0,0.0,0.0,0.0,-4.4615,-4.4615,-4.4615,-4.4615,-4.4615,-4.4615,-4.4615,-4.3836,-4.2303,-4.387,-4.3802,-4.2337,-4.3904,-4.4615,-4.453,0.0,0.0,-4.4513,-4.321,-4.343,-4.4615,-4.4615,-4.4615,-4.4615,-4.4615,-4.4615,-4.4615,0.0,0.0,0.0,0.0,0.0,0.0,0.0,0.0,0.0,0.0,0.0,0.0,0.0,0.0,0.0,0.0,0.0,0.0,0.0,0.0,0.0,-1.9782,-1.98,-2.0406,-2.1734,-2.1855,-2.245,-2.3552,-2.2475,-2.1974,-2.1979,-2.1321,-2.1665,-2.2868,-2.337,-2.3595,-2.352,-2.2233,-2.1695,-2.1575,-2.0247,0.0,0.0,0.0,0.0,0.0,0.0,0.0,0.0,-1.9708,-1.9708,-1.9708,-1.9708,0.0,0.0,0.0,0.0,0.0,-1.9708,-1.9708,-2.0358,-2.3117,-2.2104,-2.1202,-2.4294,-2.3031,-2.2573,-2.7465,-2.8485,-2.8671,0.0,-3.1948,-3.2608,0.0,0.0,0.0,0.0,0.0,0.0,0.0,0.0,0.0,0.0,0.0,0.0,0.0,0.0,0.0,0.0,-4.4615,-4.4615,-4.4615,-4.4615,-4.4615,-4.4615,-4.4615,-4.3836,-4.2303,-4.387,-4.3802,-4.2337,-4.3904,-4.4615,-4.4598,0.0,-4.4395,-4.4581,-4.4344,-4.4395,-4.4615,-4.4615,-4.4615,-4.4615,-4.4615,-4.4615,-4.4615,0.0,0.0,0.0,0.0,0.0,0.0,0.0,0.0,0.0,0.0,0.0,0.0,0.0,0.0,0.0,0.0,0.0,0.0,0.0,0.0,-1.9854,-2.0228,-2.0243,-2.0707,-2.168,-2.1695,-2.2158,-2.3122,-2.2158,-2.1695,-2.1695,-2.1754,-2.2278,-2.3212,-2.3475,-2.3415,-2.3041,-2.2099,-2.1485,-2.1081,0.0,0.0,0.0,0.0,0.0,0.0,0.0,0.0,0.0,0.0,-1.9708,-1.9708,-1.9708,0.0,0.0,0.0,0.0,0.0,-1.9708,-1.9708,-2.0612,-2.4335,-2.2752,-2.1715,-2.7172,-2.4734,-2.3129,-2.949,-2.8231,0.0,0.0,0.0,-3.0683,0.0,0.0,0.0,0.0,0.0,0.0,0.0,0.0,0.0,0.0,0.0,0.0,0.0,0.0,0.0,0.0,0.0,-4.4384,-4.3902,-4.4355,-4.4615,-4.4615,-4.4615,-4.3836,-4.2303,-4.387,-4.3802,-4.2337,-4.3904,-4.4615,-4.4564,0.0,-4.3836,-4.4519,-4.3176,-4.3139,-4.3844,-4.338,-4.3486,-4.3931,-4.4412,-4.4615,-4.4615,0.0,0.0,0.0,0.0,0.0,0.0,0.0,0.0,0.0,0.0,0.0,0.0,0.0,0.0,0.0,0.0,0.0,0.0,0.0,-1.9708,-1.9989,-2.0658,-2.0838,-2.1171,-2.168,-2.1695,-2.1934,-2.2463,-2.1784,-2.1545,-2.171,-2.2388,-2.2957,-2.3385,-2.3385,-2.3062,-2.2418,-2.1739,-2.1171,-2.0643,0.0,0.0,0.0,0.0,0.0,0.0,0.0,0.0,0.0,0.0,0.0,0.0,0.0,0.0,0.0,-1.9708,-1.9708,-1.9708,-1.9708,-1.9708,-2.0662,-2.4677,-2.2976,-2.2236,-2.9613,-2.6401,-2.3851,-3.0861,-2.84,0.0,0.0,-2.9068,0.0,0.0,0.0,0.0,0.0,0.0,0.0,0.0,0.0,0.0,0.0,0.0,0.0,0.0,0.0,0.0,0.0,0.0,-4.368,-4.3017,-4.3844,-4.4298,-4.4298,-4.4514,-4.4022,-4.2844,-4.4039,-4.3861,-4.2583,-4.3973,-4.4485,-4.4259,-4.3263,-4.3515,-4.4457,-4.261,-4.2431,-4.3229,-4.2552,-4.2707,-4.3366,-4.4064,-4.4412,-4.4615,0.0,0.0,0.0,0.0,0.0,0.0,0.0,0.0,0.0,0.0,0.0,0.0,0.0,0.0,0.0,0.0,0.0,0.0,0.0,-1.9708,-1.9989,-2.0658,-2.1306,-2.165,-2.1695,-2.1695,-2.1724,-2.1769,-2.1111,-2.1096,-2.171,-2.2388,-2.2718,-2.2763,-2.2763,-2.2403,-2.1724,-2.1066,-2.0733,-2.0643,-1.9959,0.0,0.0,0.0,0.0,0.0,0.0,0.0,0.0,0.0,0.0,0.0,0.0,0.0,-1.9708,-1.9708,-1.9708,-1.9708,-1.9708,-1.9708,-2.0235,-2.2419,-2.1633,-2.2236,-2.9613,-2.6798,-2.4448,-3.0962,-3.0869,0.0,0.0,0.0,0.0,0.0,0.0,0.0,0.0,0.0,0.0,0.0,0.0,0.0,0.0,0.0,0.0,0.0,0.0,0.0,0.0,0.0,0.0,-4.2093,-4.2939,-4.3396,-4.3396,-4.4196,-4.4547,-4.4445,-4.4564,-4.4117,-4.3248,-4.4174,-4.4167,-4.3426,-4.4135,-4.4513,-4.4598,-4.4423,-4.3934,-4.3306,-4.3246,-4.3246,-4.3306,-4.3366,-4.3919,-4.4615,0.0,0.0,0.0,0.0,0.0,0.0,0.0,0.0,0.0,0.0,0.0,-1.9708,-1.9708,0.0,0.0,0.0,0.0,0.0,0.0,-2.0094,-2.0617,-2.1291,-2.1949,-2.2328,-2.2328,-2.1904,-2.15,-2.1081,-2.0823,-2.1261,-2.2328,-2.2583,-2.2703,-2.2703,-2.2703,-2.2328,-2.165,-2.0972,-2.0703,-2.0643,-1.9959,-1.9708,0.0,0.0,0.0,0.0,0.0,0.0,0.0,0.0,-1.9708,-1.9708,-1.9708,-1.9708,-1.9708,-1.9708,-1.9708,-1.9708,-1.9708,-1.9708,-2.0471,-2.3699,-2.2382,-2.2164,-2.9259,-2.7136,-2.5724,-3.2892,-3.1306,0.0,0.0,0.0,0.0,0.0,0.0,0.0,0.0,0.0,0.0,0.0,0.0,0.0,0.0,0.0,0.0,0.0,0.0,0.0,0.0,0.0,0.0,-4.1213,-4.2029,-4.2754,-4.3306,-4.3621,-4.4064,-4.4598,-4.4064,-4.3621,-4.3306,-4.3061,-4.28,-4.252,-4.2831,-4.2984,-4.2923,-4.241,-4.1981,-4.1674,-4.1674,-4.1674,-4.1739,-4.2284,-4.2707,-4.2984,0.0,0.0,0.0,0.0,0.0,0.0,0.0,0.0,-1.9708,0.0,0.0,0.0,0.0,-1.9708,0.0,0.0,0.0,0.0,-1.9989,-2.0453,-2.1096,-2.1984,-2.2463,-2.2703,-2.2703,-2.2254,-2.168,-2.1021,-2.1231,-2.1799,-2.2703,-2.2897,-2.2882,-2.2703,-2.2703,-2.2224,-2.135,-2.0882,-2.0569,-2.0348,-1.9869,-1.9708,0.0,0.0,0.0,0.0,0.0,0.0,0.0,0.0,-1.9708,-1.9708,-1.9708,-1.9708,-1.9708,-1.9708,-1.9708,-1.9708,-1.9708,-1.9708,-2.0501,-2.3849,-2.2385,-2.1889,-2.8729,-2.731,-2.6416,-3.2979,-3.2197,-3.0537,-3.134,0.0,0.0,0.0,0.0,0.0,0.0,0.0,0.0,0.0,0.0,0.0,0.0,0.0,0.0,0.0,0.0,0.0,0.0,0.0,0.0,0.0,-4.1147,-4.1869,-4.2489,-4.2754,-4.3199,-4.3768,-4.2909,-4.2614,-4.2878,-4.2252,-4.1869,-4.1593,-4.1869,-4.1997,-4.1965,-4.1379,-4.0946,-4.069,-4.0397,-4.0466,-4.0777,-4.1379,-4.1772,-4.1997,0.0,0.0,0.0,0.0,0.0,0.0,0.0,0.0,-1.9708,-1.9708,-1.9708,0.0,0.0,0.0,0.0,0.0,0.0,0.0,-2.0658,-2.0718,-2.1321,-2.2643,-2.2703,-2.2703,-2.2703,-2.2703,-2.2373,-2.171,-2.2373,-2.2703,-2.2718,-2.331,-2.3266,-2.2703,-2.2703,-2.1964,-2.0703,-2.0718,-2.0333,-1.9708,-1.9708,-1.9708,-1.9708,0.0,0.0,0.0,0.0,0.0,0.0,0.0,-1.9708,-1.9708,-1.9708,-1.9708,-1.9708,-1.9723,-1.9723,-1.9708,-1.9723,-1.9708,-2.0187,-2.2194,-2.1205,-2.1458,-2.8054,-2.7237,-2.6354,-3.0692,-3.3787,-3.5432,-3.4611,0.0,0.0,0.0,0.0,0.0,0.0,0.0,0.0,0.0,0.0,0.0,0.0,0.0,0.0,0.0,0.0,0.0,0.0,0.0,0.0,0.0,-4.0255,-4.069,-4.069,-4.1576,-4.1997,-4.1997,-4.1113,-4.1147,-4.1997,-4.1965,-4.1511,-4.0758,-4.1593,-4.1965,-4.1965,-4.1965,-4.1478,-4.0588,-3.9737,-3.9935,-4.069,-4.069,-4.1247,-4.1965,0.0,0.0,0.0,0.0,0.0,0.0,0.0,0.0,-1.9708,-1.9708,-1.9708,0.0,0.0,0.0,0.0,0.0,0.0,0.0,-2.1365,-2.1844,-2.2283,-2.2688,-2.3122,-2.3325,-2.3325,-2.2927,-2.2598,-2.2403,-2.2134,-2.2463,-2.3325,-2.3092,-2.2868,-2.2748,-2.364,-2.3071,-2.144,-2.1904,-2.144,-2.0363,-1.9902,-1.9708,-1.9708,0.0,0.0,0.0,0.0,0.0,0.0,0.0,0.0,0.0,-1.9708,-1.9708,-1.9977,-2.14,-2.0816,-2.0007,-2.143,-2.0786,-2.0187,-2.2194,0.0,-2.257,-2.5425,-2.6108,-2.729,-3.1333,-3.2503,-3.2853,-3.2941,0.0,0.0,0.0,0.0,0.0,0.0,0.0,0.0,0.0,0.0,0.0,0.0,0.0,0.0,0.0,0.0,0.0,0.0,0.0,0.0,0.0,-3.9631,-4.008,-4.069,-4.0946,-4.1412,-4.1997,-4.1113,-4.0844,-4.1046,-4.0447,-4.0025,-3.9793,-4.006,-4.0165,-4.0165,-4.0165,-4.0025,-3.9773,-3.9517,-3.9538,-3.9809,-3.9809,-3.997,-4.0165,0.0,0.0,0.0,0.0,0.0,0.0,-1.9708,-1.9708,-1.9708,-1.9708,-1.9708,-1.9708,0.0,0.0,0.0,-2.0658,-2.0946,0.0,-2.2059,-2.2478,-2.2808,-2.3062,-2.34,-2.3595,-2.3595,-2.3017,-2.2703,-2.2703,-2.2044,-2.2218,-2.3221,-2.2868,-2.2823,-2.3092,-2.3864,-2.3281,-2.1724,-2.2134,-2.1515,-2.0273,-1.9854,-1.9708,-1.9708,0.0,0.0,0.0,0.0,0.0,0.0,0.0,0.0,0.0,-1.9708,-2.0247,-2.0966,-2.1385,-2.122,-2.116,-2.2373,-2.1819,-2.1565,-2.435,-2.3871,-2.3107,-2.4634,0.0,0.0,0.0,-3.2822,-3.298,-3.3483,0.0,0.0,0.0,0.0,0.0,0.0,0.0,0.0,0.0,0.0,0.0,0.0,0.0,0.0,0.0,0.0,0.0,0.0,0.0,0.0,0.0,-3.8751,-3.8867,-3.936,-3.9394,-3.965,-4.0167,-3.965,-3.9394,-3.939,-3.939,-3.9388,-3.9388,-3.9388,-3.9388,-3.9388,-3.9388,-3.9388,-3.9388,-3.9388,-3.9388,-3.9388,-3.9388,-3.9388,-3.9388,0.0,0.0,-1.9708,-1.9708,0.0,0.0,-1.9708,-1.9708,-1.9708,-1.9708,-1.9753,-1.9798,0.0,0.0,0.0,-2.0868,-2.144,-2.2054,-2.2748,-2.2778,-2.3032,-2.358,-2.3595,-2.3595,-2.3595,-2.2957,-2.2613,-2.2613,-2.1934,-2.1934,-2.2613,-2.2613,-2.2942,-2.352,-2.364,-2.2951,-2.1695,-2.1754,-2.0976,-1.9708,-1.9708,-1.9708,-1.969,-1.9639,0.0,0.0,0.0,0.0,0.0,0.0,0.0,0.0,-1.969,-2.0951,-2.2104,-2.0456,-2.1265,-2.2733,-2.2927,-2.2838,-2.3556,-2.7156,-2.539,0.0,-2.563,-2.6976,-2.8871,-3.2715,0.0,-3.4558,0.0,0.0,0.0,0.0,0.0,0.0,0.0,0.0,0.0,0.0,0.0,0.0,0.0,0.0,0.0,0.0,0.0,0.0,0.0,0.0,0.0,-3.8302,-3.7719,-3.7404,-3.7404,-3.7404,-3.7404,-3.7404,-3.7404,-3.7404,-3.7449,-3.8676,-3.9209,-3.9209,-3.9269,-3.9334,-3.9334,-3.9358,-3.9388,-3.9388,-3.9388,-3.9388,-3.9388,-3.9388,-3.9388,-3.9388,0.0,0.0,-1.9708,-1.9708,0.0,0.0,-1.9708,-1.9708,-1.9708,-1.9708,-2.0154,-2.0479,-2.0479,-2.1081,0.0,-2.2224,-2.2403,-2.2763,-2.3355,-2.34,-2.346,-2.3595,-2.3595,-2.3595,-2.3595,-2.2488,-2.1924,-2.1924,-2.1246,-2.1261,-2.1924,-2.1924,-2.2283,-2.2942,-2.3954,-2.3379,-2.1724,-2.2269,-2.1415,-1.9708,-1.9708,-1.9708,-1.9639,-1.9225,-1.9062,0.0,0.0,0.0,0.0,0.0,0.0,0.0,-1.9566,-2.0007,-2.0576,-2.1714,-2.2358,-2.3032,-2.4552,-2.3849,0.0,-2.3766,-2.3691,-2.4597,-2.9194,-2.9684,-3.0003,-3.2915,-3.2377,0.0,0.0,0.0,0.0,0.0,0.0,0.0,0.0,0.0,0.0,0.0,0.0,0.0,0.0,0.0,0.0,0.0,0.0,0.0,0.0,0.0,0.0,-3.7629,-3.7479,-3.7404,-3.7404,-3.7404,-3.7404,0.0,-3.7404,-3.7404,-3.7419,-3.7704,-3.7838,-3.7868,-3.8392,-3.8616,-3.8661,-3.9185,-3.9388,-3.9388,-3.9388,-3.9388,-3.9388,-3.9388,-3.9388,-3.9388,0.0,0.0,0.0,0.0,0.0,0.0,0.0,0.0,-2.0288,-2.0621,-2.0961,-2.1186,-2.1186,-2.1769,0.0,0.0,-2.2957,-2.3251,-2.358,-2.3334,-2.3179,-2.3179,-2.2863,-2.2832,-2.3167,-2.1889,-2.1231,-2.1231,-2.0557,-2.0557,-2.1231,-2.1545,-2.1874,-2.2269,-2.3251,-2.2772,-2.1246,-2.159,-2.0946,-1.9708,-1.9708,-1.9708,-1.9672,-1.9387,-1.9281,-1.9281,-1.9281,0.0,0.0,0.0,0.0,0.0,0.0,0.0,-2.1145,-2.1235,-2.1939,-2.2927,-2.3924,-2.4148,0.0,-2.527,0.0,-2.7848,-2.9687,-3.0328,-3.0994,-3.2663,0.0,0.0,0.0,0.0,0.0,0.0,0.0,0.0,0.0,0.0,0.0,0.0,0.0,0.0,0.0,0.0,0.0,0.0,0.0,0.0,0.0,-3.7135,-3.6971,-3.6971,-3.6671,-3.6492,-3.6492,-3.6492,-3.6492,-3.6492,-3.6492,-3.6492,-3.6522,-3.7135,-3.7404,-3.7434,-3.7778,-3.7913,-3.7943,-3.8317,-3.8646,-3.8931,-3.8931,-3.9125,-3.9388,-3.9388,-3.9388,-3.9388,0.0,0.0,0.0,0.0,0.0,0.0,0.0,0.0,0.0,-2.1446,-2.1644,-2.1704,-2.1704,-2.2402,-2.2811,0.0,0.0,0.0,-2.3301,-2.2724,-2.24,-2.24,-2.1856,-2.1853,-2.2508,-2.1242,-2.0612,-2.0703,-2.0034,-2.0154,-2.1066,-2.1724,-2.2024,-2.2054,-2.2613,-2.2039,-2.0688,-2.0569,-2.0143,-1.9566,-1.9566,-1.9566,-1.9548,-1.9369,-1.935,-1.9406,-1.9332,-1.9225,-1.9188,-1.9369,0.0,0.0,0.0,0.0,-2.1613,-2.0024,-2.098,-2.2584,-2.2667,-2.4103,-2.6093,-2.8098,-2.9537,0.0,-2.9325,-3.0076,-3.1256,0.0,0.0,0.0,0.0,0.0,0.0,0.0,0.0,0.0,0.0,0.0,0.0,0.0,0.0,0.0,0.0,0.0,0.0,0.0,0.0,0.0,-3.7075,-3.6596,-3.6312,-3.6312,-3.5789,-3.5504,-3.5504,-3.5504,-3.5504,-3.5504,-3.5504,-3.5504,-3.5549,-3.6596,-3.7075,-3.709,-3.7195,-3.724,-3.7255,-3.736,-3.7734,-3.8227,-3.8227,-3.8571,-3.9029,-3.9029,-3.9029,-3.9029,0.0,0.0,0.0,0.0,0.0,0.0,0.0,0.0,0.0,0.0,-2.1347,-2.1708,-2.1708,-2.2773,-2.3281,-2.2736,-2.2764,-2.262,-2.2171,0.0,0.0,-2.1145,-2.1048,-2.1272,-2.1829,-2.0636,-2.0235,-2.0703,-2.0034,-2.0636,-2.2448,-2.3056,-2.3355,-2.3355,-2.343,-2.2443,-2.0658,-2.0079,-1.9513,-1.9006,-1.9006,-1.9006,-1.8912,-1.7967,-1.7907,-1.8263,-1.7787,-1.7333,-1.7076,-1.8007,-1.8007,0.0,0.0,0.0,-1.8762,-1.8946,-2.0422,-2.2096,-2.2563,0.0,-2.6093,0.0,-2.7485,-2.7205,0.0,0.0,-2.9505,0.0,0.0,0.0,0.0,0.0,0.0,0.0,0.0,0.0,0.0,0.0,0.0,0.0,0.0,0.0,0.0,0.0,0.0,0.0,0.0,0.0,-3.5759,-3.5684,-3.5639,-3.5639,-3.5549,-3.5504,-3.5504,-3.5504,-3.5504,-3.5504,-3.5504,-3.5504,-3.5504,-3.5684,-3.5759,-3.5789,-3.6372,-3.6611,-3.6656,-3.718,-3.7464,-3.7539,-3.7539,-3.7599,-3.7674,-3.7674,-3.7674,-3.7674,0.0,0.0,0.0,0.0,0.0,0.0,0.0,0.0,0.0,0.0,0.0,-2.1693,-2.1693,-2.2207,-2.2432,-2.217,-2.1851,-2.1296,-2.0379,-2.0063,-1.9887,-1.9879,-1.953,-1.9761,-2.0665,-1.9518,-1.9136,-1.9683,-1.939,-2.0852,-2.3878,-2.3958,-2.3679,-2.3167,-2.4627,-2.337,-2.0165,-2.072,-2.0313,-1.9332,-1.9024,-1.8893,-1.8855,-1.838,-1.8165,-1.8066,-1.7827,-1.7605,-1.7463,-1.7947,-1.7947,-1.7787,-1.8027,0.0,0.0,0.0,-1.9536,-2.0805,-2.3569,-2.4148,-2.4971,0.0,-2.7878,-2.6623,-3.0599,0.0,0.0,0.0,0.0,0.0,0.0,0.0,0.0,0.0,0.0,0.0,0.0,0.0,0.0,0.0,0.0,0.0,0.0,0.0,0.0,0.0,0.0,-3.5504,-3.5504,-3.5504,-3.5504,-3.5504,-3.5504,-3.5504,-3.5504,-3.5504,-3.5504,-3.5504,-3.5504,-3.5504,-3.5504,-3.5504,-3.5504,-3.5519,-3.5804,-3.5938,-3.5953,-3.6237,-3.6567,-3.6896,-3.6896,-3.7105,-3.7404,-3.7404,-3.7404,-3.7404,0.0,0.0,0.0,0.0,0.0,0.0,0.0,0.0,0.0,0.0,0.0,-2.1472,-2.1472,0.0,0.0,0.0,-2.0767,-1.994,-1.8756,-1.865,-1.8642,-1.8632,-1.8158,-1.8387,-1.9415,-1.842,-1.8243,-1.8893,-1.8746,-2.053,-2.408,-2.4302,-2.3879,-2.3018,-2.4963,-2.3981,-2.0917,-2.1603,-2.1063,-1.9705,-1.9534,-1.9072,-1.8477,-1.8341,-1.8145,-1.7887,-1.7747,-1.7686,-1.7686,-1.7686,-1.7686,-1.7686,0.0,0.0,0.0,0.0,0.0,-1.9534,0.0,0.0,-2.3674,-2.856,-2.7309,-2.5779,0.0,0.0,0.0,0.0,0.0,0.0,0.0,0.0,0.0,0.0,0.0,0.0,0.0,0.0,0.0,0.0,0.0,0.0,0.0,0.0,0.0,0.0,0.0,-3.5504,-3.5504,-3.5504,-3.5504,-3.5504,-3.5504,-3.5504,-3.5504,-3.5504,-3.5504,-3.5504,-3.5504,-3.5504,-3.5504,-3.5504,-3.5504,-3.5504,-3.5504,-3.5504,-3.5504,-3.5504,-3.5789,-3.6237,-3.6237,-3.6522,-3.6926,-3.6926,-3.6926,-3.6926,0.0,0.0,0.0,0.0,0.0,0.0,0.0,0.0,0.0,0.0,0.0,-2.0845,-2.0845,-2.0914,-2.0712,-2.0143,-1.9538,-1.8721,-1.7564,-1.7432,-1.7385,-1.7391,-1.7359,0.0,-1.8187,-1.7619,-1.7847,-1.8893,-1.84,-1.9492,-2.2091,-2.3911,-2.434,-2.3566,-2.3691,-2.3862,-2.3969,-2.2501,-2.1092,-1.9863,-2.0657,-1.9537,-1.7333,-1.6816,-1.6909,-1.7271,-1.6774,-1.6573,-1.6573,-1.6573,0.0,0.0,0.0,-1.6573,-1.6701,0.0,0.0,0.0,0.0,-2.1633,0.0,-2.4607,-2.3991,0.0,0.0,0.0,0.0,0.0,0.0,0.0,0.0,0.0,0.0,0.0,0.0,0.0,0.0,0.0,0.0,0.0,0.0,0.0,0.0,0.0,0.0,0.0,0.0,-3.5504,-3.5504,-3.5504,-3.5504,-3.5504,-3.5504,-3.5504,-3.5504,-3.5504,-3.5504,-3.5504,-3.5504,-3.5504,-3.5504,-3.5504,-3.5504,-3.5504,-3.5504,-3.5504,-3.5504,-3.5504,-3.5534,-3.5549,-3.5549,-3.5579,-3.5609,-3.5609,-3.5609,-3.5609,0.0,0.0,0.0,0.0,0.0,0.0,0.0,0.0,0.0,0.0,0.0,0.0,0.0,-1.988,-1.9592,-1.9363,-1.8518,-1.767,-1.6861,-1.6794,-1.6795,-1.6795,-1.6795,-1.7034,-1.7565,-1.7055,-1.7126,-1.7867,-1.7686,-1.871,-2.0877,-2.1376,-2.2393,-2.3979,-2.6706,-2.569,-2.2027,-2.3421,-2.1947,-1.8889,-2.1032,-2.0037,-1.7389,-1.8267,0.0,0.0,0.0,0.0,0.0,0.0,0.0,0.0,-1.65,-1.65,-1.6616,-1.7126,-1.7686,-1.8547,0.0,0.0,0.0,-2.3477,-2.2256,-2.1114,0.0,0.0,0.0,0.0,0.0,0.0,0.0,0.0,0.0,0.0,0.0,0.0,0.0,0.0,0.0,0.0,0.0,0.0,0.0,0.0,0.0,0.0,0.0,0.0,-3.5459,-3.4681,-3.4607,-3.5474,-3.5504,-3.5504,-3.5504,-3.5504,-3.5504,-3.5504,-3.5504,-3.5504,-3.5504,-3.5504,-3.5504,-3.5504,-3.5504,-3.5504,-3.5504,-3.5504,-3.5504,-3.5504,-3.5504,-3.5504,-3.5504,-3.5504,-3.5504,-3.5504,0.0,0.0,0.0,0.0,0.0,-2.0446,-2.0446,-2.0446,-2.0446,-2.0446,0.0,0.0,0.0,0.0,-1.8368,-1.818,-1.7513,-1.6936,-1.6525,-1.65,-1.65,-1.65,-1.65,-1.668,-1.7013,-1.668,-1.6752,-1.7312,-1.7105,-1.7812,-1.9315,-1.9754,-2.0812,-2.2474,-2.6148,-2.5688,-2.2275,-2.4321,-2.3214,-2.0226,-2.1825,-2.0962,-1.8779,0.0,0.0,0.0,0.0,0.0,0.0,0.0,0.0,0.0,-1.7277,-1.6951,-1.6573,-1.693,-1.7271,-1.784,-1.9187,0.0,0.0,0.0,0.0,-1.9364,0.0,0.0,0.0,0.0,0.0,0.0,0.0,0.0,0.0,0.0,0.0,0.0,0.0,0.0,0.0,0.0,0.0,0.0,0.0,0.0,0.0,0.0,0.0,0.0,-3.5459,-3.4651,-3.4577,-3.5474,-3.5504,-3.5504,-3.5504,-3.5504,-3.5504,-3.5504,-3.5504,-3.5504,-3.5504,-3.5504,-3.5504,-3.5504,-3.5504,-3.5504,-3.5504,-3.5504,-3.5504,-3.5504,-3.5504,-3.5504,-3.5504,-3.5504,-3.5504,-3.5504,0.0,0.0,-1.9786,-1.9798,-1.9798,-1.9798,-1.9798,-1.9798,-1.9798,-1.9798,0.0,0.0,0.0,0.0,0.0,-1.6575,-1.6525,-1.6513,-1.65,-1.65,-1.65,-1.65,-1.65,-1.65,-1.65,-1.65,-1.6752,-1.7271,-1.6752,-1.6774,-1.7331,-1.9279,-1.9753,-1.9045,-2.1576,-2.3576,-2.5011,-2.5117,-2.4637,-2.3732,0.0,-2.2294,-2.1179,0.0,0.0,0.0,-2.0891,-2.0464,0.0,-2.0941,0.0,0.0,0.0,-1.7804,-1.65,-1.65,-1.65,-1.65,0.0,0.0,0.0,0.0,0.0,0.0,-1.8727,0.0,0.0,0.0,0.0,0.0,0.0,0.0,0.0,0.0,0.0,0.0,0.0,0.0,0.0,0.0,0.0,0.0,0.0,0.0,0.0,0.0,0.0,-3.5415,-3.5444,-3.5459,-3.5489,-3.5504,-3.5504,-3.5504,-3.5504,-3.5504,-3.5504,-3.5504,-3.5504,-3.5504,-3.5504,-3.5504,-3.5504,-3.5504,-3.5504,-3.5504,-3.5504,-3.5504,-3.5504,-3.5504,-3.5504,-3.5504,-3.5504,-3.5504,-3.5504,-3.5504,0.0,-1.9221,-1.9334,-1.9736,-1.9798,-1.9798,-1.9798,-1.9798,-1.9798,0.0,0.0,0.0,-1.9246,-1.8493,-1.7752,-1.7187,-1.7137,-1.6974,-1.6525,-1.65,-1.65,-1.65,-1.65,-1.65,-1.65,-1.65,-1.6573,-1.671,-1.6573,-1.6573,-1.6723,-1.7302,-1.7422,-1.7287,-1.919,-2.0297,-2.0871,-2.3293,-2.2109,-1.8994,-2.3615,-2.2442,0.0,0.0,0.0,0.0,0.0,-2.1192,-2.0878,0.0,-2.0288,-1.8594,0.0,0.0,-1.65,-1.65,-1.65,0.0,-1.65,0.0,0.0,0.0,0.0,0.0,-1.7706,-2.0023,0.0,0.0,0.0,0.0,0.0,0.0,0.0,0.0,0.0,0.0,0.0,0.0,0.0,0.0,0.0,0.0,0.0,0.0,0.0,0.0,-3.314,-3.302,-3.3993,-3.4502,-3.4996,-3.5489,-3.5504,-3.5504,-3.5504,-3.5504,-3.5504,-3.5504,-3.5504,-3.5504,-3.5504,-3.5504,-3.5504,-3.5504,-3.5504,-3.5504,-3.5504,-3.5504,-3.5504,-3.5504,-3.5504,-3.5504,-3.5504,-3.5504,-3.5504,-3.5504,-1.8594,-1.8657,-1.8832,-1.9359,-1.9472,-1.9547,-1.9773,-1.9623,-1.9472,0.0,0.0,0.0,-1.838,-1.8444,-1.8229,-1.7473,-1.741,-1.7137,-1.6538,-1.65,-1.65,-1.65,-1.65,-1.65,-1.65,-1.65,-1.65,-1.65,-1.65,-1.65,-1.65,-1.65,-1.65,-1.6538,-1.7528,-1.7955,-1.813,-2.0803,0.0,0.0,-2.313,0.0,0.0,-2.315,-2.2799,0.0,0.0,0.0,-2.2648,-2.3356,-2.1995,0.0,0.0,0.0,0.0,0.0,0.0,0.0,0.0,0.0,0.0,0.0,0.0,0.0,-1.725,-1.9656,-2.1963,0.0,0.0,0.0,0.0,0.0,0.0,0.0,0.0,0.0,0.0,0.0,0.0,0.0,0.0,0.0,0.0,0.0,0.0,-3.3469,-3.2781,-3.2691,-3.3455,-3.3858,-3.4382,-3.5055,-3.507,-3.522,-3.5504,-3.5504,-3.5504,-3.5504,-3.5504,-3.5504,-3.5504,-3.5504,-3.5504,-3.5504,-3.5504,-3.5504,-3.5504,-3.5504,-3.5504,-3.5504,-3.5504,-3.5504,-3.5504,-3.5504,-3.5504,-3.5504,0.0,-1.8116,-1.8304,-1.8895,-1.9008,-1.9171,-1.9723,-1.9409,-1.9096,0.0,-1.8204,-1.7612,-1.7662,-1.8417,-1.8519,-1.7564,-1.7436,-1.7137,-1.6538,-1.65,-1.65,-1.65,-1.65,-1.65,-1.65,-1.65,-1.65,-1.65,-1.65,-1.65,-1.65,-1.65,-1.65,-1.65,-1.65,-1.65,-1.66,-1.8092,0.0,-2.3351,-2.2221,-2.3457,0.0,0.0,-2.4042,-2.3966,-2.5833,-2.5431,-2.4217,-2.5732,-2.4249,0.0,0.0,0.0,0.0,0.0,-1.7666,0.0,0.0,0.0,0.0,0.0,0.0,0.0,-1.7097,-1.976,-2.2309,0.0,0.0,0.0,0.0,0.0,0.0,0.0,0.0,0.0,0.0,0.0,0.0,0.0,0.0,0.0,0.0,-3.2378,-3.2647,-3.323,-3.3275,-3.3305,-3.338,-3.338,-3.3694,-3.4384,-3.4399,-3.4696,-3.5385,-3.5385,-3.5429,-3.5504,-3.5504,-3.5504,-3.5504,-3.5504,-3.5504,-3.5504,-3.5504,-3.5504,-3.5504,-3.5504,-3.5504,-3.5504,-3.5504,-3.5504,-3.5504,-3.5504,-3.5504,-3.5504,-1.7451,-1.7574,-1.7852,-1.8832,-1.9008,-1.9171,-1.9723,-1.971,-1.9648,-1.9648,-1.9095,-1.8832,-1.9284,-1.8756,-1.8279,0.0,-1.7662,-1.7137,-1.6538,-1.65,-1.65,-1.65,-1.65,-1.65,-1.65,-1.65,-1.65,-1.65,-1.65,-1.65,-1.65,-1.65,-1.65,-1.65,-1.65,-1.65,-1.6525,-1.6851,0.0,-2.0174,-2.256,0.0,-2.2711,-2.5116,-2.435,-2.2372,-2.5418,-2.5431,-2.4054,-2.4368,-2.4042,-2.3025,0.0,0.0,0.0,0.0,0.0,0.0,0.0,0.0,0.0,0.0,0.0,0.0,-1.6637,-1.7197,-1.8345,0.0,0.0,0.0,0.0,0.0,0.0,0.0,0.0,0.0,0.0,0.0,0.0,0.0,0.0,0.0,0.0,-3.1705,-3.175,-3.1869,-3.1884,-3.2123,-3.2677,-3.2706,-3.3006,-3.3664,-3.3694,-3.4008,-3.4698,-3.4713,-3.4966,-3.5504,-3.5504,-3.5504,-3.5504,-3.5504,-3.5504,-3.5504,-3.5504,-3.5504,-3.5504,-3.5504,-3.5504,-3.5504,-3.5504,-3.5504,-3.5504,-3.5504,-3.5504,-3.5504,-1.6898,-1.6948,-1.7225,-1.8066,-1.8204,-1.848,-1.9296,-1.9183,-1.9108,-1.9359,-1.9171,-1.8995,-1.9007,-1.8769,-1.8368,0.0,0.0,0.0,0.0,-1.65,-1.65,-1.65,-1.65,-1.65,-1.65,-1.65,-1.65,-1.65,-1.65,-1.65,-1.65,-1.65,-1.635,-1.612,-1.6375,-1.6337,-1.612,0.0,-1.7466,-1.9221,-2.1744,0.0,-2.3012,-2.5544,-2.5456,-2.4211,-2.5896,-2.5959,-2.5129,-2.428,-2.4004,0.0,0.0,-2.0337,-1.8832,0.0,-1.7152,-1.65,0.0,0.0,0.0,-1.65,0.0,0.0,0.0,-1.7152,-1.812,-1.94,0.0,0.0,0.0,0.0,0.0,0.0,0.0,0.0,0.0,0.0,0.0,0.0,0.0,0.0,0.0,-3.1248,-3.1322,-3.0925,-3.1278,-3.1455,-3.1396,-3.1768,-3.2303,-3.2976,-3.3006,-3.332,-3.3978,-3.4339,-3.4683,-3.4996,-3.534,-3.5504,-3.5504,-3.5504,-3.5504,-3.5504,-3.5504,-3.5504,-3.5504,-3.5504,-3.5504,-3.5504,-3.5504,-3.5504,-3.5504,-3.5504,-3.5504,-3.5504,-1.65,-1.65,-1.6697,-1.7297,-1.741,-1.7714,-1.8694,-1.8469,-1.8405,-1.8933,-1.8907,-1.8832,-1.8844,-1.8656,0.0,0.0,0.0,0.0,0.0,0.0,-1.6889,-1.6685,-1.655,-1.65,-1.65,-1.65,-1.65,-1.65,-1.65,-1.65,-1.65,-1.65,-1.6283,-1.5869,-1.6208,-1.6346,-1.6358,0.0,0.0,-1.9622,0.0,-2.2598,-2.3728,-2.5745,-2.6298,-2.6059,-2.6386,-2.6499,-2.6235,-2.4556,0.0,-2.3941,-2.3615,-2.1443,0.0,0.0,0.0,0.0,0.0,0.0,0.0,0.0,0.0,-1.65,0.0,0.0,0.0,-1.8519,0.0,0.0,0.0,0.0,0.0,0.0,0.0,0.0,0.0,0.0,0.0,0.0,0.0,0.0,0.0,-2.9973,-3.0397,-3.0074,-3.0644,-3.0748,-3.0072,-3.0807,-3.153,-3.205,-3.2229,-3.2647,-3.3305,-3.3829,-3.4218,-3.4518,-3.504,-3.5257,-3.5213,-3.5392,-3.5392,-3.5213,-3.5439,-3.5504,-3.5504,-3.5504,-3.5504,-3.5504,-3.5504,-3.5504,-3.5504,-3.5504,-3.5504,-3.5504,-1.65,-1.65,-1.6697,-1.7297,-1.741,-1.7612,-1.8204,-1.8242,-1.8405,-1.8933,-1.8581,-1.902,0.0,0.0,0.0,0.0,0.0,0.0,-1.6563,0.0,0.0,-1.7348,-1.6798,-1.65,-1.65,-1.65,-1.65,-1.65,-1.65,-1.65,-1.65,-1.65,-1.6463,0.0,-1.5982,0.0,0.0,0.0,-1.9246,0.0,-2.3037,-2.2937,0.0,-2.5292,-2.5581,-2.4469,-2.5971,-2.6499,-2.6235,0.0,-2.4004,-2.374,0.0,-2.0514,-1.9008,0.0,0.0,0.0,0.0,0.0,0.0,0.0,-1.65,0.0,0.0,0.0,-1.6776,-1.6776,0.0,0.0,0.0,0.0,0.0,0.0,0.0,0.0,0.0,0.0,0.0,0.0,0.0,0.0,0.0,0.0,-2.7661,-2.9035,-2.9223,-2.9254,-2.916,-2.9981,-3.0463,-3.0565,-3.1235,-3.1929,-3.2617,-3.2706,-3.332,-3.4503,-3.4593,-3.4475,-3.4211,-3.51,-3.5019,-3.4211,-3.51,-3.5504,-3.5504,-3.5504,-3.5504,-3.5504,-3.5504,-3.5504,-3.5504,-3.5504,-3.5504,-3.5504,-1.65,-1.65,-1.6575,-1.6835,-1.6886,-1.7074,-1.7639,-1.853,-1.9208,-1.9421,-1.9849,0.0,0.0,0.0,0.0,0.0,0.0,-2.0838,0.0,0.0,0.0,0.0,-1.8141,0.0,-1.7501,-1.7187,-1.7024,-1.7024,-1.6663,-1.65,-1.65,-1.65,-1.6325,0.0,-1.6484,0.0,-1.9033,0.0,-2.0727,0.0,0.0,0.0,0.0,-2.5468,-2.626,-2.5912,-2.595,-2.659,-2.7017,0.0,-2.4782,0.0,0.0,0.0,0.0,0.0,0.0,0.0,0.0,0.0,0.0,0.0,0.0,0.0,-1.7955,0.0,-1.65,0.0,0.0,0.0,0.0,0.0,0.0,0.0,0.0,0.0,0.0,0.0,0.0,0.0,0.0,0.0,0.0,0.0,0.0,0.0,0.0,-2.7311,-2.681,-2.8532,-2.9535,-2.9535,-2.9858,-3.017,-3.0459,-3.0862,-3.1492,-3.2381,-3.2739,-3.3024,-3.3206,-3.3602,-3.3581,-3.3206,-3.365,-3.4124,-3.4576,-3.4041,-3.4158,-3.4591,-3.4041,-3.4524,-3.5504,-3.5504,-3.5504,-3.5504,-1.65,-1.65,-1.65,-1.65,-1.65,-1.6688,-1.7322,-1.8919,0.0,0.0,0.0,0.0,-2.2887,-2.1782,0.0,0.0,-2.2832,-2.2782,0.0,0.0,-2.1433,0.0,0.0,0.0,0.0,-1.8041,-1.7624,-1.7624,-1.7187,-1.6964,-1.6964,-1.6964,-1.6773,-1.6409,0.0,-1.8166,-1.9547,0.0,-2.2159,-2.3822,-2.4286,-2.4462,-2.4587,-2.582,-2.6788,-2.7406,-2.6578,-2.7067,-2.767,-2.475,-2.541,0.0,-2.4104,0.0,0.0,0.0,0.0,0.0,-1.9346,0.0,0.0,0.0,0.0,0.0,0.0,0.0,0.0,0.0,0.0,0.0,0.0,0.0,0.0,0.0,0.0,0.0,0.0,0.0,0.0,0.0,0.0,0.0,0.0,0.0,0.0,0.0,0.0,0.0,-2.4913,-2.7265,-2.8652,-2.8652,-2.8876,-2.9002,-2.9002,-2.9463,-3.0104,-3.0812,-3.1274,-3.1792,-3.2213,-3.25,-3.2464,-3.2249,-3.25,-3.2996,-3.3567,-3.289,-3.2996,-3.3553,-3.289,-3.3463,-3.4739,-3.4986,-3.51,-3.5133,-1.65,-1.65,-1.65,-1.65,-1.65,-1.6688,-1.7322,0.0,0.0,0.0,0.0,0.0,0.0,0.0,0.0,0.0,0.0,-2.1995,-2.3032,0.0,-2.3271,0.0,0.0,-1.8957,0.0,0.0,0.0,-1.8179,-1.8154,-1.8154,-1.8154,-1.8154,-1.8141,-1.8103,-1.7624,-1.8605,-2.0717,-2.1794,-2.3514,-2.5661,-2.7293,-2.7946,-2.7783,0.0,-2.664,-2.8072,-2.8034,0.0,0.0,-2.6101,-2.5586,0.0,0.0,0.0,0.0,0.0,0.0,0.0,0.0,0.0,0.0,-1.9409,0.0,0.0,0.0,0.0,-1.7222,0.0,0.0,0.0,0.0,0.0,0.0,0.0,0.0,0.0,0.0,0.0,0.0,0.0,0.0,0.0,0.0,0.0,0.0,0.0,0.0,0.0,-2.4023,-2.6395,-2.7736,-2.7736,-2.8556,-2.9002,-2.9002,-2.9016,-2.9624,-3.0798,-3.0825,-3.0963,-3.1278,-3.2177,-3.2105,-3.1278,-3.2213,-3.2629,-3.2629,-3.2593,-3.2629,-3.2629,-3.2593,-3.2629,-3.282,-3.3705,-3.4061,-3.4177,-1.73,-1.7388,-1.7513,-1.7149,0.0,0.0,0.0,-1.9397,0.0,0.0,0.0,0.0,0.0,-2.5485,-2.4707,0.0,0.0,-2.6515,-2.541,-2.5674,0.0,0.0,0.0,-2.2322,0.0,0.0,0.0,0.0,0.0,-1.8204,-1.8204,-1.8204,-1.8204,-1.8216,0.0,-1.9497,0.0,0.0,0.0,0.0,0.0,-2.7557,-2.7582,0.0,0.0,-2.8662,-2.9076,-2.9227,0.0,-2.7281,-2.7457,-2.8109,-2.6675,-2.5682,-2.5343,-2.6615,-2.4895,0.0,0.0,0.0,-2.3477,-2.2548,0.0,0.0,0.0,0.0,0.0,0.0,0.0,0.0,0.0,0.0,0.0,0.0,0.0,0.0,0.0,0.0,0.0,0.0,0.0,0.0,0.0,0.0,0.0,0.0,0.0,0.0,0.0,-2.3585,-2.5243,-2.5243,-2.6614,-2.7351,-2.7351,-2.7351,-2.7741,-2.8495,-2.8837,-2.9241,-2.9717,-3.0414,-3.0558,-3.0279,-3.0608,-3.1095,-3.1646,-3.102,-3.1119,-3.1609,-3.0983,-3.1119,-3.1779,-3.2749,-3.3066,-3.3206,-1.8003,-1.7953,-1.8091,0.0,0.0,0.0,0.0,0.0,0.0,0.0,-2.4418,0.0,-2.7833,0.0,-2.6967,0.0,-2.7469,-2.7708,-2.7693,-2.6126,0.0,-2.8084,-2.5259,0.0,0.0,0.0,0.0,0.0,0.0,-1.9284,-1.966,-1.9058,-1.8781,-1.8781,0.0,-1.9873,-2.1066,0.0,-2.5435,0.0,0.0,-2.7645,0.0,0.0,-2.8712,-2.9289,0.0,-2.9792,-2.9628,-2.8536,-2.89,-2.9541,-2.8133,-2.7542,-2.7482,-2.8185,-2.6706,-2.5026,-2.5753,-2.5954,0.0,-2.4582,-2.3477,0.0,-2.1669,0.0,0.0,0.0,0.0,0.0,0.0,0.0,0.0,0.0,0.0,0.0,0.0,-1.65,0.0,0.0,0.0,0.0,0.0,0.0,0.0,0.0,0.0,0.0,0.0,0.0,-2.4004,-2.4004,-2.5632,-2.6499,-2.6499,-2.6499,-2.6776,-2.7329,-2.7846,-2.8398,-2.8913,-2.9528,-2.9792,-2.9792,-2.9792,-3.0139,-3.0658,-3.0037,-3.0139,-3.062,-3.0037,-3.0177,-3.0809,-3.1756,-3.2321,-3.2629,-1.8568,-1.8267,0.0,0.0,-1.9196,0.0,0.0,0.0,-2.359,0.0,-2.5887,-2.5703,-2.7833,-2.6276,-2.5837,-2.7733,-2.5611,0.0,-2.9277,-2.4657,0.0,0.0,-2.472,-2.359,-2.7205,0.0,0.0,0.0,0.0,0.0,-2.2243,-2.0589,-1.9798,-1.9798,-1.9798,0.0,-2.0024,-2.3389,-2.4838,-2.5039,-2.6565,-2.8172,-2.949,-2.7896,-2.8323,-2.9792,-2.9792,-2.9792,-2.9792,-2.9792,-2.9792,-2.9792,-2.9792,-2.9415,-2.8938,-2.8938,-2.8562,-2.8185,-2.816,-2.8147,-2.7632,-2.5511,0.0,0.0,0.0,0.0,-2.2159,0.0,0.0,0.0,0.0,0.0,0.0,0.0,0.0,0.0,0.0,0.0,0.0,0.0,0.0,0.0,0.0,0.0,0.0,0.0,0.0,0.0,0.0,0.0,-2.3828,-2.3991,-2.5493,-2.6361,-2.6499,-2.6436,-2.67,-2.7291,-2.7821,-2.8386,-2.8863,-2.9515,-2.9792,-2.9792,-2.9792,-2.9792,-2.9792,-2.9792,-2.9792,-2.9792,-2.9792,-2.9792,-2.9895,-3.0796,-3.1706,-3.2393,-1.9121,-1.9133,-1.9397,0.0,-2.0652,-2.2046,0.0,0.0,0.0,0.0,-2.6389,-2.6866,-2.7431,-2.8109,-2.7582,-2.5259,-2.59,0.0,0.0,0.0,0.0,-2.9679,-2.8423,-2.7544,-2.7329,-2.6578,0.0,-2.4788,0.0,0.0,-2.2243,-2.0589,-1.9798,-1.9798,0.0,0.0,-2.0024,-2.3389,-2.5523,-2.6578,-2.5774,-2.6452,0.0,0.0,-2.8323,-2.9792,-2.9792,-2.9792,-2.9792,-2.9792,-2.9792,-2.9792,-2.9792,-2.9691,-2.9566,-2.9566,-2.9465,-2.9264,-2.8837,-2.8675,-2.8449,-2.7507,-2.6038,-2.4637,0.0,0.0,0.0,0.0,0.0,0.0,0.0,0.0,0.0,0.0,0.0,0.0,0.0,0.0,0.0,-1.65,0.0,0.0,0.0,0.0,0.0,0.0,0.0,0.0,0.0,0.0,0.0,-2.3916,-2.3602,-2.4368,-2.6474,-2.5649,-2.5724,-2.6713,-2.7645,-2.8185,-2.8348,-2.934,-2.9792,-2.9792,-2.9792,-2.9792,-2.9792,-2.9792,-2.9792,-2.9792,-2.9792,-2.9792,-2.983,-3.0075,-3.0771,-3.1536,-1.9672,-1.9811,0.0,-2.0489,0.0,0.0,-2.4293,0.0,0.0,-2.7193,-2.7165,0.0,-2.8273,-2.9227,-2.9013,-2.7067,-2.6678,0.0,-2.6879,0.0,0.0,-2.9654,-2.8863,-2.8045,-2.7341,-2.7519,0.0,-2.59,0.0,0.0,-2.2856,-2.0779,-1.9643,0.0,0.0,-1.9798,-2.0024,-2.3389,-2.5774,-2.7241,-2.6276,0.0,0.0,-2.7833,-2.8687,-3.0181,-3.0419,-3.0193,-2.9792,-2.9792,-2.9792,-2.9792,-2.9792,-2.9792,-2.9792,-2.9792,-2.9792,-2.9729,-2.9402,-2.9302,-2.9176,-2.8599,-2.7496,-2.6518,-2.6314,-2.5335,-2.4298,0.0,0.0,0.0,0.0,0.0,0.0,0.0,0.0,0.0,0.0,0.0,0.0,0.0,0.0,0.0,0.0,0.0,0.0,0.0,0.0,0.0,0.0,0.0,0.0,-2.2121,-2.2975,-2.3916,-2.4996,-2.4393,-2.4644,-2.5762,-2.6854,-2.7645,-2.8147,-2.9277,-2.9792,-2.9792,-2.9792,-2.9792,-2.9792,-2.9792,-2.9792,-2.9792,-2.9792,-2.9792,-2.9792,-2.9792,-3.0139,-3.0595,-2.025,0.0,0.0,0.0,0.0,0.0,0.0,-2.5289,0.0,-2.9114,0.0,-2.7693,-2.9377,-2.9829,-3.0105,-3.0369,0.0,-2.7281,-3.0206,-2.5862,-2.5222,-2.9804,-2.8108,-2.7266,-2.7708,-2.8122,0.0,0.0,0.0,0.0,0.0,-2.1008,0.0,0.0,0.0,0.0,0.0,-2.3321,-2.5573,-2.7329,-2.7369,-2.8273,-2.9503,-2.88,-2.9453,-3.0783,-3.1223,-3.0796,-3.0005,-3.0005,-3.0005,-2.9993,-2.993,-2.9892,-2.988,-2.9817,-2.9792,-2.9753,-2.9624,-2.9573,-2.9422,-2.8758,-2.8547,-2.8361,-2.8089,-2.7468,-2.6758,-2.5948,-2.603,-2.5483,0.0,0.0,0.0,0.0,0.0,0.0,0.0,0.0,0.0,0.0,0.0,0.0,0.0,0.0,0.0,0.0,0.0,0.0,0.0,0.0,0.0,-2.015,-2.2749,-2.3873,-2.3333,0.0,-2.3747,-2.5046,-2.6034,-2.7065,-2.8147,-2.9277,-2.9792,-2.9792,-2.9792,-2.9792,-2.9792,-2.9792,-2.9792,-2.9792,-2.9792,-2.9792,-2.9792,-2.9792,-2.9792,-2.9792,0.0,0.0,0.0,0.0,0.0,-2.3791,-2.644,-2.8034,-2.8637,-2.7821,-2.8988,-2.9503,-2.8511,-3.003,-3.0595,-2.9302,-2.865,0.0,0.0,0.0,0.0,-3.1009,-3.0319,-2.993,-3.003,-2.9679,-2.8992,0.0,0.0,0.0,0.0,0.0,0.0,0.0,0.0,0.0,-2.386,-2.3088,0.0,-2.7318,-2.777,-2.8147,-2.8574,-3.0193,-3.0997,-3.1273,-3.1361,-3.1273,-3.111,-3.111,-3.111,-3.1035,-3.0608,-3.047,-3.0382,-2.993,-2.9792,-2.9573,-2.8636,-2.8386,-2.8164,-2.7186,-2.656,-2.6414,-2.7243,-2.6305,-2.5348,-2.5714,-2.5156,-2.4337,-2.3474,0.0,0.0,0.0,0.0,0.0,0.0,0.0,0.0,0.0,0.0,0.0,0.0,0.0,0.0,0.0,0.0,0.0,0.0,0.0,0.0,0.0,-2.1104,0.0,0.0,0.0,-2.4155,-2.621,-2.6399,-2.7065,-2.8147,-2.9277,-2.9792,-2.9792,-2.9792,-2.9792,-2.9792,-2.9792,-2.9792,-2.9792,-2.9792,-2.9792,-2.9792,-2.9792,-2.9792,-2.9792,0.0,0.0,0.0,0.0,0.0,0.0,0.0,-2.8398,0.0,-2.9114,-2.9955,-3.0407,-2.9867,-3.0758,-3.1185,-3.067,-2.9867,-2.9741,-3.0583,-2.9842,-2.998,-3.1336,-3.1148,0.0,-2.9754,-2.9455,-2.8937,-2.8093,0.0,0.0,0.0,0.0,0.0,0.0,0.0,-2.0901,0.0,0.0,0.0,-2.6907,-2.8319,-2.8867,-2.9093,-3.1094,-3.1813,-3.1768,-3.1429,-3.1315,-3.1314,-3.1369,-3.1386,-3.1348,-3.1097,-3.1022,-3.0909,-3.0382,-3.0218,-3.0025,-2.9231,-2.8557,-2.7964,-2.7441,-2.6689,-2.6195,-2.676,-2.6041,-2.5177,-2.501,-2.4574,-2.3698,-2.2051,-2.035,0.0,0.0,0.0,0.0,0.0,0.0,0.0,0.0,0.0,0.0,0.0,0.0,0.0,0.0,0.0,0.0,0.0,0.0,0.0,0.0,0.0,0.0,0.0,0.0,0.0,-2.6047,-2.6348,-2.7216,-2.8561,-2.9415,-2.9792,-2.9792,-2.9792,-2.9792,-2.9792,-2.9792,-2.9792,-2.9792,-2.9792,-2.9792,-2.9792,-2.9792,-2.9792,-2.9792,0.0,-2.3552,0.0,0.0,-2.4236,0.0,-2.6176,-2.8411,-3.0256,-3.0721,-3.0884,-3.111,-3.1524,-3.1675,-3.1788,-3.1863,-3.1022,-3.0733,-3.1298,-3.0809,-3.0708,-3.1198,-3.1449,-3.0826,-2.9241,-2.9096,-2.8602,0.0,0.0,0.0,0.0,0.0,0.0,0.0,0.0,0.0,0.0,0.0,-2.5475,-2.6772,-2.8607,-2.9394,-2.9538,-3.1028,-3.1589,-3.1553,-3.1024,-3.081,-3.0826,-3.0925,-3.1173,-3.1369,-3.1517,-3.1562,-3.1461,-3.0934,-3.0783,-3.0538,-2.9529,-2.8619,-2.7783,-2.7168,-2.6408,-2.585,-2.6099,-2.5585,-2.491,-2.4343,-2.3859,-2.2897,-2.0745,-2.001,0.0,0.0,0.0,0.0,0.0,0.0,0.0,0.0,0.0,0.0,0.0,0.0,0.0,0.0,0.0,-1.6508,-1.7014,-1.7942,0.0,0.0,0.0,-2.213,-2.292,0.0,-2.4048,-2.5963,-2.6336,-2.7318,-2.8913,-2.9528,-2.9792,-2.9792,-2.9792,-2.9792,-2.9792,-2.9792,-2.9792,-2.9792,-2.9792,-2.9792,-2.9792,-2.9792,-2.9792,-2.9792,0.0,0.0,0.0,0.0,0.0,0.0,-3.0319,-2.939,-2.9051,-3.106,-3.175,-3.2077,-3.2127,-3.2604,-3.234,-3.0896,-3.1989,-3.1549,-2.8674,-3.1173,-3.2152,-3.0758,-3.1625,-3.1536,-3.0281,-2.9784,-2.8482,0.0,0.0,0.0,0.0,0.0,0.0,0.0,0.0,0.0,0.0,-2.4944,-2.6149,-2.765,-2.8387,-2.8689,-2.8746,-2.9421,-2.9647,-2.9659,-2.9567,-2.959,-2.9579,-2.9568,-3.03,-3.1304,-3.194,-3.2139,-3.2026,-3.1474,-3.1323,-3.0766,-2.8205,-2.7481,-2.6768,-2.4194,-2.3474,-2.3681,-2.4702,-2.4137,-2.3501,-2.4085,-2.2767,-2.1411,-2.1135,-1.9809,-1.8282,0.0,0.0,0.0,0.0,0.0,0.0,0.0,0.0,0.0,0.0,0.0,0.0,0.0,0.0,-1.6574,-1.8657,-1.7478,-1.7689,-1.9736,0.0,-2.0803,-2.2343,-2.2857,-2.4449,-2.7118,-2.6713,-2.7318,-2.8913,-2.9528,-2.9792,-2.9792,-2.9792,-2.9792,-2.9792,-2.9792,-2.9792,-2.9792,-2.9792,-2.9792,-2.9792,-2.9792,-2.9792,-2.9792,0.0,0.0,0.0,0.0,0.0,0.0,0.0,-2.8578,-2.8825,-3.0047,-3.1351,-3.234,-3.2692,-3.2943,-3.2817,-3.2152,-3.3006,-3.2867,-3.1198,-3.2654,-3.2804,-3.1053,-3.1362,-3.1045,-2.9825,-2.8578,-2.7843,0.0,0.0,0.0,0.0,0.0,0.0,0.0,0.0,-2.3088,-2.4395,-2.4935,-2.592,-2.7168,-2.7742,-2.7993,-2.8096,-2.9065,-2.9407,-2.9315,-2.8588,-2.8319,-2.8319,-2.8319,-2.9131,-3.0191,-3.043,-3.1001,-3.1342,-3.0099,-3.0214,-3.032,-2.8148,-2.7074,-2.6245,-2.4831,-2.3993,-2.359,-2.3731,-2.343,-2.3173,-2.3493,-2.2698,-2.1804,-2.1288,-2.0625,-1.965,0.0,0.0,0.0,0.0,0.0,0.0,0.0,0.0,0.0,0.0,0.0,0.0,0.0,0.0,0.0,-1.6374,-1.6848,-1.7798,-1.9315,0.0,-2.1559,-2.3899,-2.4069,-2.5339,-2.777,-2.7557,-2.8147,-2.9453,-2.9691,-2.9792,-2.9792,-2.9792,-2.9792,-2.9792,-2.9792,-2.9792,-2.9792,-2.9792,-2.9792,-2.9792,-2.9792,-2.9993,-3.0281,-2.9124,0.0,-2.7766,0.0,-2.7486,-2.7662,-2.7249,-2.8145,-2.8869,-2.9015,-3.0479,-3.1857,-3.2723,-3.2816,-3.2636,-3.2302,-3.3024,-3.2818,-3.1028,-3.2224,-3.216,-3.04,-3.0644,0.0,-2.9064,-2.7782,-2.7317,-2.7767,-2.4253,0.0,0.0,0.0,0.0,0.0,-2.2627,-2.3723,-2.4479,-2.505,-2.572,-2.6427,-2.6849,-2.703,-2.7125,-2.7992,-2.8308,-2.8215,-2.7352,-2.703,-2.703,-2.703,-2.7626,-2.8448,-2.9177,-3.0,-3.0427,-2.9218,-2.9418,-2.9713,-2.7966,-2.6922,-2.6163,-2.5293,-2.4441,-2.3711,-2.3398,-2.3188,-2.3091,-2.3091,-2.276,-2.2295,-2.1522,-2.1278,-2.0625,-1.888,0.0,0.0,0.0,0.0,0.0,0.0,-1.7019,-1.6775,-1.7925,0.0,0.0,0.0,0.0,0.0,-1.5443,-1.6215,0.0,0.0,0.0,0.0,0.0,-2.3667,-2.5049,-2.7668,-2.7792,-2.8524,-2.9792,-2.9792,-2.9792,-2.9792,-2.9792,-2.9792,-2.9792,-2.9792,-2.9792,-2.9792,-2.9792,-2.9792,-2.9817,-2.998,-3.0281,-3.0633,-2.7853,-2.8634,-2.9183,-2.8656,-2.9026,-2.8959,-2.7688,-2.8565,-2.9094,-2.8227,-2.9205,-3.058,-3.1974,-3.211,-3.1603,-3.0336,-3.1786,-3.0717,-2.61,-2.8908,-2.9978,0.0,0.0,-2.9463,-2.825,-2.7809,-2.6982,-2.5732,0.0,0.0,-2.3105,0.0,-2.248,-2.2568,-2.4268,-2.5086,-2.5116,-2.5527,-2.5684,-2.5723,-2.5732,-2.5732,-2.5732,-2.5732,-2.5732,-2.5732,-2.5732,-2.5732,-2.5732,-2.5732,-2.5732,-2.6149,-2.8623,-2.9407,-2.9407,-2.9396,-2.9396,-2.9066,-2.737,-2.6875,-2.6495,-2.4835,-2.4092,-2.3789,-2.3779,-2.3447,-2.3091,-2.3091,-2.276,-2.2383,-2.1953,-2.1523,-2.0625,-1.888,0.0,0.0,0.0,0.0,0.0,0.0,-1.5937,-1.5751,-1.6638,0.0,0.0,0.0,0.0,0.0,0.0,0.0,0.0,-1.7736,-1.6804,0.0,-1.9854,-2.0783,-2.3063,-2.6602,-2.7088,-2.8167,-2.9792,-2.9792,-2.9792,-2.9792,-2.9792,-2.9792,-2.9792,-2.9792,-2.9792,-2.9792,-2.9792,-2.9792,-2.9854,-3.0407,-3.0608,-3.0696,-2.6352,-2.7935,-2.9082,-2.8034,-2.8006,-2.8029,-2.7613,-2.7426,-2.7245,-2.6959,-2.7503,-2.8611,-3.0291,-3.0889,-3.0978,0.0,-3.0548,-3.0181,0.0,-2.9639,-2.9545,-2.8647,-2.8124,-2.7316,-2.6119,-2.5651,-2.5235,-2.4787,0.0,0.0,0.0,-2.3877,-2.4131,-2.469,-2.5283,-2.5527,-2.5527,-2.5625,-2.5693,-2.5693,-2.5693,-2.5693,-2.5693,-2.5693,-2.5693,-2.5693,-2.5693,-2.5693,-2.5693,-2.5693,-2.5693,-2.583,-2.661,-2.7484,-2.7992,-2.7115,-2.7484,-2.7876,-2.6438,-2.6084,-2.5879,-2.5065,-2.4756,-2.4512,-2.3926,-2.3457,-2.3091,-2.3091,-2.2984,-2.2812,-2.2393,-2.1963,-2.1113,-1.9365,-1.957,0.0,0.0,0.0,0.0,0.0,-1.698,-1.6736,0.0,-1.6833,0.0,0.0,0.0,0.0,0.0,0.0,0.0,0.0,-1.8803,0.0,-2.1763,-2.1991,-2.3369,-2.591,-2.608,-2.7021,-2.8636,-2.8636,-2.9067,-2.9792,-2.9792,-2.9792,-2.9792,-2.9792,-2.9792,-2.9829,-3.0206,-3.0357,-3.0419,-3.0947,-3.1386,-3.1725,-2.5679,-2.6911,-2.775,-2.6954,-2.7009,-2.6979,-2.6458,-2.6544,-2.6504,-2.6182,-2.6797,-2.7764,-2.9054,-2.9534,0.0,-3.0487,-3.0149,-2.9856,-2.9817,-2.9366,-2.8958,-2.8646,-2.7717,-2.6857,-2.6094,0.0,0.0,-2.5391,-2.5234,-2.5078,-2.4912,-2.4912,-2.5157,-2.5693,-2.5693,-2.5693,-2.5693,-2.5693,-2.5693,-2.5693,-2.5693,-2.5693,-2.5693,-2.5693,-2.5693,-2.5693,-2.5693,-2.5693,-2.5693,-2.5693,-2.5693,-2.5693,-2.5693,-2.6245,-2.6716,-2.5917,-2.6245,-2.6706,-2.5927,-2.5693,-2.5625,-2.5391,-2.5195,-2.4891,-2.3984,-2.3574,-2.3286,-2.313,-2.3091,-2.2964,-2.2588,-2.2295,-2.1719,-2.0469,-2.0576,-2.0537,-1.9689,0.0,0.0,0.0,0.0,0.0,0.0,-1.7886,-1.7418,0.0,0.0,0.0,0.0,0.0,0.0,-1.8125,-1.9043,0.0,-2.1642,-2.1872,-2.3039,-2.5076,-2.5669,-2.6483,-2.7481,-2.7481,-2.8108,-2.9145,-2.9145,-2.9404,-2.9792,-2.9792,-2.9917,-3.0131,-3.0482,-3.0733,-3.0972,-3.1499,-3.1913,-3.224,-2.5479,-2.5606,0.0,0.0,-2.6103,0.0,-2.4785,-2.5996,-2.6777,-2.5927,-2.6943,-2.7861,-2.8252,-2.8291,-2.8804,-3.0068,0.0,0.0,0.0,-2.8213,-2.8203,-2.8291,-2.7832,-2.763,-2.763,-2.7148,-2.6953,-2.7012,-2.6621,-2.623,-2.5771,-2.5771,-2.5762,-2.5732,-2.5732,-2.5713,-2.5693,-2.5693,-2.5693,-2.5693,-2.5693,-2.5693,-2.5693,-2.5693,-2.5693,-2.5693,-2.5693,-2.5693,-2.5693,-2.5693,-2.5693,-2.5693,-2.5693,-2.5693,-2.5693,-2.5693,-2.5693,-2.5693,-2.5693,-2.5693,-2.5693,-2.5693,-2.54,-2.491,-2.4062,-2.3828,-2.3682,-2.3227,-2.312,-2.2974,-2.2627,-2.2529,-2.2383,-2.1992,-2.1562,-2.12,-2.1073,0.0,0.0,0.0,0.0,0.0,0.0,-1.8685,-1.8695,0.0,0.0,0.0,0.0,0.0,-1.5909,-1.7598,-1.8027,-1.8838,-2.0078,-2.0869,-2.224,-2.4127,-2.56,-2.6307,-2.6389,-2.6389,-2.6953,-2.8004,-2.8004,-2.8661,-2.9725,-2.9725,-3.009,-3.067,-3.0708,-3.1022,-3.1512,-3.2064,-3.2277,-3.2353,0.0,0.0,-2.6025,-2.5342,-2.6133,-2.6758,-2.6445,-2.7031,-2.7441,-2.7236,-2.7754,-2.8184,-2.8281,-2.8291,-2.8451,-2.8751,-2.7889,-2.7596,-2.8276,-2.7383,-2.7275,-2.8252,-2.7266,-2.6689,-2.6689,-2.626,-2.6308,-2.7012,-2.6914,-2.6816,-2.6709,-2.6709,-2.6543,-2.623,-2.623,-2.6055,-2.5693,-2.5693,-2.5693,-2.5693,-2.5693,-2.5693,-2.5693,-2.5693,-2.5693,-2.5693,-2.5693,-2.5693,-2.5693,-2.5693,-2.5693,-2.5693,-2.5693,-2.5693,-2.5693,-2.5693,-2.5693,-2.5693,-2.5693,-2.5693,-2.5693,-2.5693,-2.54,-2.5067,-2.4861,-2.4258,-2.376,-2.3662,-2.3369,-2.3062,-2.2964,-2.2734,-2.248,-2.2383,-2.2012,-2.1269,-1.9941,-1.9394,0.0,0.0,-1.774,-1.8266,-1.8568,-1.9531,-1.9697,0.0,0.0,0.0,0.0,-1.8555,-1.8867,-2.0245,-2.0381,-2.0898,-2.1894,-2.2109,-2.2598,-2.3358,-2.3717,-2.4339,-2.521,-2.521,-2.5839,-2.6883,-2.6883,-2.7714,-2.9108,-2.9108,-2.9947,-3.1248,-3.1675,-3.1913,-3.2089,-3.2667,-3.2867,-3.2893,-2.4629,-2.5703,-2.6523,-2.6045,-2.6709,-2.7314,-2.7314,-2.7676,-2.7949,-2.7949,-2.8144,-2.8291,-2.8291,-2.8291,-2.8291,-2.8291,-2.7656,-2.7549,-2.8242,-2.7646,-2.7568,-2.8262,-2.7627,-2.7256,-2.7256,-2.7031,-2.7041,-2.7314,-2.7314,-2.7207,-2.7012,-2.7012,-2.6894,-2.667,-2.667,-2.6543,-2.6269,-2.6269,-2.6269,-2.6259,-2.6113,-2.6035,-2.6016,-2.5762,-2.5693,-2.5693,-2.5693,-2.5693,-2.5693,-2.5693,-2.5693,-2.5693,-2.5693,-2.5693,-2.5693,-2.5693,-2.5693,-2.5693,-2.5693,-2.5693,-2.5693,-2.5693,-2.5557,-2.5322,-2.5165,-2.4707,-2.4258,-2.3867,-2.3603,-2.3335,-2.313,-2.2906,-2.275,-2.275,-2.1943,-2.0997,-2.0048,-1.9199,0.0,-1.8223,-1.8763,-1.9453,-2.0068,-2.0762,-2.0879,-2.0176,0.0,0.0,-2.0439,-2.0088,-2.0381,-2.1494,-2.1719,-2.1999,-2.251,-2.2705,-2.2867,-2.3091,-2.3091,-2.342,-2.4006,-2.4006,-2.4753,-2.6009,-2.6009,-2.6908,-2.8407,-2.8975,-2.9588,-3.0216,-3.1041,-3.121,-3.0962,-3.1304,-3.1745,-3.2239,-2.7031,-2.7119,-2.7129,-2.7197,-2.7519,-2.7816,-2.7816,-2.8066,-2.8291,-2.8291,-2.8291,-2.8291,-2.8291,-2.8291,-2.8291,-2.8291,-2.8291,-2.8291,-2.8291,-2.8291,-2.8291,-2.8291,-2.8291,-2.8291,-2.8291,-2.8291,-2.8115,-2.7816,-2.7816,-2.7578,-2.7207,-2.7207,-2.7168,-2.7119,-2.7119,-2.708,-2.7012,-2.7012,-2.7012,-2.6982,-2.6631,-2.6484,-2.6445,-2.6074,-2.5879,-2.5879,-2.581,-2.5791,-2.5771,-2.5713,-2.5693,-2.5693,-2.5693,-2.5693,-2.5693,-2.5693,-2.5693,-2.5693,-2.5693,-2.5693,-2.5693,-2.5693,-2.5693,-2.5586,-2.5254,-2.5117,-2.491,-2.4131,-2.3877,-2.3682,-2.3257,-2.314,-2.3033,-2.2838,-2.1621,-2.0615,-2.0351,0.0,-1.8769,-1.9795,-2.0088,-2.0654,-2.1777,-2.1885,-2.1885,-2.1885,-2.1231,-2.1163,-2.1934,-2.131,-2.123,-2.2051,-2.2353,-2.2539,-2.2607,-2.2916,-2.3091,-2.3091,-2.3091,-2.313,-2.3198,-2.3198,-2.3943,-2.5264,-2.5264,-2.6156,-2.7668,-2.8735,-2.899,-2.8824,-2.9846,-2.989,-2.9407,-2.9407,-3.0045,-3.0944,-2.748,-2.7568,-2.7676,-2.8037,-2.8144,-2.8193,-2.8193,-2.8252,-2.8291,-2.8291,-2.8291,-2.8291,-2.8291,-2.8291,-2.8291,-2.8291,-2.8291,-2.8291,-2.8291,-2.8291,-2.8291,-2.8291,-2.8291,-2.8291,-2.8291,-2.8291,-2.8262,-2.8193,-2.8193,-2.8164,-2.8096,-2.8096,-2.791,-2.7568,-2.7568,-2.7363,-2.7012,-2.7012,-2.7012,-2.7012,-2.6943,-2.6914,-2.6914,-2.6846,-2.6816,-2.6768,-2.6416,-2.6289,-2.623,-2.581,-2.5693,-2.5693,-2.5693,-2.5693,-2.5693,-2.5693,-2.5693,-2.5693,-2.5693,-2.5693,-2.5693,-2.5693,-2.5693,-2.5674,-2.5596,-2.5342,-2.5077,-2.4949,-2.4297,-2.3769,-2.3701,-2.3389,-2.274,-2.1668,-2.1268,-2.0576,-1.9104,0.0,-2.0107,-1.9932,-2.0898,-2.166,-2.1865,-2.1885,-2.1885,-2.1885,-2.1758,-2.1894,-2.2383,-2.2285,-2.2432,-2.2886,-2.2623,-2.2643,-2.2994,-2.3062,-2.3091,-2.3091,-2.3091,-2.3286,-2.3691,-2.3691,-2.4006,-2.4536,-2.4536,-2.5498,-2.7045,-2.7227,-2.8089,-2.9295,-2.9477,-2.9477,-2.9407,-2.9407,-2.9544,-2.9681,-2.792,-2.7998,-2.8066,-2.8262,-2.8291,-2.8291,-2.8291,-2.8291,-2.8291,-2.8291,-2.8291,-2.8291,-2.8291,-2.8291,-2.8291,-2.8291,-2.8291,-2.8291,-2.8291,-2.8291,-2.8291,-2.8291,-2.8291,-2.8291,-2.8291,-2.8291,-2.8291,-2.8291,-2.8291,-2.8291,-2.8291,-2.8291,-2.8193,-2.7998,-2.7998,-2.7891,-2.7705,-2.7705,-2.7705,-2.7685,-2.7451,-2.7363,-2.7344,-2.7109,-2.7012,-2.6992,-2.6797,-2.6728,-2.6699,-2.6494,-2.6426,-2.6426,-2.6426,-2.6426,-2.6426,-2.6426,-2.6044,-2.5693,-2.5693,-2.5693,-2.5693,-2.5693,-2.5693,-2.5693,-2.5693,-2.5576,-2.5361,-2.5117,-2.4803,-2.4404,-2.417,-2.3779,-2.3301,-2.2705,-2.1795,0.0,0.0,-2.0547,-2.085,-2.0615,-2.1726,-2.2559,-2.2559,-2.2559,-2.2559,-2.2559,-2.2559,-2.2646,-2.2789,-2.2808,-2.2896,-2.3091,-2.2906,-2.2896,-2.3091,-2.3091,-2.3218,-2.3486,-2.3486,-2.3711,-2.4121,-2.4121,-2.4355,-2.4766,-2.4766,-2.534,-2.6307,-2.6993,-2.7343,-2.7484,-2.8179,-2.7992,-2.7389,-2.7389,-2.7851,-2.8402,-2.8232,-2.8291,-2.8291,-2.8291,-2.8291,-2.8291,-2.8291,-2.8291,-2.8291,-2.8291,-2.8291,-2.8291,-2.8291,-2.8291,-2.8291,-2.8291,-2.8291,-2.8291,-2.8291,-2.8291,-2.8291,-2.8291,-2.8291,-2.8291,-2.8291,-2.8291,-2.8291,-2.8291,-2.8291,-2.8291,-2.8291,-2.8291,-2.8291,-2.8291,-2.8291,-2.8291,-2.8291,-2.8291,-2.8291,-2.8262,-2.7939,-2.7812,-2.7826,-2.7441,-2.7314,-2.7295,-2.7207,-2.7168,-2.7148,-2.7051,-2.7012,-2.7012,-2.7012,-2.7012,-2.7012,-2.7012,-2.6553,-2.5966,-2.5869,-2.584,-2.5859,-2.5713,-2.5693,-2.5693,-2.5693,-2.5693,-2.5586,-2.5293,-2.5184,-2.4971,-2.4629,-2.4219,-2.3838,-2.3545,0.0,0.0,0.0,-2.1259,-2.1307,-2.16,-2.2496,-2.3091,-2.3091,-2.3091,-2.3091,-2.3091,-2.3091,-2.3091,-2.3091,-2.3188,-2.3286,-2.3393,-2.3198,-2.314,-2.3247,-2.3247,-2.3506,-2.3935,-2.3935,-2.416,-2.457,-2.457,-2.4805,-2.5225,-2.5225,-2.542,-2.5781,-2.6754,-2.6572,-2.5781,-2.6802,-2.6572,-2.5693,-2.5693,-2.6342,-2.7173,-2.8281,-2.8291,-2.8291,-2.8291,-2.8291,-2.8291,-2.8291,-2.8291,-2.8291,-2.8291,-2.8291,-2.8291,-2.8291,-2.8291,-2.8291,-2.8291,-2.8291,-2.8291,-2.8291,-2.8291,-2.8291,-2.8291,-2.8291,-2.8291,-2.8291,-2.8291,-2.8291,-2.8291,-2.8291,-2.8291,-2.8291,-2.8291,-2.8291,-2.8291,-2.8291,-2.8291,-2.8291,-2.8291,-2.8291,-2.8291,-2.8262,-2.8252,-2.8242,-2.8213,-2.8203,-2.8144,-2.7754,-2.7669,-2.7559,-2.7148,-2.7012,-2.7012,-2.7012,-2.7012,-2.7012,-2.7012,-2.6973,-2.6836,-2.6445,-2.6338,-2.624,-2.5791,-2.5693,-2.5693,-2.5693,-2.5693,-2.5674,-2.5645,-2.5361,-2.5106,-2.5077,-2.4668,-2.3984,-2.2803,0.0,0.0,-2.1836,-2.1484,-2.1629,-2.2818,-2.3033,-2.3091,-2.3091,-2.3091,-2.3091,-2.3091,-2.3091,-2.3091,-2.3091,-2.3525,-2.3916,-2.4307,-2.351,-2.3286,-2.374,-2.374,-2.3955,-2.4375,-2.4375,-2.46,-2.5067,-2.5067,-2.5264,-2.5635,-2.5635,-2.5664,-2.5693,-2.5781,-2.5781,-2.5684,-2.5781,-2.5781,-2.5693,-2.5693,-2.5781,-2.583,-2.8291,-2.8291,-2.8291,-2.8291,-2.8291,-2.8291,-2.8291,-2.8291,-2.8291,-2.8291,-2.8291,-2.8291,-2.8291,-2.8291,-2.8291,-2.8291,-2.8291,-2.8291,-2.8291,-2.8291,-2.8291,-2.8291,-2.8291,-2.8291,-2.8291,-2.8291,-2.8291,-2.8291,-2.8291,-2.8291,-2.8291,-2.8291,-2.8291,-2.8291,-2.8291,-2.8291,-2.8291,-2.8291,-2.8291,-2.8291,-2.8291,-2.8291,-2.8291,-2.8291,-2.8291,-2.8271,-2.8115,-2.8057,-2.8027,-2.7861,-2.7803,-2.7803,-2.7803,-2.7803,-2.7803,-2.7803,-2.7803,-2.7715,-2.7346,-2.6982,-2.6738,-2.6572,-2.6338,-2.6143,-2.6143,-2.5937,-2.5693,-2.5693,-2.5605,-2.5478,-2.5478,-2.5117,-2.4668,-2.418,0.0,-2.3457,-2.3457,-2.331,-2.3344,-2.3867,-2.3926,-2.3926,-2.3926,-2.3926,-2.3926,-2.3926,-2.3926,-2.3926,-2.3926,-2.4092,-2.4248,-2.4414,-2.4102,-2.4014,-2.418,-2.418,-2.4394,-2.4814,-2.4814,-2.5049,-2.5478,-2.5478,-2.5576,-2.5693,-2.5693,-2.5693,-2.5693,-2.5693,-2.5693,-2.5693,-2.5693,-2.5693,-2.5693,-2.5693,-2.5693,-2.5693,-2.8291,-2.8291,-2.8291,-2.8291,-2.8291,-2.8291,-2.8291,-2.8291,-2.8291,-2.8291,-2.8291,-2.8291,-2.8291,-2.8291,-2.8291,-2.8291,-2.8291,-2.8291,-2.8291,-2.8291,-2.8291,-2.8291,-2.8291,-2.8291,-2.8291,-2.8291,-2.8291,-2.8291,-2.8291,-2.8291,-2.8291,-2.8291,-2.8291,-2.8291,-2.8291,-2.8291,-2.8291,-2.8291,-2.8291,-2.8291,-2.8291,-2.8291,-2.8291,-2.8291,-2.8291,-2.8291,-2.8291,-2.8291,-2.8291,-2.8291,-2.8291,-2.8291,-2.8291,-2.8291,-2.8291,-2.8291,-2.8291,-2.8232,-2.7939,-2.7646,-2.7353,-2.708,-2.6797,-2.6592,-2.6592,-2.625,-2.5947,-2.5947,-2.5781,-2.5693,-2.5693,-2.5488,-2.5283,-2.5283,-2.4912,-2.4619,-2.4619,-2.4502,-2.4414,-2.4414,-2.4414,-2.4414,-2.4414,-2.4414,-2.4414,-2.4414,-2.4414,-2.4473,-2.4609,-2.4619,-2.4687,-2.4777,-2.4834,-2.4834,-2.4834,-2.4687,-2.4844,-2.5283,-2.5283,-2.5439,-2.5693,-2.5693,-2.5693,-2.5693,-2.5693,-2.5693,-2.5693,-2.5693,-2.5693,-2.5693,-2.5693,-2.5693,-2.5693,-2.5693,-2.5693,-2.5693,-2.8291,-2.8291,-2.8291,-2.8291,-2.8291,-2.8291,-2.8291,-2.8291,-2.8291,-2.8291,-2.8291,-2.8291,-2.8291,-2.8291,-2.8291,-2.8291,-2.8291,-2.8291,-2.8291,-2.8291,-2.8291,-2.8291,-2.8291,-2.8291,-2.8291,-2.8291,-2.8291,-2.8291,-2.8291,-2.8291,-2.8291,-2.8291,-2.8291,-2.8291,-2.8291,-2.8291,-2.8291,-2.8291,-2.8291,-2.8291,-2.8291,-2.8291,-2.8291,-2.8291,-2.8291,-2.8291,-2.8291,-2.8291,-2.8291,-2.8291,-2.8291,-2.8291,-2.8291,-2.8291,-2.8291,-2.8291,-2.8291,-2.8291,-2.8291,-2.8291,-2.8086,-2.7236,-2.7021,-2.7021,-2.7021,-2.6699,-2.6396,-2.6396,-2.6045,-2.5693,-2.5693,-2.5693,-2.5693,-2.5693,-2.5361,-2.5116,-2.5116,-2.4697,-2.4424,-2.4424,-2.4424,-2.4424,-2.4424,-2.4424,-2.4424,-2.4424,-2.4424,-2.4619,-2.5096,-2.5116,-2.5283,-2.5674,-2.5693,-2.5693,-2.5693,-2.5293,-2.5293,-2.5693,-2.5693,-2.5693,-2.5693,-2.5693,-2.5693,-2.5693,-2.5693,-2.5693,-2.5693,-2.5693,-2.5693,-2.5693,-2.5693,-2.5693,-2.5693,-2.5693,-2.5693,-2.5693,-2.8291,-2.8291,-2.8291,-2.8291,-2.8291,-2.8291,-2.8291,-2.8291,-2.8291,-2.8291,-2.8291,-2.8291,-2.8291,-2.8291,-2.8291,-2.8291,-2.8291,-2.8291,-2.8291,-2.8291,-2.8291,-2.8291,-2.8291,-2.8291,-2.8291,-2.8291,-2.8291,-2.8291,-2.8291,-2.8291,-2.8291,-2.8291,-2.8291,-2.8291,-2.8291,-2.8291,-2.8291,-2.8291,-2.8291,-2.8291,-2.8291,-2.8291,-2.8291,-2.8291,-2.8291,-2.8291,-2.8291,-2.8291,-2.8291,-2.8291,-2.8291,-2.8291,-2.8291,-2.8291,-2.8291,-2.8291,-2.8291,-2.8291,-2.8291,-2.8291,-2.8232,-2.7978,-2.7685,-2.7471,-2.7471,-2.7139,-2.6826,-2.6826,-2.6494,-2.6191,-2.6191,-2.5947,-2.5693,-2.5693,-2.5577,-2.5537,-2.5537,-2.5372,-2.5294,-2.5294,-2.5294,-2.5294,-2.5294,-2.5294,-2.5294,-2.5294,-2.5294,-2.5352,-2.5527,-2.5537,-2.5596,-2.5684,-2.5693,-2.5693,-2.5693,-2.5605,-2.5605,-2.5693,-2.5693,-2.5693,-2.5693,-2.5693,-2.5693,-2.5693,-2.5693,-2.5693,-2.5693,-2.5693,-2.5693,-2.5693,-2.5693,-2.5693,-2.5693,-2.5693,-2.5693,-2.5693,-2.8291,-2.8291,-2.8291,-2.8291,-2.8291,-2.8291,-2.8291,-2.8291,-2.8291,-2.8291,-2.8291,-2.8291,-2.8291,-2.8291,-2.8291,-2.8291,-2.8291,-2.8291,-2.8291,-2.8291,-2.8291,-2.8291,-2.8291,-2.8291,-2.8291,-2.8291,-2.8291,-2.8291,-2.8291,-2.8291,-2.8291,-2.8291,-2.8291,-2.8291,-2.8291,-2.8291,-2.8291,-2.8291,-2.8291,-2.8291,-2.8291,-2.8291,-2.8291,-2.8291,-2.8291,-2.8291,-2.8291,-2.8291,-2.8291,-2.8291,-2.8291,-2.8291,-2.8291,-2.8291,-2.8291,-2.8291,-2.8291,-2.8291,-2.8291,-2.8291,-2.8291,-2.8291,-2.8096,-2.792,-2.792,-2.7578,-2.7275,-2.7275,-2.6934,-2.6641,-2.6641,-2.6426,-2.6132,-2.6016,-2.5996,-2.5937,-2.5713,-2.5693,-2.5693,-2.5693,-2.5693,-2.5693,-2.5693,-2.5693,-2.5693,-2.5693,-2.5693,-2.5693,-2.5693,-2.5693,-2.5693,-2.5693,-2.5693,-2.5693,-2.5693,-2.5693,-2.5693,-2.5693,-2.5693,-2.5693,-2.5693,-2.5693,-2.5693,-2.5693,-2.5693,-2.5693,-2.5693,-2.5693,-2.5693,-2.5693,-2.5693,-2.5693,-2.5693,-2.5693,-2.5693,-2.5693,-2.8291,-2.8291,-2.8291,-2.8291,-2.8291,-2.8291,-2.8291,-2.8291,-2.8291,-2.8291,-2.8291,-2.8291,-2.8291,-2.8291,-2.8291,-2.8291,-2.8291,-2.8291,-2.8291,-2.8291,-2.8291,-2.8291,-2.8291,-2.8291,-2.8291,-2.8291,-2.8291,-2.8291,-2.8291,-2.8291,-2.8291,-2.8291,-2.8291,-2.8291,-2.8291,-2.8291,-2.8291,-2.8291,-2.8291,-2.8291,-2.8291,-2.8291,-2.8291,-2.8291,-2.8291,-2.8291,-2.8291,-2.8291,-2.8291,-2.8291,-2.8291,-2.8291,-2.8291,-2.8291,-2.8291,-2.8291,-2.8291,-2.8291,-2.8291,-2.8291,-2.8291,-2.8291,-2.8291,-2.8291,-2.8291,-2.7998,-2.7777,-2.7777,-2.7373,-2.707,-2.707,-2.7041,-2.6894,-2.6504,-2.6445,-2.6289,-2.581,-2.5742,-2.5732,-2.5693,-2.5693,-2.5693,-2.5693,-2.5693,-2.5693,-2.5693,-2.5693,-2.5693,-2.5693,-2.5693,-2.5693,-2.5693,-2.5693,-2.5693,-2.5693,-2.5693,-2.5693,-2.5693,-2.5693,-2.5693,-2.5693,-2.5693,-2.5693,-2.5693,-2.5693,-2.5693,-2.5693,-2.5693,-2.5693,-2.5693,-2.5693,-2.5693,-2.5693,-2.5693,-2.5693,-2.5693,-2.8291,-2.8291,-2.8291,-2.8291,-2.8291,-2.8291,-2.8291,-2.8291,-2.8291,-2.8291,-2.8291,-2.8291,-2.8291,-2.8291,-2.8291,-2.8291,-2.8291,-2.8291,-2.8291,-2.8291,-2.8291,-2.8291,-2.8291,-2.8291,-2.8291,-2.8291,-2.8291,-2.8291,-2.8291,-2.8291,-2.8291,-2.8291,-2.8291,-2.8291,-2.8291,-2.8291,-2.8291,-2.8291,-2.8291,-2.8291,-2.8291,-2.8291,-2.8291,-2.8291,-2.8291,-2.8291,-2.8291,-2.8291,-2.8291,-2.8291,-2.8291,-2.8291,-2.8291,-2.8291,-2.8291,-2.8291,-2.8291,-2.8291,-2.8291,-2.8291,-2.8291,-2.8291,-2.8291,-2.8291,-2.8291,-2.8223,-2.8154,-2.8154,-2.7822,-2.7529,-2.7529,-2.7246,-2.6982,-2.6894,-2.6875,-2.6728,-2.6309,-2.625,-2.6123,-2.5732,-2.5693,-2.5693,-2.5693,-2.5693,-2.5693,-2.5693,-2.5693,-2.5693,-2.5693,-2.5693,-2.5693,-2.5693,-2.5693,-2.5693,-2.5693,-2.5693,-2.5693,-2.5693,-2.5693,-2.5693,-2.5693,-2.5693,-2.5693,-2.5693,-2.5693,-2.5693,-2.5693,-2.5693,-2.5693,-2.5693,-2.5693,-2.5693,-2.5693,-2.5693,-2.5693,-2.5693,-2.8291,-2.8291,-2.8291,-2.8291,-2.8291,-2.8291,-2.8291,-2.8291,-2.8291,-2.8291,-2.8291,-2.8291,-2.8291,-2.8291,-2.8291,-2.8291,-2.8291,-2.8291,-2.8291,-2.8291,-2.8291,-2.8291,-2.8291,-2.8291,-2.8291,-2.8291,-2.8291,-2.8291,-2.8291,-2.8291,-2.8291,-2.8291,-2.8291,-2.8291,-2.8291,-2.8291,-2.8291,-2.8291,-2.8291,-2.8291,-2.8291,-2.8291,-2.8291,-2.8291,-2.8291,-2.8291,-2.8291,-2.8291,-2.8291,-2.8291,-2.8291,-2.8291,-2.8291,-2.8291,-2.8291,-2.8291,-2.8291,-2.8291,-2.8291,-2.8291,-2.8291,-2.8291,-2.8291,-2.8291,-2.8291,-2.8291,-2.8291,-2.8291,-2.8115,-2.7969,-2.7969,-2.7783,-2.7559,-2.7363,-2.7324,-2.7178,-2.6748,-2.6689,-2.6602,-2.6327,-2.6172,-2.5967,-2.5703,-2.5693,-2.5693,-2.5693,-2.5693,-2.5693,-2.5693,-2.5693,-2.5693,-2.5693,-2.5693,-2.5693,-2.5693,-2.5693,-2.5693,-2.5693,-2.5693,-2.5693,-2.5693,-2.5693,-2.5693,-2.5693,-2.5693,-2.5693,-2.5693,-2.5693,-2.5693,-2.5693,-2.5693,-2.5693,-2.5693,-2.5693,-2.5693,-2.5693,-2.8291,-2.8291,-2.8291,-2.8291,-2.8291,-2.8291,-2.8291,-2.8291,-2.8291,-2.8291,-2.8291,-2.8291,-2.8291,-2.8291,-2.8291,-2.8291,-2.8291,-2.8291,-2.8291,-2.8291,-2.8291,-2.8291,-2.8291,-2.8291,-2.8291,-2.8291,-2.8291,-2.8291,-2.8291,-2.8291,-2.8291,-2.8291,-2.8291,-2.8291,-2.8291,-2.8291,-2.8291,-2.8291,-2.8291,-2.8291,-2.8291,-2.8291,-2.8291,-2.8291,-2.8291,-2.8291,-2.8291,-2.8291,-2.8291,-2.8291,-2.8291,-2.8291,-2.8291,-2.8291,-2.8291,-2.8291,-2.8291,-2.8291,-2.8291,-2.8291,-2.8291,-2.8291,-2.8291,-2.8291,-2.8291,-2.8291,-2.8291,-2.8291,-2.8291,-2.8291,-2.8291,-2.8291,-2.8174,-2.7885,-2.7826,-2.7617,-2.7187,-2.7129,-2.71,-2.7021,-2.6709,-2.6328,-2.584,-2.5801,-2.5771,-2.5693,-2.5693,-2.5693,-2.5693,-2.5693,-2.5693,-2.5693,-2.5693,-2.5693,-2.5693,-2.5693,-2.5693,-2.5693,-2.5693,-2.5693,-2.5693,-2.5693,-2.5693,-2.5693,-2.5693,-2.5693,-2.5693,-2.5693,-2.5693,-2.5693,-2.5693,-2.5693,-2.5693,-2.5693,-2.5693,-2.5693,-2.8291,-2.8291,-2.8291,-2.8291,-2.8291,-2.8291,-2.8291,-2.8291,-2.8291,-2.8291,-2.8291,-2.8291,-2.8291,-2.8291,-2.8291,-2.8291,-2.8291,-2.8291,-2.8291,-2.8291,-2.8291,-2.8291,-2.8291,-2.8291,-2.8291,-2.8291,-2.8291,-2.8291,-2.8291,-2.8291,-2.8291,-2.8291,-2.8291,-2.8291,-2.8291,-2.8291,-2.8291,-2.8291,-2.8291,-2.8291,-2.8291,-2.8291,-2.8291,-2.8291,-2.8291,-2.8291,-2.8291,-2.8291,-2.8291,-2.8291,-2.8291,-2.8291,-2.8291,-2.8291,-2.8291,-2.8291,-2.8291,-2.8291,-2.8291,-2.8291,-2.8291,-2.8291,-2.8291,-2.8291,-2.8291,-2.8291,-2.8291,-2.8291,-2.8291,-2.8291,-2.8291,-2.8291,-2.8271,-2.8223,-2.8203,-2.8057,-2.7637,-2.763,-2.7432,-2.706,-2.6963,-2.6768,-2.6338,-2.6299,-2.6143,-2.5713,-2.5693,-2.5693,-2.5693,-2.5693,-2.5693,-2.5693,-2.5693,-2.5693,-2.5693,-2.5693,-2.5693,-2.5693,-2.5693,-2.5693,-2.5693,-2.5693,-2.5693,-2.5693,-2.5693,-2.5693,-2.5693,-2.5693,-2.5693,-2.5693,-2.5693,-2.5693,-2.5693,-2.5693,-2.5693,-2.5693,-2.8291,-2.8291,-2.8291,-2.8291,-2.8291,-2.8291,-2.8291,-2.8291,-2.8291,-2.8291,-2.8291,-2.8291,-2.8291,-2.8291,-2.8291,-2.8291,-2.8291,-2.8291,-2.8291,-2.8291,-2.8291,-2.8291,-2.8291,-2.8291,-2.8291,-2.8291,-2.8291,-2.8291,-2.8291,-2.8291,-2.8291,-2.8291,-2.8291,-2.8291,-2.8291,-2.8291,-2.8291,-2.8291,-2.8291,-2.8291,-2.8291,-2.8291,-2.8291,-2.8291,-2.8291,-2.8291,-2.8291,-2.8291,-2.8291,-2.8291,-2.8291,-2.8291,-2.8291,-2.8291,-2.8291,-2.8291,-2.8291,-2.8291,-2.8291,-2.8291,-2.8291,-2.8291,-2.8291,-2.8291,-2.8291,-2.8291,-2.8291,-2.8291,-2.8291,-2.8291,-2.8291,-2.8291,-2.8291,-2.8291,-2.8291,-2.8232,-2.8047,-2.8018,-2.7851,-2.7432,-2.7373,-2.7207,-2.6787,-2.6738,-2.6562,-2.6133,-2.6103,-2.5996,-2.5703,-2.5693,-2.5693,-2.5693,-2.5693,-2.5693,-2.5693,-2.5693,-2.5693,-2.5693,-2.5693,-2.5693,-2.5693,-2.5693,-2.5693,-2.5693,-2.5693,-2.5693,-2.5693,-2.5693,-2.5693,-2.5693,-2.5693,-2.5693,-2.5693,-2.5693,-2.5693,-2.5693]},{"header":{"parameterUnit":"m.s-1","parameterCategory":1,"la1":30.6,"la2":28.766,"lo1":-90.7593,"lo2":-88.6598,"dy":0.0162,"dx":0.0183,"nx":116,"ny":114,"refTime":"2024-04-18T12:00:00:Z","depth":0,"parameterNumber":3,"parameterNumberName":"V-component_of_WINDS"},"data":[0.0,0.0,0.0,0.0,0.0,0.0,0.0,0.0,0.0,0.0,0.0,0.0,0.0,0.0,0.0,0.0,0.0,0.0,0.0,0.0,0.0,0.0,0.0,0.0,0.0,0.0,0.0,0.0,0.0,0.0,0.0,0.0,0.0,0.0,0.0,0.0,0.0,0.0,0.0,0.0,0.0,0.0,0.0,0.0,0.0,0.0,0.0,0.0,0.0,0.0,0.0,0.0,0.0,0.0,0.0,0.0,0.0,0.0,0.0,0.0,0.0,0.0,0.0,0.0,0.0,0.0,0.0,0.0,0.0,0.0,0.0,0.0,0.0,0.0,0.0,0.0,0.0,0.0,0.0,0.0,0.0,0.0,0.0,0.0,0.0,0.0,0.0,0.0,0.0,0.0,0.0,0.0,0.0,0.0,0.0,0.0,0.0,0.0,0.0,0.0,0.0,0.0,0.0,0.0,0.0,0.0,0.0,0.0,0.0,0.0,0.0,0.0,0.0,0.0,0.0,0.0,0.0,0.0,0.0,0.0,0.0,0.0,0.0,0.0,0.0,0.0,0.0,0.0,0.0,0.0,0.0,0.0,0.0,0.0,0.0,0.0,0.0,0.0,0.0,0.0,0.0,0.0,0.0,0.0,0.0,0.0,0.0,0.0,0.0,0.0,0.0,0.0,0.0,0.0,0.0,0.0,0.0,0.0,0.0,0.0,0.0,0.0,0.0,0.0,0.0,0.0,0.0,0.0,0.0,0.0,0.0,0.0,0.0,0.0,0.0,0.0,0.0,0.0,0.0,0.0,0.0,0.0,0.0,0.0,0.0,0.0,0.0,0.0,0.0,0.0,0.0,0.0,0.0,0.0,0.0,0.0,0.0,0.0,0.0,0.0,0.0,0.0,0.0,0.0,0.0,0.0,0.0,0.0,0.0,0.0,0.0,0.0,0.0,0.0,0.0,0.0,0.0,0.0,0.0,0.0,0.0,0.0,0.0,0.0,0.0,0.0,0.0,0.0,0.0,0.0,0.0,0.0,0.0,0.0,0.0,0.0,0.0,0.0,0.0,0.0,0.0,0.0,0.0,0.0,0.0,0.0,0.0,0.0,0.0,0.0,0.0,0.0,0.0,0.0,0.0,0.0,0.0,0.0,0.0,0.0,0.0,0.0,0.0,0.0,0.0,0.0,0.0,0.0,0.0,0.0,0.0,0.0,0.0,0.0,0.0,0.0,0.0,0.0,0.0,0.0,0.0,0.0,0.0,0.0,0.0,0.0,0.0,0.0,0.0,0.0,0.0,0.0,0.0,0.0,0.0,0.0,0.0,0.0,0.0,0.0,0.0,0.0,0.0,0.0,0.0,0.0,0.0,0.0,0.0,0.0,0.0,0.0,0.0,0.0,0.0,0.0,0.0,0.0,0.0,0.0,0.0,0.0,0.0,0.0,0.0,0.0,0.0,0.0,0.0,0.0,0.0,0.0,0.0,0.0,0.0,0.0,0.0,0.0,0.0,0.0,0.0,0.0,0.0,0.0,0.0,0.0,0.0,0.0,0.0,0.0,0.0,0.0,0.0,0.0,0.0,0.0,0.0,0.0,0.0,0.0,0.0,0.0,0.0,0.0,0.0,0.0,0.0,0.0,0.0,0.0,0.0,0.0,0.0,0.0,0.0,0.0,0.0,0.0,0.0,0.0,0.0,0.0,0.0,0.0,0.0,0.0,0.0,0.0,0.0,0.0,0.0,0.0,0.0,0.0,0.0,0.0,0.0,0.0,0.0,0.0,0.0,0.0,0.0,0.0,0.0,0.0,0.0,0.0,0.0,0.0,0.0,0.0,0.0,0.0,0.0,0.0,0.0,0.0,0.0,0.0,0.0,0.0,0.0,0.0,0.0,0.0,0.0,0.0,0.0,0.0,0.0,0.0,0.0,0.0,0.0,0.0,0.0,0.0,0.0,0.0,0.0,0.0,0.0,0.0,0.0,0.0,0.0,0.0,0.0,0.0,0.0,0.0,0.0,0.0,0.0,0.0,0.0,0.0,0.0,0.0,0.0,0.0,0.0,0.0,0.0,0.0,0.0,0.0,0.0,0.0,0.0,0.0,0.0,0.0,0.0,0.0,0.0,0.0,0.0,0.0,0.0,0.0,0.0,0.0,0.0,0.0,0.0,0.0,0.0,0.0,0.0,0.0,0.0,0.0,0.0,0.0,0.0,0.0,0.0,0.0,0.0,0.0,0.0,0.0,0.0,0.0,0.0,0.0,0.0,0.0,0.0,0.0,0.0,0.0,0.0,0.0,0.0,0.0,0.0,0.0,0.0,0.0,0.0,0.0,0.0,0.0,0.0,0.0,0.0,0.0,0.0,0.0,0.0,0.0,0.0,0.0,0.0,0.0,0.0,0.0,0.0,0.0,0.0,0.0,0.0,0.0,0.0,0.0,0.0,0.0,0.0,0.0,0.0,0.0,0.0,0.0,0.0,0.0,0.0,0.0,0.0,0.0,0.0,0.0,0.0,0.0,0.0,0.0,0.0,0.0,0.0,0.0,0.0,0.0,0.0,0.0,0.0,0.0,0.0,0.0,0.0,0.0,0.0,0.0,0.0,0.0,0.0,0.0,0.0,0.0,0.0,0.0,0.0,0.0,0.0,0.0,0.0,0.0,0.0,0.0,0.0,0.0,0.0,0.0,0.0,0.0,0.0,0.0,0.0,0.0,0.0,0.0,0.0,0.0,0.0,0.0,0.0,0.0,0.0,0.0,0.0,0.0,0.0,0.0,0.0,0.0,0.0,0.0,0.0,0.0,0.0,0.0,0.0,0.0,0.0,0.0,0.0,0.0,0.0,0.0,0.0,0.0,0.0,0.0,0.0,0.0,0.0,0.0,0.0,0.0,0.0,0.0,0.0,0.0,0.0,0.0,0.0,0.0,0.0,0.0,0.0,0.0,0.0,0.0,0.0,0.0,0.0,0.0,0.0,0.0,0.0,0.0,0.0,0.0,0.0,0.0,0.0,0.0,0.0,0.0,0.0,0.0,0.0,0.0,0.0,0.0,0.0,0.0,0.0,0.0,0.0,0.0,0.0,0.0,0.0,0.0,0.0,0.0,0.0,0.0,0.0,0.0,0.0,0.0,0.0,0.0,0.0,0.0,0.0,0.0,0.0,0.0,0.0,0.0,0.0,0.0,0.0,0.0,0.0,0.0,0.0,0.0,0.0,0.0,0.0,0.0,0.0,0.0,0.0,0.0,0.0,0.0,0.0,0.0,0.0,0.0,0.0,0.0,0.0,0.0,0.0,0.0,0.0,0.0,0.0,0.0,0.0,0.0,0.0,0.0,0.0,0.0,0.0,0.0,0.0,0.0,0.0,0.0,0.0,0.0,0.0,0.0,0.0,0.0,0.0,0.0,0.0,0.0,0.0,0.0,0.0,0.0,0.0,0.0,0.0,0.0,0.0,0.0,0.0,0.0,0.0,0.0,0.0,0.0,0.0,0.0,0.0,0.0,0.0,0.0,0.0,0.0,0.0,0.0,0.0,0.0,0.0,0.0,0.0,0.0,0.0,0.0,0.0,0.0,0.0,0.0,0.0,0.0,0.0,0.0,0.0,0.0,0.0,0.0,0.0,0.0,0.0,0.0,0.0,0.0,0.0,0.0,0.0,0.0,0.0,0.0,0.0,0.0,0.0,0.0,0.0,0.0,0.0,0.0,0.0,0.0,0.0,0.0,0.0,0.0,0.0,0.0,0.0,0.0,0.0,0.0,0.0,0.0,0.0,0.0,0.0,0.0,0.0,0.0,0.0,0.0,0.0,0.0,0.0,0.0,0.0,0.0,0.0,0.0,0.0,0.0,0.0,0.0,0.0,0.0,0.0,0.0,0.0,0.0,0.0,0.0,0.0,0.0,0.0,0.0,0.0,0.0,0.0,0.0,0.0,0.0,0.0,0.0,0.0,0.0,0.0,0.0,0.0,0.0,0.0,0.0,0.0,0.0,0.0,0.0,0.0,0.0,0.0,0.0,0.0,0.0,0.0,0.0,0.0,0.0,0.0,0.0,0.0,0.0,0.0,0.0,0.0,0.0,0.0,0.0,0.0,0.0,0.0,0.0,0.0,0.0,0.0,0.0,0.0,0.0,0.0,0.0,0.0,0.0,0.0,0.0,0.0,0.0,0.0,0.0,0.0,0.0,0.0,0.0,0.0,0.0,0.0,0.0,0.0,0.0,0.0,0.0,0.0,0.0,0.0,0.0,0.0,0.0,0.0,0.0,0.0,0.0,0.0,0.0,0.0,0.0,0.0,0.0,0.0,0.0,0.0,0.0,0.0,0.0,0.0,0.0,0.0,0.0,0.0,0.0,0.0,0.0,0.0,0.0,0.0,0.0,0.0,0.0,0.0,0.0,0.0,0.0,0.0,0.0,0.0,0.0,0.0,0.0,0.0,0.0,0.0,0.0,0.0,0.0,0.0,0.0,0.0,0.0,0.0,0.0,0.0,0.0,0.0,0.0,0.0,0.0,0.0,0.0,0.0,0.0,0.0,0.0,0.0,0.0,0.0,0.0,0.0,0.0,0.0,0.0,0.0,0.0,0.0,0.0,0.0,0.0,0.0,0.0,0.0,0.0,0.0,0.0,0.0,0.0,0.0,0.0,0.0,0.0,0.0,0.0,0.0,0.0,0.0,0.0,0.0,0.0,0.0,0.0,0.0,0.0,0.0,0.0,0.0,0.0,0.0,0.0,0.0,0.0,0.0,0.0,0.0,0.0,0.0,0.0,0.0,0.0,0.0,0.0,0.0,0.0,0.0,0.0,0.0,0.0,0.0,0.0,0.0,0.0,0.0,0.0,0.0,0.0,0.0,0.0,0.0,0.0,0.0,0.0,0.0,0.0,0.0,0.0,0.0,0.0,0.0,0.0,0.0,0.0,0.0,0.0,0.0,0.0,0.0,0.0,0.0,0.0,0.0,0.0,0.0,0.0,0.0,0.0,0.0,0.0,0.0,0.0,0.0,0.0,0.0,0.0,0.0,0.0,0.0,0.0,0.0,0.0,0.0,0.0,0.0,0.0,0.0,0.0,0.0,0.0,0.0,0.0,0.0,0.0,0.0,0.0,0.0,0.0,0.0,0.0,0.0,0.0,0.0,0.0,0.0,0.0,0.0,0.0,0.0,0.0,0.0,0.0,0.0,0.0,0.0,0.0,0.0,0.0,0.0,0.0,0.0,0.0,0.0,0.0,0.0,0.0,0.0,0.0,0.0,0.0,0.0,0.0,0.0,0.0,0.0,0.0,0.0,0.0,0.0,0.0,0.0,0.0,0.0,0.0,0.0,0.0,0.0,0.0,0.0,0.0,0.0,0.0,0.0,0.0,0.0,0.0,0.0,0.0,0.0,0.0,0.0,0.0,0.0,0.0,0.0,0.0,0.0,0.0,0.0,0.0,0.0,0.0,0.0,0.0,0.0,0.0,0.0,0.0,0.0,0.0,0.0,0.0,0.0,0.0,0.0,0.0,0.0,0.0,0.0,0.0,0.0,0.0,0.0,0.0,0.0,0.0,0.0,0.0,0.0,0.0,0.0,0.0,0.0,0.0,0.0,0.0,0.0,0.0,0.0,0.0,0.0,0.0,0.0,0.0,0.0,0.0,0.0,0.0,0.0,0.0,0.0,0.0,0.0,0.0,0.0,0.0,0.0,0.0,0.0,0.0,0.0,0.0,0.0,0.0,0.0,0.0,0.0,0.0,0.0,0.0,0.0,0.0,0.0,0.0,0.0,0.0,0.0,0.0,0.0,0.0,0.0,0.0,0.0,0.0,0.0,0.0,0.0,0.0,0.0,0.0,0.0,0.0,0.0,0.0,0.0,0.0,0.0,0.0,0.0,0.0,0.0,0.0,0.0,0.0,0.0,0.0,0.0,0.0,0.0,0.0,0.0,0.0,0.0,0.0,0.0,0.0,0.0,0.0,0.0,0.0,0.0,0.0,0.0,0.0,0.0,0.0,0.0,0.0,0.0,0.0,0.0,0.0,0.0,0.0,0.0,0.0,0.0,0.0,0.0,0.0,0.0,0.0,0.0,0.0,0.0,0.0,0.0,0.0,0.0,0.0,0.0,0.0,0.0,0.0,0.0,0.0,1.179,0.0,0.0,0.0,0.0,0.0,0.0,0.0,0.0,0.0,0.0,0.0,0.0,0.0,0.0,0.0,0.0,0.0,0.0,0.0,0.0,0.0,0.0,0.0,0.0,1.3782,1.387,1.4085,1.4299,1.4453,1.4453,0.0,0.0,0.0,0.0,0.0,1.7062,1.7034,1.7034,1.7062,1.8244,1.8632,1.8307,1.9093,1.9582,1.9773,0.0,0.0,0.0,0.0,0.0,0.0,0.0,0.0,0.0,0.0,0.0,0.0,0.0,0.0,0.0,0.0,0.0,0.0,0.0,0.0,0.0,0.0,0.0,0.0,0.0,0.0,0.0,0.0,0.0,0.0,0.0,0.0,0.0,0.0,0.0,0.0,0.0,0.0,0.0,0.0,0.0,0.0,0.0,0.0,0.0,0.0,0.0,0.0,0.0,0.0,0.0,0.0,0.0,0.0,0.0,0.0,0.0,0.0,0.0,0.0,0.0,0.0,0.0,0.0,0.0,0.0,0.0,0.0,0.0,0.0,0.0,1.1873,0.0,0.0,0.0,0.0,0.0,0.0,0.0,0.0,0.0,0.0,0.0,0.0,0.0,0.0,0.0,0.0,0.0,0.0,0.0,0.0,0.0,1.3753,1.4172,1.4221,1.425,1.4319,1.4687,1.4893,1.4893,1.5215,0.0,0.0,0.0,1.6379,1.6492,1.6978,1.7054,1.6723,1.8254,1.9401,2.0171,1.9475,1.951,2.0097,1.9167,0.0,0.0,0.0,0.0,0.0,0.0,0.0,0.0,0.0,0.0,0.0,0.0,0.0,0.0,0.0,0.0,0.0,0.0,0.0,0.0,0.0,0.0,0.0,0.0,0.0,0.0,0.0,0.0,0.0,0.0,0.0,0.0,0.0,0.0,0.0,0.0,0.0,0.0,0.0,0.0,0.0,0.0,0.0,0.0,0.0,0.0,0.0,0.0,0.0,0.0,0.0,0.0,0.0,0.0,0.0,0.0,0.0,0.0,0.0,0.0,0.0,0.0,0.0,1.2565,1.2612,1.2612,1.2612,1.2478,1.2308,1.2643,1.2931,1.3053,1.2124,0.0,0.0,0.0,0.0,0.0,0.0,0.0,0.0,0.0,0.0,0.0,0.0,0.0,0.0,0.0,0.0,0.0,0.0,0.0,1.4192,1.4648,1.4697,1.4844,1.5205,1.5293,1.5322,1.5322,1.5381,1.5439,1.5555,1.5555,1.5835,1.6492,1.5979,1.6324,1.7613,1.8829,1.9695,2.0203,1.9683,2.0168,2.1376,1.9776,1.9521,2.0241,0.0,0.0,0.0,0.0,0.0,0.0,0.0,0.0,0.0,0.0,0.0,0.0,0.0,0.0,0.0,0.0,0.0,0.0,0.0,0.0,0.0,0.0,0.0,0.0,0.0,0.0,0.0,0.0,0.0,0.0,0.0,0.0,0.0,0.0,0.0,0.0,0.0,0.0,0.0,0.0,0.0,1.6207,1.6287,0.0,0.0,0.0,0.0,0.0,0.0,0.0,0.0,0.0,0.0,0.0,0.0,0.0,1.2164,1.2131,1.2766,1.3093,1.31,1.3607,1.3848,1.3848,1.3848,1.3834,1.3754,1.3092,0.0,1.2857,1.2926,0.0,0.0,0.0,0.0,0.0,0.0,0.0,0.0,0.0,0.0,0.0,0.0,0.0,0.0,0.0,0.0,0.0,0.0,0.0,0.0,0.0,1.5576,1.5957,1.6102,1.6592,1.6638,1.6151,1.6122,1.58,1.5088,1.5059,1.5201,1.553,1.5622,1.6629,1.853,1.9104,1.9752,2.0411,2.0215,2.0734,2.1844,2.1069,2.1163,2.1874,2.1193,0.0,0.0,0.0,0.0,0.0,0.0,0.0,0.0,0.0,0.0,0.0,0.0,0.0,0.0,0.0,0.0,0.0,0.0,0.0,0.0,0.0,0.0,0.0,0.0,0.0,0.0,0.0,0.0,0.0,0.0,0.0,0.0,0.0,0.0,0.0,0.0,0.0,0.0,0.0,1.6621,1.6992,1.6469,1.5825,1.4708,0.0,0.0,0.0,0.0,0.0,0.0,0.0,0.0,0.0,1.2058,1.2552,1.2726,1.2589,1.332,1.3707,1.3707,1.3961,1.4088,1.4088,1.4088,1.4088,1.4068,1.3715,1.3541,1.3514,1.3139,1.3053,1.316,0.0,0.0,0.0,0.0,1.1316,1.1496,0.0,0.0,0.0,0.0,0.0,0.0,0.0,0.0,0.0,0.0,0.0,0.0,1.5683,1.6502,1.7028,1.7028,1.7646,1.7646,1.6755,1.659,1.6025,1.4834,1.4678,1.4779,1.5071,1.6169,1.7531,1.9148,1.9711,2.0195,2.0605,2.0857,2.1336,2.1989,2.1989,2.234,2.2866,2.2917,2.2211,2.1008,0.0,0.0,0.0,0.0,0.0,0.0,0.0,0.0,0.0,0.0,0.0,0.0,0.0,0.0,0.0,0.0,0.0,0.0,0.0,0.0,0.0,0.0,0.0,0.0,0.0,0.0,0.0,0.0,0.0,0.0,0.0,0.0,0.0,0.0,0.0,0.0,0.0,1.735,1.7575,1.6802,1.6327,1.5291,0.0,0.0,0.0,0.0,0.0,0.0,1.2525,1.2532,1.2505,1.2476,1.3086,1.332,1.3132,1.3795,1.4088,1.4088,1.4088,1.4088,1.4088,1.4088,1.4088,1.4088,1.4088,1.4088,1.4035,1.3407,1.3266,1.342,1.3267,1.2933,1.2505,1.2278,1.2338,1.2492,0.0,0.0,0.0,0.0,0.0,0.0,0.0,0.0,0.0,0.0,0.0,1.6609,1.6629,1.7399,1.7949,1.7949,1.7988,1.7646,1.6755,1.6328,1.5733,1.4852,1.4358,1.466,1.5825,1.7864,1.9039,1.9291,2.1015,2.1438,2.0605,2.1517,2.1952,2.1989,2.1989,2.2077,2.2253,2.2446,2.2301,2.1825,2.0419,0.0,0.0,0.0,0.0,0.0,0.0,0.0,0.0,0.0,0.0,0.0,0.0,0.0,0.0,0.0,0.0,0.0,0.0,0.0,0.0,0.0,0.0,0.0,0.0,0.0,0.0,0.0,0.0,0.0,0.0,0.0,0.0,0.0,0.0,0.0,0.0,0.0,0.0,1.7623,1.7402,0.0,0.0,0.0,0.0,1.2372,1.2974,1.3369,1.3172,1.316,1.3414,1.3961,1.4015,1.4035,1.4015,1.4068,1.4088,1.4088,1.4088,1.4088,1.4088,1.4088,1.4088,1.4088,1.4088,1.4088,1.4082,1.4041,1.4028,1.3988,1.3427,1.3193,1.306,1.2241,1.2432,1.312,0.0,0.0,0.0,0.0,0.0,1.4413,1.4512,1.4297,1.4358,1.5098,1.6063,1.6697,1.6697,1.7988,1.8838,1.8838,1.9336,1.9287,1.8437,1.7461,1.6555,1.5674,1.4658,1.47,1.6005,1.8138,1.9251,1.9287,2.0506,2.0934,2.0605,2.0934,2.1116,2.1116,2.1735,2.2035,2.2146,2.3525,2.3437,2.2325,2.2441,2.1543,0.0,0.0,0.0,0.0,0.0,0.0,0.0,0.0,0.0,0.0,0.0,0.0,0.0,0.0,0.0,0.0,0.0,0.0,0.0,0.0,0.0,0.0,0.0,0.0,0.0,0.0,0.0,0.0,0.0,0.0,0.0,0.0,0.0,0.0,0.0,0.0,0.0,1.7677,1.7763,0.0,1.5956,1.5733,1.518,1.4008,1.4528,1.4561,1.3802,1.3774,1.3874,1.4082,1.4088,1.4088,1.4088,1.4088,1.4088,1.4088,1.4088,1.4088,1.4088,1.4088,1.4088,1.4088,1.4088,1.4088,1.4088,1.4088,1.4088,1.4068,1.3854,1.3774,1.3734,1.3414,1.35,1.3761,0.0,0.0,0.0,0.0,0.0,1.4799,1.5105,1.473,1.4869,1.6038,1.6737,1.7243,1.7568,1.8867,1.9754,1.9754,2.0282,2.0116,1.8936,1.793,1.6887,1.5713,1.5088,1.5459,1.6894,1.8477,1.9424,1.9754,2.0321,2.0605,2.0605,2.0605,2.0605,2.0644,2.1593,2.1989,2.214,2.4156,2.4143,2.2874,2.3341,2.2026,1.9863,0.0,0.0,0.0,0.0,0.0,0.0,0.0,0.0,0.0,0.0,0.0,0.0,0.0,0.0,0.0,0.0,0.0,0.0,0.0,0.0,0.0,0.0,0.0,0.0,0.0,0.0,0.0,0.0,0.0,0.0,0.0,0.0,0.0,0.0,0.0,1.8087,1.8211,1.832,1.7973,1.6793,1.6716,1.6249,1.5164,1.5815,1.591,1.5228,1.4859,1.4657,1.4657,1.4292,1.4135,1.4229,1.4229,1.4282,1.4382,1.4382,1.4382,1.4382,1.4382,1.4275,1.4095,1.4195,1.4122,1.3948,1.4048,1.4088,1.4088,1.4088,1.4088,1.4088,1.4088,1.4088,1.4088,0.0,0.0,0.0,0.0,0.0,1.4835,1.5139,1.5138,1.5727,1.752,1.7891,1.832,1.916,2.0077,2.0605,2.0605,2.0605,1.9891,1.8164,1.7637,1.6611,1.493,1.5694,1.6924,1.8588,1.9092,1.9736,2.0605,2.0605,2.0605,2.0605,2.0605,2.0605,2.0644,2.1593,2.1989,2.214,2.4108,2.4373,2.3464,2.2849,2.1603,2.0081,0.0,0.0,0.0,0.0,0.0,0.0,0.0,0.0,0.0,0.0,0.0,0.0,0.0,0.0,0.0,0.0,0.0,0.0,0.0,0.0,0.0,0.0,0.0,0.0,0.0,0.0,0.0,0.0,0.0,0.0,0.0,0.0,0.0,1.6114,1.7983,1.9277,1.9326,1.9162,1.8638,1.7496,1.7415,1.6968,1.5861,1.6723,1.7302,1.7269,1.6232,1.5647,1.5655,1.4657,1.4222,1.4502,1.4522,1.4676,1.5008,1.5008,1.5008,1.5008,1.5008,1.47,1.4128,1.4409,1.4166,1.3666,1.3995,1.4115,1.4115,1.4095,1.4088,1.4088,1.4088,1.4088,1.4082,0.0,0.0,0.0,1.488,1.505,1.5314,1.5216,1.5138,1.5524,1.6712,1.751,1.8096,1.834,1.9678,2.0605,2.0605,2.0605,2.0136,1.9014,1.7959,1.6917,1.5791,1.6846,1.7988,1.9082,1.9834,2.037,2.0605,2.0605,2.0605,2.0605,2.0605,2.0605,2.0644,2.1593,2.1989,2.2065,2.3368,2.3745,2.359,2.4876,2.394,2.1886,0.0,0.0,0.0,0.0,0.0,0.0,0.0,0.0,0.0,0.0,0.0,0.0,0.0,0.0,0.0,0.0,0.0,0.0,0.0,0.0,0.0,0.0,0.0,0.0,0.0,0.0,0.0,0.0,0.0,0.0,0.0,0.0,1.7759,1.7876,1.8403,1.916,2.0136,2.0178,2.004,1.9717,1.9678,1.9265,1.8181,1.7617,1.704,1.6454,1.5002,1.4303,1.4524,1.425,1.4128,1.4208,1.4629,1.4928,1.5008,1.5008,1.5008,1.5008,1.5008,1.4921,1.4774,1.4847,1.475,1.4609,1.4689,1.4767,1.472,1.4255,1.4088,1.4088,1.4088,1.4088,1.4028,0.0,0.0,0.0,1.5197,1.5365,1.5613,1.5632,1.5541,1.585,1.6919,1.759,1.8144,1.8506,1.9756,2.0605,2.0605,2.0605,2.0087,1.8838,1.7725,1.7197,1.7435,1.8135,1.8945,1.9842,2.0351,2.0605,2.0605,2.0605,2.0605,2.0605,2.0605,2.0605,2.0644,2.1593,2.2215,2.2702,2.3708,2.4361,2.4874,2.6013,2.4642,2.2055,2.371,2.2684,2.0517,2.1494,2.1832,2.1638,2.033,0.0,0.0,0.0,0.0,0.0,0.0,0.0,0.0,0.0,0.0,0.0,0.0,0.0,0.0,0.0,0.0,0.0,0.0,0.0,0.0,0.0,0.0,0.0,0.0,1.7272,1.8792,1.9365,1.9443,1.9727,2.0517,2.0605,2.0401,1.9962,2.0323,2.0234,1.9312,1.9039,1.8842,1.8541,1.6663,1.5592,1.5519,1.4822,1.4396,1.4269,1.485,1.5204,1.5331,1.5331,1.5331,1.5331,1.5331,1.5197,0.0,1.5142,1.5003,1.4783,1.4955,1.5008,0.0,0.0,0.0,0.0,0.0,1.4088,1.4041,0.0,0.0,0.0,1.561,1.5654,1.5808,1.6156,1.6101,1.6421,1.7642,1.7911,1.834,1.9189,2.0096,2.0605,2.0605,2.0517,1.9774,1.8115,1.7174,1.7467,1.9209,1.9287,1.9725,2.0586,2.0605,2.0605,2.0605,2.0605,2.0605,2.0605,2.0605,2.0605,2.0644,2.1593,2.2553,2.3562,2.4564,2.5581,2.6499,2.6499,2.4388,2.152,2.3911,2.3239,2.1171,2.2212,2.2596,2.2395,2.1008,0.0,0.0,0.0,0.0,0.0,0.0,0.0,0.0,0.0,0.0,0.0,0.0,0.0,0.0,0.0,0.0,0.0,0.0,0.0,0.0,0.0,0.0,0.0,0.0,1.7983,1.9258,2.0439,2.0605,2.0605,2.0605,2.0605,2.0225,1.9347,2.0116,2.0446,1.9907,2.0623,2.1281,2.1758,0.0,0.0,0.0,0.0,1.5178,1.4781,1.5377,1.5711,1.5784,1.5784,1.5784,1.5784,1.5784,1.5545,1.5122,1.5337,1.515,1.4689,1.4957,1.5109,1.5102,1.5035,1.4803,1.4529,1.4208,1.4128,1.4175,0.0,0.0,1.6173,1.5676,1.6008,1.6306,1.6205,1.6101,1.6421,1.7642,1.7911,1.834,1.9189,2.0096,2.0605,2.0605,1.9969,1.9102,1.8076,1.7174,1.7467,1.9209,1.9287,1.9725,2.0586,2.0605,2.0605,2.0605,2.0605,2.0605,2.0605,2.0605,2.0605,2.0644,2.1593,2.2553,2.3562,2.4564,2.5581,2.6499,2.6499,2.5095,2.3172,2.4449,2.3638,2.201,2.3839,2.4462,2.442,2.4,2.371,2.3393,2.2621,2.13,0.0,0.0,0.0,0.0,0.0,0.0,0.0,0.0,0.0,0.0,0.0,0.0,0.0,0.0,0.0,0.0,0.0,0.0,0.0,1.8188,1.9355,2.0312,2.0566,2.0605,2.0605,2.0605,2.0605,2.0664,2.0745,2.0944,2.1209,2.1421,2.0791,2.053,2.0891,1.9236,1.8263,1.8371,1.8083,1.7431,1.6374,1.6939,1.6746,1.5784,0.0,0.0,1.5784,1.5784,1.5718,1.5665,1.5718,1.5678,1.5531,1.5638,1.5665,1.5618,1.515,1.4975,1.4861,1.4282,1.4432,1.4774,0.0,1.65,1.6402,1.6095,1.6051,1.6098,1.6216,1.5856,1.5839,1.6652,1.7088,1.7695,1.8555,1.9033,1.9375,1.958,1.8828,1.8428,1.8633,1.8252,1.8584,1.9901,1.9959,2.0165,2.0595,2.0605,2.0605,2.0605,2.0605,2.0605,2.0605,2.0605,2.0605,2.0605,2.1078,2.2113,2.3514,2.4036,2.5099,2.6499,2.6499,2.5616,2.4301,2.4826,2.4072,2.2888,2.3891,2.4264,2.4148,2.3593,2.3548,2.3556,2.2353,2.1503,2.0577,0.0,0.0,0.0,0.0,0.0,0.0,0.0,0.0,0.0,0.0,0.0,0.0,0.0,0.0,1.6697,1.6697,0.0,1.7857,1.85,1.9143,1.9824,2.0507,2.0762,2.082,2.0635,2.0762,2.0986,2.1171,2.1385,2.1738,2.2168,2.1663,2.1527,2.1889,2.0548,1.9419,1.863,1.8455,1.7629,1.6093,1.6834,1.6891,1.6266,1.6266,1.6266,1.6266,1.6266,1.6266,1.6259,1.6119,1.6052,1.6039,1.5892,1.5784,1.5751,1.5504,1.5311,1.5169,1.4689,1.4754,1.4968,0.0,0.0,1.6466,1.6358,1.603,1.5823,1.5916,1.5474,1.5269,1.5608,1.6188,1.6934,1.7793,1.7959,1.8076,1.8217,1.7725,1.7852,1.8965,1.9199,1.9705,2.0566,2.0605,2.0605,2.0605,2.0605,2.0605,2.0605,2.0605,2.0605,2.0605,2.0605,2.0605,2.0605,2.0605,2.168,2.3514,2.3514,2.466,2.6499,2.6499,2.6025,2.5264,2.5087,2.4384,2.3514,2.3708,2.3672,2.3441,2.3025,2.3283,2.3514,2.1935,2.1859,2.1692,1.8576,1.8614,0.0,0.0,0.0,0.0,0.0,0.0,0.0,0.0,0.0,1.7369,1.7126,1.7272,1.7447,1.7447,1.7447,1.7779,1.8812,1.8978,1.9375,2.0458,2.0947,2.1064,2.0781,2.1084,2.1356,2.1434,2.1797,2.2178,2.2607,2.2637,2.2783,2.3081,2.2248,2.113,1.967,1.9192,1.81,1.6432,1.6828,1.695,1.6707,1.6707,1.6707,1.6707,1.6707,1.6707,1.6693,1.6749,1.6786,1.6766,1.6752,1.6707,1.6604,1.6374,1.6101,1.5768,1.5308,1.5182,1.5182,0.0,0.0,0.0,1.5798,1.6095,1.6001,1.4806,1.4985,1.5318,1.5433,1.586,1.6506,1.7363,1.7793,1.7725,1.698,1.7217,1.7598,1.8115,1.8867,1.9705,2.0566,2.0605,2.0605,2.0605,2.0605,2.0605,2.0605,2.0605,2.0605,2.0605,2.0605,2.0605,2.0605,2.0605,2.168,2.3514,2.3514,2.466,2.6499,2.6499,2.6418,2.6233,2.5335,2.4384,2.3635,2.4528,2.4264,2.377,2.5417,2.5476,2.4791,2.4564,2.3963,2.3045,2.1498,2.0586,1.9544,1.727,1.5338,1.4122,1.4842,1.5869,1.6697,0.0,0.0,1.9852,1.8627,1.9336,2.0175,2.0175,2.0175,2.0224,2.0361,2.039,2.0439,2.0586,2.0947,2.1181,2.1132,2.1543,2.1953,2.2334,2.2412,2.2617,2.2994,2.3023,2.3042,2.3091,2.3363,2.3438,2.3198,2.238,2.1298,2.0014,1.8882,1.7775,1.6707,1.6707,1.6707,1.6707,1.6707,1.6707,1.675,1.7937,1.8449,1.854,1.975,2.0019,1.9499,1.8436,1.7774,1.7306,1.6162,1.5732,1.5732,0.0,0.0,0.0,1.5242,1.5287,1.5244,1.4662,1.438,1.4404,1.4775,1.4879,1.5371,1.6525,1.6799,1.6631,1.5985,1.6367,1.7012,1.7949,1.8809,1.9705,2.0566,2.0605,2.0605,2.0605,2.0605,2.0605,2.0605,2.0605,2.0605,2.0605,2.0605,2.0605,2.0605,2.0605,2.1336,2.2627,2.2627,2.3441,2.4767,2.4767,2.4767,2.4767,2.4933,2.4743,2.4255,2.3489,2.2693,0.0,2.3409,2.3305,2.2834,2.3833,2.2932,2.1431,2.0891,1.967,1.8317,1.7417,1.6825,0.0,0.0,1.7998,1.8965,1.8965,1.9832,2.0449,1.9873,2.0233,2.0605,2.0605,1.9951,1.9687,0.0,1.9932,1.9795,2.081,2.1338,2.1699,2.1953,2.1924,2.1855,2.1736,2.2399,2.2701,2.2432,2.2818,2.3208,2.3506,2.3691,2.358,2.3112,2.2882,2.1776,1.9818,1.9371,1.852,1.7215,1.7215,1.7215,1.7266,1.8016,1.8708,1.9365,1.9901,2.0085,1.995,2.057,2.067,2.0442,1.9965,1.9646,1.9281,1.7544,1.6433,1.5927,0.0,0.0,0.0,1.513,1.4949,1.4835,1.4491,1.4086,1.3874,1.3978,1.3965,1.4365,1.5439,1.5557,1.5449,1.5254,1.5772,1.6652,1.793,1.8809,1.9705,2.0566,2.0605,2.0605,2.0605,2.0605,2.0605,2.0605,2.0605,2.0605,2.0605,2.0605,2.0605,2.0605,2.0605,2.1116,2.1989,2.1989,2.2739,2.3891,2.3599,2.3806,2.4361,2.4826,2.4883,2.4542,2.3012,2.2012,2.145,2.1712,2.1625,2.1575,2.2434,2.1686,2.0471,2.0235,1.8865,1.747,1.76,0.0,0.0,1.8451,1.9336,2.0165,2.0527,2.0605,2.0605,2.0605,2.0605,2.0605,2.0605,1.9805,1.9473,2.0449,1.9883,1.9757,2.1015,2.1709,2.208,2.2158,2.2002,2.1572,2.0771,2.1973,2.2637,2.2266,2.29,2.3457,2.3769,2.4014,2.39,2.3288,2.3253,2.231,2.048,2.0268,1.9672,1.8708,1.8708,1.8708,1.8753,1.9723,2.0601,2.1346,2.1751,2.1795,2.1653,2.1991,2.2075,2.1931,2.1643,2.1391,2.1133,1.9625,1.8168,1.7091,0.0,0.0,0.0,0.0,1.5565,1.5186,1.4003,1.4294,1.4246,1.3109,1.3287,1.3665,1.4114,1.4163,1.4328,1.4766,1.5606,1.6652,1.793,1.8809,1.9705,2.0566,2.0605,2.0605,2.0605,2.0605,2.0605,2.0605,2.0605,2.0605,2.0605,2.0605,2.0605,2.0605,2.0605,2.1116,2.1989,2.1989,2.3147,2.4862,2.3891,2.466,2.6314,2.537,2.4599,2.4036,2.3967,2.3306,2.2349,2.1732,2.1927,2.2249,2.1045,2.1082,2.1401,2.054,1.8969,1.7613,1.8041,0.0,1.6016,1.8081,1.8627,1.8987,2.0312,2.0605,2.0605,2.0605,2.0605,2.0605,2.0605,2.0576,2.0556,2.0595,2.0898,2.1132,2.119,2.1921,2.2187,2.1327,2.1641,2.1221,0.0,2.0908,2.2246,2.3003,2.3516,2.3779,2.3789,2.458,2.5029,2.5039,2.4161,2.3615,2.3565,2.2257,2.16,2.16,2.16,2.16,2.16,2.16,2.1643,2.1786,2.3059,2.3615,2.3705,2.5031,2.5343,2.485,2.3675,2.2949,2.2557,2.2483,2.1409,1.9912,0.0,0.0,0.0,0.0,0.0,1.5788,1.4583,1.4236,1.3802,1.3017,1.3242,0.0,0.0,0.0,0.0,0.0,1.5077,1.5771,1.7048,1.7959,1.8828,1.9678,2.0302,2.0605,2.0605,2.0605,2.0605,2.0605,2.0605,2.0605,2.0605,2.0605,2.0605,2.0605,2.0605,2.0789,2.1078,2.1078,2.1451,2.2124,2.2403,2.2914,2.3545,2.3793,2.3511,2.2849,0.0,2.0759,2.0207,2.0332,2.002,1.9714,2.0394,1.9437,1.7776,1.624,1.6335,1.688,1.6457,0.0,1.7691,1.8422,1.9277,2.0067,2.0507,2.0605,2.0605,2.0605,2.0155,1.9754,1.9754,1.9248,1.9053,1.9619,1.96,1.9972,2.1465,2.1162,2.1171,2.2321,2.1621,0.0,0.0,0.0,0.0,2.1834,2.3066,2.4043,2.4609,2.4959,2.5205,2.5508,2.5198,2.4609,2.3692,2.3226,2.2567,2.1702,2.1702,2.2156,2.3026,2.3026,2.3534,2.4402,2.4815,2.502,2.5069,2.5528,2.5596,2.5469,2.5063,2.4783,2.4612,2.4374,2.3881,2.3223,0.0,0.0,0.0,0.0,0.0,0.0,0.0,0.0,0.0,0.0,0.0,0.0,0.0,0.0,0.0,0.0,0.0,1.5273,1.6416,1.7126,1.793,1.8799,1.9355,1.9648,1.9648,1.9989,2.0145,2.0145,2.0458,2.0605,2.0605,2.0605,2.0605,2.0605,2.0605,2.0605,2.0605,2.0605,2.1011,2.1611,2.1495,2.194,2.2689,2.2511,2.1944,0.0,1.9926,1.8907,1.8155,1.8494,1.8536,1.8469,1.8736,1.7348,1.5484,1.4827,1.5391,1.6268,1.6482,1.7545,1.8715,1.9173,1.9951,2.0605,2.0605,2.0605,2.0605,2.0605,2.0165,1.9637,1.9141,1.8603,1.8418,1.8965,1.9072,1.9746,2.1621,2.1416,2.1434,2.2516,2.1709,2.1348,0.0,0.0,0.0,2.1668,2.2852,2.3867,2.4617,2.4756,2.5117,2.5674,2.5693,2.5284,2.4402,2.4402,2.3989,2.3126,2.3126,2.3583,2.4402,2.4402,2.4703,2.5235,2.5547,2.5508,2.5245,2.5557,2.5693,2.5693,2.5693,2.5693,2.5654,2.541,2.5303,2.5081,0.0,0.0,0.0,0.0,0.0,0.0,0.0,0.0,0.0,0.0,0.0,0.0,0.0,0.0,0.0,0.0,0.0,0.0,1.5968,1.6436,1.7038,1.791,1.7988,1.8008,1.8008,1.8809,1.9219,1.9219,2.0077,2.0468,2.0468,2.0468,2.0468,2.0468,2.0468,2.0468,2.0507,2.0507,2.16,2.31,2.119,2.1767,2.3586,2.159,2.0088,1.8995,1.8945,1.7879,1.65,1.65,1.7558,1.8499,1.6393,1.5166,1.479,1.6186,1.6102,1.5976,1.7964,1.8598,1.8997,2.0302,2.0605,2.0605,2.0605,2.0605,2.0586,2.0517,2.0468,2.0048,0.0,0.0,1.8403,1.852,1.9212,2.0254,2.1602,2.249,2.2682,0.0,0.0,0.0,0.0,0.0,0.0,2.2549,0.0,2.3428,2.3867,2.4268,2.4873,2.5664,2.5693,2.5693,2.5693,2.5693,2.5693,2.5693,2.5693,2.5693,2.5693,2.5693,2.5235,2.4531,2.5323,2.5216,2.4551,2.5343,2.5693,2.5693,2.5693,2.5693,2.5693,2.5693,2.5693,2.5567,0.0,0.0,0.0,0.0,0.0,0.0,0.0,0.0,0.0,0.0,0.0,0.0,0.0,0.0,0.0,0.0,0.0,0.0,1.5077,1.585,1.6484,1.6999,1.7633,1.8008,1.8008,1.8223,1.834,1.834,1.8555,1.8662,1.8662,1.8662,1.8662,1.8662,1.8662,1.8959,1.9485,1.9485,1.987,2.0456,2.0692,2.0884,2.0948,2.0321,1.9629,1.8895,1.8091,1.725,1.65,1.65,1.6811,1.7255,1.7456,1.6879,1.5989,1.5459,1.6484,1.7691,1.7291,1.8613,2.0184,2.0517,2.0605,2.0605,2.0605,2.0605,2.0331,1.9326,1.8633,1.7793,0.0,0.0,0.0,1.7441,1.7891,0.0,2.0195,2.0879,0.0,2.1387,0.0,2.2041,2.2441,2.3076,0.0,0.0,2.3975,2.4766,2.5167,2.5294,2.545,2.5684,2.5693,2.5693,2.5693,2.5693,2.5693,2.5693,2.5693,2.5693,2.5693,2.5693,2.5567,2.5362,2.5586,2.5557,2.5372,2.5596,2.5693,2.5693,2.5693,2.5693,2.5693,2.5693,2.5693,2.5654,0.0,0.0,0.0,0.0,0.0,0.0,0.0,0.0,0.0,0.0,0.0,0.0,0.0,0.0,0.0,0.0,0.0,0.0,0.0,1.5058,1.5615,1.5869,1.6514,1.6875,1.6875,1.7213,1.7418,1.7418,1.7822,1.8008,1.8008,1.8008,1.8008,1.8008,1.8008,1.8236,1.8654,1.8967,1.9275,0.0,0.0,1.9911,1.9507,1.8946,1.8405,1.7817,1.7225,1.6798,1.6726,1.8204,0.0,1.7209,1.8435,1.8016,1.7125,1.7295,0.0,1.8568,1.8457,1.9463,2.0605,2.0605,2.0605,2.0458,1.9844,1.9717,1.9355,1.8032,1.7422,0.0,1.5381,0.0,0.0,0.0,0.0,0.0,1.9678,2.0459,2.0947,0.0,2.1621,0.0,2.333,2.3818,2.4043,0.0,2.4307,2.4697,2.5089,2.5109,2.5284,2.5674,2.5693,2.5693,2.5693,2.5693,2.5693,2.5693,2.5693,2.5693,2.5693,2.5693,2.5479,2.5128,0.0,2.5469,2.5138,2.5528,2.5693,2.5693,2.5693,2.5693,2.5693,2.5693,2.5693,2.5693,0.0,0.0,0.0,0.0,0.0,0.0,0.0,0.0,0.0,0.0,1.2866,0.0,0.0,0.0,0.0,0.0,0.0,0.0,0.0,0.0,1.4668,1.4775,1.5127,1.5352,1.541,1.6132,1.6521,1.6521,1.7272,1.7666,1.7666,1.7666,1.7666,1.7666,1.7666,1.7699,1.7856,1.8573,1.9081,1.9358,1.9151,1.8897,1.8569,0.0,1.6961,1.65,1.65,1.65,1.6979,2.0218,1.9667,1.7959,1.9757,1.9245,1.8314,2.0021,1.974,1.9065,2.0049,2.0478,2.0605,2.0605,2.0605,2.0312,1.9114,1.8724,1.8237,1.696,0.0,1.6093,1.499,1.4813,1.5234,1.657,0.0,1.7881,1.9287,2.0411,2.1064,2.0947,2.1514,2.2393,2.3672,2.4062,2.4473,2.5077,2.4434,2.4209,2.457,2.459,2.4894,2.5664,2.5693,2.5693,2.5693,2.5693,2.5693,2.5693,2.5693,2.5693,2.5693,2.5693,2.5274,2.4582,2.5352,0.0,2.4648,2.5372,2.5693,2.5693,2.5693,2.5693,2.5693,2.5693,2.5693,2.5693,0.0,0.0,0.0,0.0,0.0,0.0,0.0,0.0,0.0,0.0,1.2656,1.2905,0.0,0.0,0.0,0.0,0.0,0.0,0.0,0.0,0.0,1.4784,1.4882,1.5059,1.5371,1.5566,1.5644,1.5644,1.5791,1.5859,1.5859,1.5859,1.5859,1.5859,1.5859,1.6188,1.6798,1.755,1.7747,1.7608,1.8154,1.7812,1.6901,1.6735,0.0,0.0,1.65,1.65,1.6891,1.9417,1.9431,1.9077,2.2879,2.2208,2.0091,2.0159,2.0212,2.0049,1.9199,1.9756,2.0605,2.0605,2.0605,2.0546,2.0321,1.9404,0.0,0.0,1.5869,1.5049,1.4852,1.4813,1.5332,1.7002,1.7334,0.0,0.0,0.0,2.042,0.0,0.0,0.0,0.0,0.0,0.0,0.0,0.0,2.5382,2.545,2.546,2.5528,2.5684,2.5693,2.5693,2.5693,2.5693,2.5693,2.5693,2.5693,2.5693,2.5693,2.5693,2.5606,2.5469,2.5615,0.0,2.5469,2.5625,2.5693,2.5693,2.5693,2.5693,2.5693,2.5693,2.5693,2.5693,0.0,0.0,0.0,0.0,0.0,0.0,0.0,1.4149,1.3458,1.2069,1.2083,1.2308,1.252,1.2744,1.2905,0.0,0.0,0.0,0.0,0.0,0.0,0.0,1.4668,1.498,1.54,1.541,0.0,0.0,0.0,1.541,1.541,1.541,1.541,1.541,1.5806,1.6179,1.6567,1.7715,1.7923,1.7562,1.8029,1.7714,1.6936,0.0,0.0,0.0,0.0,1.65,1.681,1.8801,1.8826,1.8648,2.2303,2.2113,2.0418,1.9565,1.9946,2.0321,1.8948,1.958,2.0605,2.0605,2.0605,2.0253,1.8877,0.0,0.0,0.0,1.4228,1.3815,1.3815,1.3815,0.0,1.6689,1.7051,0.0,0.0,0.0,0.0,0.0,0.0,0.0,0.0,0.0,0.0,0.0,0.0,2.5206,2.5664,2.5693,2.5693,2.5693,2.5693,2.5693,2.5693,2.5693,2.5693,2.5693,2.5693,2.5693,2.5693,2.5693,2.5693,2.5693,2.5693,0.0,2.504,2.5499,2.5421,2.505,2.5508,2.5693,2.5693,2.5693,2.5693,2.5693,0.0,0.0,0.0,0.0,0.0,0.0,0.0,1.4014,1.3466,1.1679,1.1547,1.1712,1.2051,1.248,1.2783,0.0,0.0,0.0,0.0,0.0,0.0,0.0,0.0,0.0,0.0,0.0,0.0,0.0,0.0,0.0,0.0,0.0,0.0,0.0,0.0,1.6652,1.6595,1.807,1.832,0.0,0.0,1.7802,0.0,0.0,0.0,0.0,0.0,1.65,1.6751,1.8431,1.8333,1.7974,2.0716,2.0938,2.0022,1.9324,1.971,2.0179,1.9284,1.9795,2.0605,2.0605,2.0605,2.0008,1.7633,1.6902,0.0,1.3769,1.3101,1.2983,1.3267,1.3316,1.4072,0.0,1.6609,1.7165,0.0,0.0,0.0,0.0,0.0,0.0,0.0,0.0,0.0,0.0,0.0,0.0,2.5654,2.5693,2.5693,2.5693,2.5693,2.5693,2.5693,2.5693,2.5693,2.5693,2.5693,2.5693,2.5693,2.5693,2.5693,2.5693,2.5693,0.0,0.0,2.5323,2.5167,2.4502,2.5343,2.5693,2.5693,2.5693,2.5693,2.5693,0.0,0.0,0.0,0.0,0.0,0.0,0.0,1.3707,1.3346,1.1241,1.133,1.1616,1.1655,1.2021,1.2451,0.0,0.0,0.0,0.0,0.0,0.0,0.0,0.0,0.0,0.0,0.0,0.0,0.0,0.0,0.0,0.0,0.0,0.0,0.0,0.0,0.0,0.0,1.807,0.0,0.0,0.0,0.0,0.0,0.0,0.0,0.0,0.0,0.0,1.6751,1.8431,0.0,1.7818,1.9616,1.9534,1.9058,2.0391,0.0,0.0,2.0287,2.0517,2.0605,2.0605,2.0605,2.0233,1.8754,0.0,1.6297,1.4902,1.3717,1.3257,1.4394,1.4637,1.5205,1.7031,1.6318,1.6258,0.0,0.0,0.0,0.0,0.0,0.0,0.0,0.0,0.0,0.0,0.0,0.0,2.5684,2.5693,2.5693,2.5693,2.5693,2.5693,2.5693,2.5693,2.5693,2.5693,2.5693,2.5693,2.5693,2.5693,2.5693,2.5693,2.5693,0.0,0.0,2.5323,2.5167,2.4502,2.5343,2.5693,2.5693,2.5693,2.5693,2.5693,0.0,0.0,0.0,0.0,0.0,0.0,1.4352,1.4165,1.3473,1.1715,1.1314,1.1172,1.1172,1.1562,1.2132,1.2846,0.0,0.0,0.0,0.0,0.0,0.0,0.0,0.0,0.0,0.0,0.0,1.541,0.0,0.0,0.0,0.0,0.0,0.0,0.0,0.0,0.0,0.0,0.0,0.0,0.0,0.0,0.0,0.0,0.0,0.0,0.0,0.0,0.0,0.0,0.0,0.0,1.769,1.7651,0.0,0.0,1.8359,1.8899,1.8399,1.9385,2.0605,2.0605,2.0605,2.0067,1.7925,0.0,1.6112,1.4072,1.3257,1.3062,1.357,1.3668,1.4138,1.5615,1.5381,0.0,1.8958,0.0,0.0,0.0,0.0,0.0,0.0,0.0,0.0,0.0,0.0,0.0,2.5664,2.5693,2.5693,2.5693,2.5693,2.5693,2.5693,2.5693,2.5693,2.5693,2.5693,2.5693,2.5693,2.5693,2.5693,2.5693,2.5693,0.0,0.0,2.5109,2.4922,2.3799,2.5195,2.5693,2.5693,2.5693,2.5693,2.5693,0.0,0.0,0.0,0.0,0.0,1.5124,1.4782,1.437,1.3614,1.2263,1.152,1.1103,1.1103,1.1516,1.2034,1.2637,1.2827,0.0,0.0,0.0,0.0,0.0,0.0,0.0,0.0,0.0,1.499,1.541,1.6368,0.0,0.0,0.0,0.0,0.0,0.0,0.0,0.0,0.0,0.0,0.0,0.0,0.0,0.0,0.0,0.0,0.0,0.0,0.0,0.0,0.0,0.0,1.65,1.65,1.638,1.6213,1.6029,1.7224,1.8412,1.7497,1.8896,2.0605,2.0605,2.0312,1.9424,0.0,0.0,1.5537,1.3365,1.2905,1.2905,1.2905,1.2905,1.3326,1.458,1.4893,1.6035,1.9102,1.9648,0.0,0.0,0.0,0.0,0.0,0.0,0.0,0.0,0.0,0.0,0.0,2.5693,2.5693,2.5693,2.5693,2.5693,2.5693,2.5693,2.5693,2.5693,2.5693,2.5547,2.5313,2.5567,2.5547,2.5313,2.5577,0.0,0.0,2.5079,2.4863,2.3682,2.5156,2.5693,2.5693,2.5693,2.5693,2.5693,0.0,0.0,0.0,0.0,0.0,0.0,1.4343,1.4101,1.3716,1.2627,1.1976,1.1596,1.1596,1.1953,1.2203,1.2213,1.2627,0.0,0.0,0.0,0.0,0.0,0.0,0.0,0.0,0.0,1.499,1.541,1.6884,1.7578,1.7633,1.9097,0.0,0.0,0.0,0.0,0.0,0.0,0.0,0.0,0.0,0.0,0.0,0.0,0.0,0.0,0.0,0.0,0.0,0.0,0.0,0.0,0.0,1.6095,1.5726,1.6394,1.7536,1.8592,1.8571,1.957,2.0605,2.0605,1.96,1.8286,0.0,0.0,1.4434,1.3169,1.2905,1.2905,1.2905,1.2905,1.3326,1.458,1.5127,1.6132,1.8305,0.0,0.0,0.0,0.0,0.0,0.0,0.0,0.0,0.0,0.0,0.0,0.0,2.5693,2.5693,2.5693,2.5693,2.5693,2.5693,2.5693,2.5693,2.5693,2.5693,2.5235,2.4463,2.5284,2.5216,0.0,0.0,0.0,0.0,2.5323,2.5157,2.4492,2.5343,2.5693,2.5693,2.5693,2.5693,2.5693,0.0,0.0,0.0,0.0,0.0,0.0,0.0,1.5384,1.49,1.428,1.3282,1.2531,1.2243,1.2201,1.2378,1.2781,1.2868,0.0,0.0,0.0,0.0,0.0,0.0,0.0,0.0,1.4241,1.4909,1.6151,1.7107,1.7841,1.8367,1.9345,1.9669,1.9449,0.0,0.0,0.0,0.0,0.0,0.0,0.0,0.0,0.0,0.0,0.0,0.0,0.0,0.0,0.0,0.0,0.0,0.0,0.0,0.0,0.0,1.5974,1.6255,1.6612,1.6613,1.7262,1.7949,1.7949,1.7603,1.696,1.5693,1.5078,1.4451,1.3169,1.2905,1.2905,1.2905,1.2905,1.3326,1.458,1.4902,1.6045,0.0,0.0,0.0,0.0,0.0,0.0,0.0,0.0,0.0,0.0,0.0,0.0,0.0,2.5693,2.5693,2.5693,2.5693,2.5693,2.5693,2.5693,2.5693,2.5693,2.5693,2.5226,2.4443,2.5284,0.0,0.0,0.0,0.0,0.0,2.5323,2.5167,2.4502,2.5343,2.5693,2.5693,2.5693,2.5693,2.5693,0.0,0.0,0.0,0.0,0.0,0.0,0.0,1.5986,1.5525,1.5267,1.4338,1.354,1.3141,1.3131,1.324,1.3453,1.355,0.0,0.0,0.0,0.0,0.0,0.0,0.0,1.386,1.4026,1.4817,1.6276,1.6945,1.7767,1.8703,1.9252,1.961,1.9798,1.9798,1.9798,0.0,0.0,0.0,0.0,0.0,0.0,1.65,0.0,0.0,0.0,0.0,0.0,0.0,0.0,0.0,0.0,0.0,0.0,0.0,0.0,1.5811,1.5665,1.5683,1.6537,1.7367,1.7108,1.6686,1.6098,1.5327,1.4594,1.3864,1.3071,1.3287,1.3482,1.2993,1.3297,1.3727,1.404,1.4883,0.0,0.0,0.0,0.0,0.0,0.0,0.0,0.0,0.0,0.0,0.0,0.0,0.0,0.0,2.5693,2.5693,2.5693,2.5693,2.5693,2.5693,2.5693,2.5693,2.5693,2.5693,2.5226,2.4443,2.5284,0.0,0.0,0.0,0.0,0.0,2.546,2.5362,2.4923,2.5469,2.5693,2.5693,2.5693,2.5693,2.5693,0.0,0.0,0.0,0.0,0.0,0.0,0.0,1.603,1.5654,1.5654,1.5141,1.462,1.4257,1.4508,1.4564,1.4235,1.4552,0.0,0.0,0.0,0.0,0.0,0.0,0.0,1.3688,1.4057,1.4847,1.6094,1.6614,1.75,1.8735,1.8869,1.9221,1.9748,1.9748,1.9761,1.9761,1.9183,1.8657,1.8154,1.7564,1.6999,0.0,0.0,0.0,0.0,0.0,0.0,0.0,0.0,0.0,0.0,0.0,0.0,0.0,0.0,0.0,0.0,0.0,1.6967,1.811,1.7549,1.6483,1.5548,1.5548,1.4236,0.0,1.3023,1.3991,1.4461,1.3297,1.4109,1.4539,1.3287,0.0,0.0,0.0,0.0,0.0,0.0,0.0,0.0,0.0,0.0,0.0,0.0,0.0,0.0,0.0,2.5693,2.5693,2.5693,2.5693,2.5693,2.5693,2.5693,2.5654,2.5596,2.5664,2.5196,2.4355,2.5255,0.0,0.0,0.0,0.0,0.0,2.5693,2.5693,2.5693,2.5693,2.5693,2.5693,2.5693,2.5693,2.5693,0.0,0.0,0.0,0.0,0.0,0.0,0.0,0.0,0.0,0.0,1.5754,1.534,1.5267,1.4925,1.4858,0.0,0.0,0.0,0.0,0.0,0.0,0.0,0.0,0.0,1.5535,1.5665,1.6462,1.8035,1.7757,1.809,1.8907,1.8546,1.8657,1.9183,1.9183,1.9409,1.9748,1.8794,1.8329,1.8116,1.7124,1.6635,0.0,0.0,0.0,0.0,1.65,1.65,0.0,0.0,0.0,0.0,0.0,0.0,0.0,0.0,1.6402,1.6181,1.5741,0.0,1.4996,1.532,1.4824,1.4237,0.0,1.3924,1.373,1.4264,1.458,1.4785,0.0,1.5615,1.5957,0.0,0.0,0.0,0.0,0.0,0.0,0.0,0.0,0.0,0.0,0.0,0.0,0.0,0.0,0.0,0.0,2.5693,2.5693,2.5693,2.5693,2.5693,2.5693,2.5693,2.5352,2.4736,2.5362,2.4884,2.3452,2.4982,0.0,0.0,0.0,0.0,2.5693,2.5693,2.5693,2.5693,2.5693,2.5693,2.5693,2.5693,2.5693,2.5693,0.0,0.0,0.0,0.0,0.0,0.0,0.0,0.0,0.0,0.0,1.6216,1.5996,1.5996,1.5722,1.5656,0.0,0.0,0.0,0.0,0.0,0.0,0.0,0.0,1.5348,1.5879,1.609,1.6931,1.8422,1.8073,1.8405,1.9346,1.8807,1.8845,1.9359,1.9359,1.9535,1.9736,1.8656,1.8204,1.8103,1.6951,0.0,0.0,0.0,0.0,0.0,1.65,1.65,0.0,1.65,1.65,1.65,0.0,0.0,0.0,0.0,1.65,1.6423,1.6095,1.5533,1.5131,1.549,1.4882,1.4292,1.4612,1.4006,1.366,1.4594,1.4813,1.4882,0.0,0.0,0.0,0.0,0.0,0.0,0.0,0.0,0.0,0.0,0.0,0.0,0.0,0.0,0.0,0.0,0.0,0.0,0.0,2.5693,2.5693,2.5693,2.5693,2.5693,2.5693,2.5693,2.5245,2.4424,2.5265,2.4982,2.3725,2.507,2.5421,0.0,0.0,0.0,2.5664,2.5255,2.5323,2.5693,2.5693,2.5693,2.5693,2.5693,2.5693,2.5693,0.0,0.0,0.0,0.0,0.0,0.0,0.0,0.0,0.0,0.0,0.0,0.0,0.0,0.0,0.0,0.0,0.0,0.0,0.0,0.0,0.0,0.0,1.5754,1.5783,1.5899,1.6285,1.7117,1.8366,1.8084,1.8494,1.9547,1.902,1.9083,1.9685,1.9761,1.9798,1.9736,1.8656,1.8204,1.8103,1.6951,0.0,0.0,0.0,0.0,0.0,0.0,0.0,0.0,1.65,1.65,1.65,1.65,0.0,0.0,0.0,0.0,0.0,1.65,1.65,1.6544,1.6692,1.5785,1.4996,1.5568,1.4399,1.3541,1.4831,1.5078,1.5098,0.0,1.5449,0.0,0.0,0.0,0.0,0.0,0.0,0.0,0.0,0.0,0.0,0.0,0.0,0.0,0.0,0.0,0.0,0.0,2.5693,2.5693,2.5693,2.5693,2.5693,2.5693,2.5693,2.5245,2.4424,2.5265,2.5226,2.4443,2.5284,2.5693,2.5645,0.0,0.0,2.5635,2.4884,2.5011,2.5693,2.5693,2.5693,2.5693,2.5693,2.5693,2.5693,0.0,0.0,0.0,0.0,0.0,0.0,0.0,0.0,0.0,0.0,0.0,0.0,0.0,0.0,0.0,0.0,0.0,0.0,0.0,0.0,0.0,1.638,1.6358,1.6821,1.7758,1.7857,1.8425,1.9545,1.861,1.8235,1.8442,1.789,1.8179,1.9146,1.961,1.9798,1.9736,1.8656,1.8204,1.8103,1.6951,0.0,0.0,0.0,0.0,0.0,0.0,0.0,0.0,1.65,1.65,1.65,1.65,0.0,0.0,0.0,0.0,0.0,1.65,1.65,1.6633,1.7223,1.6393,1.551,1.5664,1.5028,1.48,1.6138,1.6404,1.6512,0.0,1.8492,1.8873,0.0,0.0,0.0,0.0,0.0,0.0,0.0,0.0,0.0,0.0,0.0,0.0,0.0,0.0,0.0,0.0,2.5693,2.5693,2.5693,2.5693,2.5693,2.5693,2.5693,2.5245,2.4424,2.5265,2.5226,2.4443,2.5284,2.5693,2.5684,0.0,2.5567,2.5674,2.5538,2.5567,2.5693,2.5693,2.5693,2.5693,2.5693,2.5693,2.5693,0.0,0.0,0.0,0.0,0.0,0.0,0.0,0.0,0.0,0.0,0.0,0.0,0.0,0.0,0.0,0.0,0.0,0.0,0.0,0.0,1.666,1.6974,1.6986,1.7375,1.8191,1.8204,1.8593,1.9359,1.8593,1.8204,1.8204,1.8254,1.8694,1.9434,1.9698,1.9648,1.9334,1.8543,1.8028,1.7689,0.0,0.0,0.0,0.0,0.0,0.0,0.0,0.0,0.0,0.0,1.65,1.65,1.65,0.0,0.0,0.0,0.0,0.0,1.65,1.65,1.6878,1.8463,1.7223,1.6032,1.7688,1.6063,1.4877,1.7241,1.6258,0.0,0.0,0.0,1.7715,0.0,0.0,0.0,0.0,0.0,0.0,0.0,0.0,0.0,0.0,0.0,0.0,0.0,0.0,0.0,0.0,0.0,2.6014,2.6706,2.6062,2.5693,2.5693,2.5693,2.5245,2.4424,2.5265,2.5226,2.4443,2.5284,2.5693,2.5664,0.0,2.5245,2.5703,2.5943,2.6306,2.6802,2.7437,2.7305,2.6658,2.5965,2.5693,2.5693,0.0,0.0,0.0,0.0,0.0,0.0,0.0,0.0,0.0,0.0,0.0,0.0,0.0,0.0,0.0,0.0,0.0,0.0,0.0,1.65,1.6773,1.7373,1.7524,1.7765,1.8191,1.8204,1.8405,1.8807,1.8279,1.8078,1.8216,1.8744,1.9221,1.9623,1.9623,1.9309,1.877,1.8242,1.7765,1.736,0.0,0.0,0.0,0.0,0.0,0.0,0.0,0.0,0.0,0.0,0.0,0.0,0.0,0.0,0.0,1.65,1.65,1.65,1.65,1.65,1.7032,1.9237,1.767,1.6379,1.9415,1.6901,1.4831,1.7953,1.6356,0.0,0.0,1.6995,0.0,0.0,0.0,0.0,0.0,0.0,0.0,0.0,0.0,0.0,0.0,0.0,0.0,0.0,0.0,0.0,0.0,0.0,2.703,2.8002,2.6802,2.6159,2.6159,2.583,2.5352,2.4736,2.5362,2.5515,2.5146,2.5516,2.5878,2.6071,2.5104,2.506,2.5732,2.6048,2.6707,2.7673,2.8634,2.8402,2.7494,2.6476,2.5965,2.5693,0.0,0.0,0.0,0.0,0.0,0.0,0.0,0.0,0.0,0.0,0.0,0.0,0.0,0.0,0.0,0.0,0.0,0.0,0.0,1.65,1.6773,1.7373,1.7877,1.8166,1.8204,1.8204,1.8229,1.8267,1.7714,1.7702,1.8216,1.8744,1.902,1.9058,1.9058,1.8757,1.8229,1.7677,1.7436,1.736,1.6748,0.0,0.0,0.0,0.0,0.0,0.0,0.0,0.0,0.0,0.0,0.0,0.0,0.0,1.65,1.65,1.65,1.65,1.65,1.65,1.6904,1.8646,1.7324,1.6379,1.9415,1.7114,1.5166,1.8012,1.7822,0.0,0.0,0.0,0.0,0.0,0.0,0.0,0.0,0.0,0.0,0.0,0.0,0.0,0.0,0.0,0.0,0.0,0.0,0.0,0.0,0.0,0.0,2.9269,2.8085,2.7447,2.7447,2.6294,2.5654,2.5596,2.5664,2.6312,2.7353,2.6215,2.6342,2.74,2.6127,2.5635,2.5684,2.5712,2.6464,2.7589,2.7683,2.7683,2.7589,2.7494,2.6716,2.5693,0.0,0.0,0.0,0.0,0.0,0.0,0.0,0.0,0.0,0.0,0.0,1.65,1.65,0.0,0.0,0.0,0.0,0.0,0.0,1.6861,1.73,1.7865,1.8417,1.8694,1.8694,1.838,1.8041,1.7689,1.7511,1.784,1.8694,1.8907,1.9008,1.9008,1.9008,1.8694,1.8166,1.7637,1.741,1.736,1.6748,1.65,0.0,0.0,0.0,0.0,0.0,0.0,0.0,0.0,1.65,1.65,1.65,1.65,1.65,1.65,1.65,1.65,1.65,1.65,1.714,1.9886,1.8044,1.6476,1.9875,1.8132,1.6546,1.9278,1.812,0.0,0.0,0.0,0.0,0.0,0.0,0.0,0.0,0.0,0.0,0.0,0.0,0.0,0.0,0.0,0.0,0.0,0.0,0.0,0.0,0.0,0.0,3.0496,2.9361,2.8366,2.7589,2.7125,2.6476,2.5684,2.6476,2.7125,2.7589,2.7898,2.8262,2.868,2.8215,2.7981,2.8075,2.8808,2.9396,2.9863,2.9863,2.9863,2.9772,2.8993,2.8402,2.7981,0.0,0.0,0.0,0.0,0.0,0.0,0.0,0.0,1.65,0.0,0.0,0.0,0.0,1.65,0.0,0.0,0.0,0.0,1.6773,1.7162,1.7702,1.8406,1.8807,1.9008,1.9008,1.8632,1.8191,1.7639,1.7815,1.8292,1.9008,1.9171,1.9158,1.9008,1.9008,1.8607,1.7915,1.7561,1.7297,1.7074,1.6672,1.65,0.0,0.0,0.0,0.0,0.0,0.0,0.0,0.0,1.65,1.65,1.65,1.65,1.65,1.65,1.65,1.65,1.65,1.65,1.7165,2.0012,1.8289,1.6872,2.0634,1.9123,1.7734,2.0458,1.949,1.8348,1.8831,0.0,0.0,0.0,0.0,0.0,0.0,0.0,0.0,0.0,0.0,0.0,0.0,0.0,0.0,0.0,0.0,0.0,0.0,0.0,0.0,0.0,3.0586,2.959,2.8727,2.8366,2.772,2.6887,2.8132,2.8541,2.8179,2.9039,2.959,2.9943,2.959,2.9407,2.9453,3.0271,3.0855,3.1223,3.1633,3.1545,3.1078,3.0271,2.9727,2.9407,0.0,0.0,0.0,0.0,0.0,0.0,0.0,0.0,1.65,1.65,1.65,0.0,0.0,0.0,0.0,0.0,0.0,0.0,1.7373,1.7423,1.789,1.8958,1.9008,1.9008,1.9008,1.9008,1.8732,1.8216,1.8732,1.9008,1.902,1.956,1.9522,1.9008,1.9008,1.843,1.741,1.7423,1.7061,1.65,1.65,1.65,1.65,0.0,0.0,0.0,0.0,0.0,0.0,0.0,1.65,1.65,1.65,1.65,1.65,1.6513,1.6513,1.65,1.6513,1.65,1.6901,1.8581,1.7754,1.7571,2.1575,2.0062,1.8582,2.1342,2.231,2.2573,2.2262,0.0,0.0,0.0,0.0,0.0,0.0,0.0,0.0,0.0,0.0,0.0,0.0,0.0,0.0,0.0,0.0,0.0,0.0,0.0,0.0,0.0,3.1877,3.1223,3.1223,3.0,2.9407,2.9407,3.0631,3.0586,2.9407,2.9453,3.009,3.1134,2.9943,2.9453,2.9453,2.9453,3.0135,3.1356,3.2612,3.2339,3.1223,3.1223,3.0451,2.9453,0.0,0.0,0.0,0.0,0.0,0.0,0.0,0.0,1.65,1.65,1.65,0.0,0.0,0.0,0.0,0.0,0.0,0.0,1.7928,1.8329,1.8657,1.8995,1.9359,1.9572,1.9572,1.9196,1.892,1.8757,1.8531,1.8807,1.9572,1.9334,1.9146,1.9045,1.9836,1.9359,1.799,1.838,1.799,1.7087,1.6663,1.65,1.65,0.0,0.0,0.0,0.0,0.0,0.0,0.0,0.0,0.0,1.65,1.65,1.6726,1.7917,1.7428,1.6751,1.7942,1.7403,1.6901,1.8581,0.0,1.8771,2.0773,2.026,1.9691,2.0886,2.1666,2.1951,2.1392,0.0,0.0,0.0,0.0,0.0,0.0,0.0,0.0,0.0,0.0,0.0,0.0,0.0,0.0,0.0,0.0,0.0,0.0,0.0,0.0,0.0,3.2742,3.2096,3.1223,3.0855,3.0226,2.9407,3.0631,3.0989,3.0721,3.1601,3.2196,3.2513,3.2152,3.2021,3.2021,3.2021,3.2196,3.2568,3.2939,3.2884,3.2525,3.2525,3.2295,3.2021,0.0,0.0,0.0,0.0,0.0,0.0,1.65,1.65,1.65,1.65,1.65,1.65,0.0,0.0,0.0,1.7373,1.7576,0.0,1.8469,1.882,1.9096,1.9309,1.9635,1.9798,1.9798,1.9271,1.9008,1.9008,1.8456,1.8643,1.9484,1.9146,1.9108,1.9334,2.0024,1.9535,1.8229,1.8531,1.8053,1.7011,1.666,1.65,1.65,0.0,0.0,0.0,0.0,0.0,0.0,0.0,0.0,0.0,1.65,1.6951,1.7553,1.7904,1.7766,1.7716,1.8732,1.8268,1.8055,2.0387,1.9986,1.9346,2.0717,0.0,0.0,0.0,2.3304,2.3688,2.3554,0.0,0.0,0.0,0.0,0.0,0.0,0.0,0.0,0.0,0.0,0.0,0.0,0.0,0.0,0.0,0.0,0.0,0.0,0.0,0.0,0.0,3.2516,3.204,3.1308,3.1265,3.0908,3.02,3.0908,3.1265,3.1332,3.2543,3.3124,3.3124,3.3124,3.3124,3.3124,3.3124,3.3124,3.3124,3.3124,3.3124,3.3124,3.3124,3.3124,3.3124,0.0,0.0,1.65,1.65,0.0,0.0,1.65,1.65,1.65,1.65,1.6538,1.6575,0.0,0.0,0.0,1.7549,1.799,1.8505,1.9045,1.907,1.9284,1.9786,1.9798,1.9798,1.9798,1.9221,1.8933,1.8933,1.8405,1.8405,1.8933,1.8933,1.9208,1.9736,1.9836,1.9258,1.8204,1.8254,1.7601,1.65,1.65,1.65,1.6522,1.6552,0.0,0.0,0.0,0.0,0.0,0.0,0.0,0.0,1.6522,1.7541,1.8506,1.7127,1.7804,1.9033,1.9196,1.9121,1.9722,2.2786,2.1305,0.0,2.1506,2.2636,2.3747,2.5445,0.0,2.6637,0.0,0.0,0.0,0.0,0.0,0.0,0.0,0.0,0.0,0.0,0.0,0.0,0.0,0.0,0.0,0.0,0.0,0.0,0.0,0.0,0.0,3.2139,3.165,3.1386,3.1386,3.1386,3.1386,3.1386,3.1386,3.1386,3.1424,3.2453,3.2973,3.2973,3.3023,3.3006,3.3006,3.3099,3.3124,3.3124,3.3124,3.3124,3.3124,3.3124,3.3124,3.3124,0.0,0.0,1.65,1.65,0.0,0.0,1.65,1.65,1.65,1.65,1.6911,1.7222,1.7222,1.7689,0.0,1.8607,1.8757,1.9058,1.9597,1.9635,1.9685,1.9798,1.9798,1.9798,1.9798,1.8869,1.8356,1.8356,1.7827,1.784,1.8356,1.8356,1.8657,1.9208,2.01,1.9661,1.8229,1.8644,1.7929,1.65,1.65,1.65,1.6552,1.6972,1.7126,0.0,0.0,0.0,0.0,0.0,0.0,0.0,1.6637,1.6751,1.7227,1.818,1.8719,1.9284,2.0602,2.0012,0.0,1.9898,1.9835,2.0639,2.4551,2.4908,2.4677,2.5601,2.5811,0.0,0.0,0.0,0.0,0.0,0.0,0.0,0.0,0.0,0.0,0.0,0.0,0.0,0.0,0.0,0.0,0.0,0.0,0.0,0.0,0.0,0.0,3.1574,3.1449,3.1386,3.1386,3.1386,3.1386,0.0,3.1386,3.1386,3.1399,3.1637,3.175,3.1775,3.2215,3.2403,3.2441,3.288,3.3124,3.3124,3.3124,3.3124,3.3124,3.3124,3.3124,3.3124,0.0,0.0,0.0,0.0,0.0,0.0,0.0,0.0,1.7024,1.7265,1.7589,1.7777,1.7777,1.8267,0.0,0.0,1.9221,1.951,1.9786,2.0105,2.0283,2.0283,1.9484,1.9158,1.9396,1.8367,1.7815,1.7815,1.725,1.725,1.7815,1.8078,1.8355,1.8644,1.951,1.9108,1.7827,1.8116,1.7576,1.65,1.65,1.65,1.6543,1.6816,1.6909,1.6909,1.6909,0.0,0.0,0.0,0.0,0.0,0.0,0.0,1.7704,1.7779,1.8368,1.9196,2.0075,2.0263,0.0,2.1204,0.0,2.3419,2.4965,2.5448,2.5777,2.6391,0.0,0.0,0.0,0.0,0.0,0.0,0.0,0.0,0.0,0.0,0.0,0.0,0.0,0.0,0.0,0.0,0.0,0.0,0.0,0.0,0.0,3.116,3.1022,3.1022,3.0771,3.062,3.062,3.062,3.062,3.062,3.062,3.062,3.0645,3.116,3.1386,3.1411,3.17,3.1813,3.1838,3.2152,3.2428,3.2667,3.2667,3.283,3.3124,3.3124,3.3124,3.3124,0.0,0.0,0.0,0.0,0.0,0.0,0.0,0.0,0.0,1.8316,1.8445,1.8496,1.8496,1.8881,1.9183,0.0,0.0,0.0,1.9813,2.0238,2.0481,2.0481,1.9125,1.85,1.8845,1.7983,1.7488,1.741,1.681,1.6911,1.7677,1.8229,1.848,1.8505,1.8933,1.8493,1.7398,1.7297,1.7014,1.6637,1.6637,1.6637,1.6659,1.6837,1.6858,1.6795,1.6879,1.6972,1.7013,1.6837,0.0,0.0,0.0,0.0,1.8541,1.7064,1.7839,1.9119,1.902,2.0225,2.1895,2.3577,2.484,0.0,2.4607,2.5292,2.6285,0.0,0.0,0.0,0.0,0.0,0.0,0.0,0.0,0.0,0.0,0.0,0.0,0.0,0.0,0.0,0.0,0.0,0.0,0.0,0.0,0.0,3.111,3.0708,3.047,3.047,3.003,2.9792,2.9792,2.9792,2.9792,2.9792,2.9792,2.9792,2.9829,3.0708,3.111,3.1122,3.121,3.1248,3.126,3.1348,3.1662,3.2077,3.2077,3.2365,3.2822,3.2822,3.2822,3.2822,0.0,0.0,0.0,0.0,0.0,0.0,0.0,0.0,0.0,0.0,1.9433,1.9761,1.9761,1.9709,1.9927,2.0517,2.0632,2.0412,1.9832,0.0,0.0,1.9249,1.9035,1.8696,1.8317,1.8177,1.7863,1.741,1.681,1.7277,1.8795,1.9346,1.9597,1.9597,1.966,1.8832,1.7373,1.6848,1.685,1.7188,1.7188,1.7188,1.7291,1.8243,1.8302,1.7947,1.8419,1.8874,1.9132,1.8204,1.8204,0.0,0.0,0.0,1.8079,1.7399,1.8388,1.9592,1.9143,0.0,2.1895,0.0,2.3062,2.2879,0.0,0.0,2.4757,0.0,0.0,0.0,0.0,0.0,0.0,0.0,0.0,0.0,0.0,0.0,0.0,0.0,0.0,0.0,0.0,0.0,0.0,0.0,0.0,0.0,3.0005,2.9942,2.9905,2.9905,2.9829,2.9792,2.9792,2.9792,2.9792,2.9792,2.9792,2.9792,2.9792,2.9942,3.0005,3.003,3.052,3.0721,3.0758,3.1198,3.1436,3.1499,3.1499,3.1549,3.1612,3.1612,3.1612,3.1612,0.0,0.0,0.0,0.0,0.0,0.0,0.0,0.0,0.0,0.0,0.0,2.0948,2.0948,2.089,2.0964,2.1269,2.1009,2.0656,2.0335,1.9459,1.9247,1.9923,1.9026,1.8387,1.8203,1.8161,1.7883,1.7338,1.708,1.8287,2.0849,2.129,2.072,1.9396,2.0665,1.961,1.6958,1.7932,1.7775,1.6879,1.7167,1.7312,1.7353,1.7827,1.8046,1.8145,1.838,1.8593,1.8727,1.8263,1.8263,1.8419,1.8185,0.0,0.0,0.0,1.7824,1.8692,2.0041,2.0263,2.0953,0.0,2.3444,2.2388,2.5732,0.0,0.0,0.0,0.0,0.0,0.0,0.0,0.0,0.0,0.0,0.0,0.0,0.0,0.0,0.0,0.0,0.0,0.0,0.0,0.0,0.0,0.0,2.9792,2.9792,2.9792,2.9792,2.9792,2.9792,2.9792,2.9792,2.9792,2.9792,2.9792,2.9792,2.9792,2.9792,2.9792,2.9792,2.9804,3.0043,3.0156,3.0168,3.0407,3.0683,3.0959,3.0959,3.1135,3.1386,3.1386,3.1386,3.1386,0.0,0.0,0.0,0.0,0.0,0.0,0.0,0.0,0.0,0.0,0.0,2.1946,2.1946,0.0,0.0,0.0,2.1133,2.0739,2.0694,1.9567,1.9304,2.02,1.901,1.8267,1.8185,1.826,1.7967,1.7312,1.7442,1.8936,2.1681,2.2366,2.1786,2.023,2.1892,2.0939,1.8183,1.9324,1.9048,1.7899,1.8057,1.798,1.7727,1.7867,1.8066,1.8322,1.8458,1.8516,1.8516,1.8516,1.8516,1.8516,0.0,0.0,0.0,0.0,0.0,1.8057,0.0,0.0,2.0219,2.4392,2.3119,2.1631,0.0,0.0,0.0,0.0,0.0,0.0,0.0,0.0,0.0,0.0,0.0,0.0,0.0,0.0,0.0,0.0,0.0,0.0,0.0,0.0,0.0,0.0,0.0,2.9792,2.9792,2.9792,2.9792,2.9792,2.9792,2.9792,2.9792,2.9792,2.9792,2.9792,2.9792,2.9792,2.9792,2.9792,2.9792,2.9792,2.9792,2.9792,2.9792,2.9792,3.003,3.0407,3.0407,3.0645,3.0984,3.0984,3.0984,3.0984,0.0,0.0,0.0,0.0,0.0,0.0,0.0,0.0,0.0,0.0,0.0,2.2649,2.2649,2.1563,2.1077,2.1648,2.109,2.07,2.0701,1.9574,1.8931,1.8979,1.8903,0.0,1.8108,1.8607,1.8361,1.7312,1.7807,1.87,1.9978,2.1577,2.2698,2.3362,2.3485,2.3144,2.2351,2.0573,2.0502,2.1535,2.0747,1.9795,1.8874,1.9387,1.9281,1.893,1.9424,1.9621,1.9621,1.9621,0.0,0.0,0.0,1.9621,1.9512,0.0,0.0,0.0,0.0,2.0217,0.0,2.2059,2.0809,0.0,0.0,0.0,0.0,0.0,0.0,0.0,0.0,0.0,0.0,0.0,0.0,0.0,0.0,0.0,0.0,0.0,0.0,0.0,0.0,0.0,0.0,0.0,0.0,2.9792,2.9792,2.9792,2.9792,2.9792,2.9792,2.9792,2.9792,2.9792,2.9792,2.9792,2.9792,2.9792,2.9792,2.9792,2.9792,2.9792,2.9792,2.9792,2.9792,2.9792,2.9817,2.9829,2.9829,2.9854,2.988,2.988,2.988,2.988,0.0,0.0,0.0,0.0,0.0,0.0,0.0,0.0,0.0,0.0,0.0,0.0,0.0,2.252,2.2096,2.2323,2.135,2.0507,2.0094,1.9664,1.9406,1.9406,1.9406,1.9169,1.8631,1.9151,1.9062,1.8341,1.8516,1.9374,2.0831,2.1657,2.2491,2.336,2.5343,2.454,2.1835,2.3782,2.2628,1.9689,2.226,2.1534,1.906,2.0556,0.0,0.0,0.0,0.0,0.0,0.0,0.0,0.0,1.9708,1.9708,1.9584,1.9062,1.8516,1.8466,0.0,0.0,0.0,2.2133,2.0349,1.8639,0.0,0.0,0.0,0.0,0.0,0.0,0.0,0.0,0.0,0.0,0.0,0.0,0.0,0.0,0.0,0.0,0.0,0.0,0.0,0.0,0.0,0.0,0.0,0.0,2.9754,2.9101,2.9038,2.9767,2.9792,2.9792,2.9792,2.9792,2.9792,2.9792,2.9792,2.9792,2.9792,2.9792,2.9792,2.9792,2.9792,2.9792,2.9792,2.9792,2.9792,2.9792,2.9792,2.9792,2.9792,2.9792,2.9792,2.9792,0.0,0.0,0.0,0.0,0.0,2.3009,2.3009,2.3009,2.3009,2.3009,0.0,0.0,0.0,0.0,2.1939,2.1714,2.0872,2.0183,1.9738,1.9708,1.9708,1.9708,1.9708,1.953,1.9188,1.953,1.9442,1.8893,1.908,1.9653,2.0578,2.137,2.2173,2.307,2.5472,2.5299,2.337,2.6138,2.5113,2.1785,2.3817,2.3229,2.1225,0.0,0.0,0.0,0.0,0.0,0.0,0.0,0.0,0.0,2.0636,2.0247,1.9621,1.9262,1.893,1.8882,1.9999,0.0,0.0,0.0,0.0,1.8097,0.0,0.0,0.0,0.0,0.0,0.0,0.0,0.0,0.0,0.0,0.0,0.0,0.0,0.0,0.0,0.0,0.0,0.0,0.0,0.0,0.0,0.0,0.0,0.0,2.9754,2.9076,2.9013,2.9767,2.9792,2.9792,2.9792,2.9792,2.9792,2.9792,2.9792,2.9792,2.9792,2.9792,2.9792,2.9792,2.9792,2.9792,2.9792,2.9792,2.9792,2.9792,2.9792,2.9792,2.9792,2.9792,2.9792,2.9792,0.0,0.0,2.358,2.3595,2.3595,2.3595,2.3595,2.3595,2.3595,2.3595,0.0,0.0,0.0,0.0,0.0,1.9798,1.9738,1.9723,1.9708,1.9708,1.9708,1.9708,1.9708,1.9708,1.9708,1.9708,1.9442,1.893,1.9442,1.9424,1.8955,2.0584,2.1794,2.2646,2.3753,2.5337,2.7176,2.7291,2.7725,2.8096,0.0,2.4869,2.5241,0.0,0.0,0.0,2.4896,2.4388,0.0,2.4956,0.0,0.0,0.0,2.1265,1.9708,1.9708,1.9708,1.9708,0.0,0.0,0.0,0.0,0.0,0.0,1.7463,0.0,0.0,0.0,0.0,0.0,0.0,0.0,0.0,0.0,0.0,0.0,0.0,0.0,0.0,0.0,0.0,0.0,0.0,0.0,0.0,0.0,0.0,2.9716,2.9741,2.9754,2.9779,2.9792,2.9792,2.9792,2.9792,2.9792,2.9792,2.9792,2.9792,2.9792,2.9792,2.9792,2.9792,2.9792,2.9792,2.9792,2.9792,2.9792,2.9792,2.9792,2.9792,2.9792,2.9792,2.9792,2.9792,2.9792,0.0,2.2957,2.3092,2.352,2.3595,2.3595,2.3595,2.3595,2.3595,0.0,0.0,0.0,2.2987,2.2039,2.1156,2.0483,2.0423,2.0228,1.9738,1.9708,1.9708,1.9708,1.9708,1.9708,1.9708,1.9708,1.9621,1.9479,1.9621,1.9621,1.9493,1.9948,2.0309,2.0602,2.2369,2.3452,2.4169,2.7033,2.5886,2.2587,2.7528,2.6218,0.0,0.0,0.0,0.0,0.0,2.5255,2.4881,0.0,2.4178,2.2209,0.0,0.0,1.9708,1.9708,1.9708,0.0,1.9708,0.0,0.0,0.0,0.0,0.0,1.8496,1.9806,0.0,0.0,0.0,0.0,0.0,0.0,0.0,0.0,0.0,0.0,0.0,0.0,0.0,0.0,0.0,0.0,0.0,0.0,0.0,0.0,2.7869,2.7769,2.8524,2.895,2.9365,2.9779,2.9792,2.9792,2.9792,2.9792,2.9792,2.9792,2.9792,2.9792,2.9792,2.9792,2.9792,2.9792,2.9792,2.9792,2.9792,2.9792,2.9792,2.9792,2.9792,2.9792,2.9792,2.9792,2.9792,2.9792,2.2209,2.2283,2.2493,2.3122,2.3206,2.3295,2.3565,2.3385,2.3206,0.0,0.0,0.0,2.1904,2.2029,2.1724,2.0778,2.0703,2.0423,1.9753,1.9708,1.9708,1.9708,1.9708,1.9708,1.9708,1.9708,1.9708,1.9708,1.9708,1.9708,1.9708,1.9708,1.9708,1.9753,2.0936,2.1445,2.1655,2.4792,0.0,0.0,2.7504,0.0,0.0,2.759,2.7171,0.0,0.0,0.0,2.6991,2.7774,2.6213,0.0,0.0,0.0,0.0,0.0,0.0,0.0,0.0,0.0,0.0,0.0,0.0,0.0,1.8949,2.0578,2.2011,0.0,0.0,0.0,0.0,0.0,0.0,0.0,0.0,0.0,0.0,0.0,0.0,0.0,0.0,0.0,0.0,0.0,0.0,2.8084,2.7507,2.7431,2.8072,2.8411,2.885,2.9415,2.9428,2.9553,2.9792,2.9792,2.9792,2.9792,2.9792,2.9792,2.9792,2.9792,2.9792,2.9792,2.9792,2.9792,2.9792,2.9792,2.9792,2.9792,2.9792,2.9792,2.9792,2.9792,2.9792,2.9792,0.0,2.159,2.1814,2.2568,2.2703,2.2897,2.3505,2.3131,2.2808,0.0,2.1695,2.0942,2.1002,2.1949,2.2119,2.0932,2.0733,2.0423,1.9753,1.9708,1.9708,1.9708,1.9708,1.9708,1.9708,1.9708,1.9708,1.9708,1.9708,1.9708,1.9708,1.9708,1.9708,1.9708,1.9708,1.9708,1.9828,2.161,0.0,2.7829,2.6482,2.7893,0.0,0.0,2.8652,2.8562,3.0718,3.024,2.8861,3.0599,2.8835,0.0,0.0,0.0,0.0,0.0,2.11,0.0,0.0,0.0,0.0,0.0,0.0,0.0,1.9114,2.147,2.3715,0.0,0.0,0.0,0.0,0.0,0.0,0.0,0.0,0.0,0.0,0.0,0.0,0.0,0.0,0.0,0.0,2.7228,2.7394,2.7883,2.7921,2.7946,2.8009,2.8009,2.8273,2.8787,2.88,2.9114,2.9691,2.9691,2.9729,2.9792,2.9792,2.9792,2.9792,2.9792,2.9792,2.9792,2.9792,2.9792,2.9792,2.9792,2.9792,2.9792,2.9792,2.9792,2.9792,2.9792,2.9792,2.9792,2.0797,2.0897,2.1276,2.2493,2.2703,2.2897,2.3505,2.349,2.3415,2.3415,2.2757,2.2493,2.2981,2.2353,2.1784,0.0,2.1002,2.0423,1.9753,1.9708,1.9708,1.9708,1.9708,1.9708,1.9708,1.9708,1.9708,1.9708,1.9708,1.9708,1.9708,1.9708,1.9708,1.9708,1.9708,1.9708,1.9738,2.0127,0.0,2.4096,2.6886,0.0,2.7066,2.9866,2.8954,2.6662,3.0225,3.024,2.8667,2.9041,2.8652,2.744,0.0,0.0,0.0,0.0,0.0,0.0,0.0,0.0,0.0,0.0,0.0,0.0,1.9566,2.009,2.0826,0.0,0.0,0.0,0.0,0.0,0.0,0.0,0.0,0.0,0.0,0.0,0.0,0.0,0.0,0.0,0.0,2.6663,2.67,2.6801,2.6813,2.7014,2.7419,2.7444,2.7695,2.8247,2.8273,2.8536,2.9051,2.9063,2.934,2.9792,2.9792,2.9792,2.9792,2.9792,2.9792,2.9792,2.9792,2.9792,2.9792,2.9792,2.9792,2.9792,2.9792,2.9792,2.9792,2.9792,2.9792,2.9792,2.0139,2.0198,2.0528,2.153,2.1695,2.2024,2.2996,2.2862,2.2772,2.3122,2.2897,2.2688,2.2652,2.2368,2.1939,0.0,0.0,0.0,0.0,1.9708,1.9708,1.9708,1.9708,1.9708,1.9708,1.9708,1.9708,1.9708,1.9708,1.9708,1.9708,1.9708,1.9528,1.9211,1.9558,1.9513,1.9211,0.0,2.0861,2.2957,2.5914,0.0,2.7425,3.0374,3.027,2.879,3.0793,3.0868,2.9881,2.8936,2.8607,0.0,0.0,2.429,2.2493,0.0,2.0486,1.9708,0.0,0.0,0.0,1.9708,0.0,0.0,0.0,2.0486,2.1357,2.1927,0.0,0.0,0.0,0.0,0.0,0.0,0.0,0.0,0.0,0.0,0.0,0.0,0.0,0.0,0.0,2.6748,2.6692,2.7061,2.6714,2.6806,2.7473,2.7132,2.7165,2.767,2.7695,2.7959,2.8511,2.875,2.9038,2.9365,2.9654,2.9792,2.9792,2.9792,2.9792,2.9792,2.9792,2.9792,2.9792,2.9792,2.9792,2.9792,2.9792,2.9792,2.9792,2.9792,2.9792,2.9792,1.9708,1.9708,1.9899,2.0569,2.0703,2.1111,2.2328,2.2059,2.1934,2.2613,2.2583,2.2493,2.2458,2.2233,0.0,0.0,0.0,0.0,0.0,0.0,2.0172,1.9884,1.9768,1.9708,1.9708,1.9708,1.9708,1.9708,1.9708,1.9708,1.9708,1.9708,1.9405,1.8912,1.9316,1.948,1.9495,0.0,0.0,2.3437,0.0,2.6931,2.8278,3.0614,3.1271,3.0987,3.1376,3.1511,3.1197,2.9265,0.0,2.8532,2.8143,2.5555,0.0,0.0,0.0,0.0,0.0,0.0,0.0,0.0,0.0,1.9708,0.0,0.0,0.0,2.2119,0.0,0.0,0.0,0.0,0.0,0.0,0.0,0.0,0.0,0.0,0.0,0.0,0.0,0.0,0.0,2.6576,2.6834,2.7861,2.7351,2.7263,2.792,2.7196,2.6929,2.7373,2.7223,2.7394,2.7946,2.8386,2.8712,2.89,2.9402,2.9782,3.0075,2.9895,2.9895,3.0075,2.9869,2.9792,2.9792,2.9792,2.9792,2.9792,2.9792,2.9792,2.9792,2.9792,2.9792,2.9792,1.9708,1.9708,1.9899,2.0569,2.0703,2.0942,2.1695,2.1739,2.1934,2.2613,2.2194,2.2667,0.0,0.0,0.0,0.0,0.0,0.0,1.9783,0.0,0.0,2.0628,2.0019,1.9708,1.9708,1.9708,1.9708,1.9708,1.9708,1.9708,1.9708,1.9708,1.9663,0.0,1.9046,0.0,0.0,0.0,2.2936,0.0,2.7455,2.7335,0.0,3.0076,3.0419,2.916,3.0883,3.1511,3.1197,0.0,2.8607,2.8293,0.0,2.4448,2.2703,0.0,0.0,0.0,0.0,0.0,0.0,0.0,1.9708,0.0,0.0,0.0,2.0037,2.0037,0.0,0.0,0.0,0.0,0.0,0.0,0.0,0.0,0.0,0.0,0.0,0.0,0.0,0.0,0.0,0.0,2.6829,2.872,2.878,2.8748,2.8844,2.8019,2.761,2.7642,2.6973,2.6851,2.7369,2.7444,2.7959,2.8888,2.8963,2.9706,3.1007,3.0177,3.0241,3.1007,3.0177,2.9792,2.9792,2.9792,2.9792,2.9792,2.9792,2.9792,2.9792,2.9792,2.9792,2.9792,1.9708,1.9708,1.9798,2.0064,2.0124,2.0348,2.1021,2.2084,2.2892,2.3197,2.3655,0.0,0.0,0.0,0.0,0.0,0.0,2.4889,0.0,0.0,0.0,0.0,2.162,0.0,2.0857,2.0483,2.0288,2.0288,1.9902,1.9708,1.9708,1.9708,1.9498,0.0,1.9645,0.0,2.2733,0.0,2.4702,0.0,0.0,0.0,0.0,3.0285,3.1227,3.0881,3.0926,3.1689,3.2198,0.0,2.9535,0.0,0.0,0.0,0.0,0.0,0.0,0.0,0.0,0.0,0.0,0.0,0.0,0.0,2.1445,0.0,1.9708,0.0,0.0,0.0,0.0,0.0,0.0,0.0,0.0,0.0,0.0,0.0,0.0,0.0,0.0,0.0,0.0,0.0,0.0,0.0,0.0,2.749,2.8006,2.8284,2.846,2.846,2.8149,2.8073,2.8279,2.8591,2.9175,2.9998,3.033,3.0998,3.1997,3.1609,3.1659,3.1997,3.1586,3.1132,3.0658,3.1193,3.1095,3.0671,3.1193,3.0746,2.9792,2.9792,2.9792,2.9792,1.9708,1.9708,1.9708,1.9708,1.9708,1.9932,2.0598,2.2497,0.0,0.0,0.0,0.0,2.7275,2.5959,0.0,0.0,2.727,2.721,0.0,0.0,2.5486,0.0,0.0,0.0,0.0,2.15,2.0957,2.0957,2.0483,2.0262,2.0262,2.0262,1.9989,1.9555,0.0,2.165,2.3295,0.0,2.6408,2.8453,2.9007,2.9217,2.9367,3.0703,3.1854,3.2662,3.1674,3.2258,3.2976,2.9562,3.0283,0.0,2.8727,0.0,0.0,0.0,0.0,0.0,2.3107,0.0,0.0,0.0,0.0,0.0,0.0,0.0,0.0,0.0,0.0,0.0,0.0,0.0,0.0,0.0,0.0,0.0,0.0,0.0,0.0,0.0,0.0,0.0,0.0,0.0,0.0,0.0,0.0,0.0,2.7608,2.8732,2.9348,2.9348,2.9129,2.9002,2.9002,2.9398,2.9973,3.0812,3.1206,3.1931,3.2996,3.2713,3.2749,3.2961,3.2713,3.2213,3.1646,3.2321,3.2213,3.1633,3.2321,3.1756,3.0533,3.0279,3.0177,3.0139,1.9708,1.9708,1.9708,1.9708,1.9708,1.9932,2.0598,0.0,0.0,0.0,0.0,0.0,0.0,0.0,0.0,0.0,0.0,2.6213,2.751,0.0,2.7794,0.0,0.0,2.2592,0.0,0.0,0.0,2.1665,2.1635,2.1635,2.1635,2.1635,2.162,2.1575,2.0957,2.2123,2.4634,2.5974,2.8023,3.0582,3.2527,3.3305,3.311,0.0,3.1749,3.3455,3.341,0.0,0.0,3.1106,3.0492,0.0,0.0,0.0,0.0,0.0,0.0,0.0,0.0,0.0,0.0,2.3182,0.0,0.0,0.0,0.0,2.0479,0.0,0.0,0.0,0.0,0.0,0.0,0.0,0.0,0.0,0.0,0.0,0.0,0.0,0.0,0.0,0.0,0.0,0.0,0.0,0.0,0.0,2.8566,2.9638,3.0269,3.0269,2.9442,2.9002,2.9002,2.9016,2.9624,3.0798,3.0825,3.1923,3.391,3.3031,3.3101,3.391,3.2996,3.2558,3.2558,3.2593,3.2558,3.2558,3.2593,3.2558,3.2393,3.1499,3.1143,3.1044,2.0617,2.0722,2.0872,2.0438,0.0,0.0,0.0,2.3116,0.0,0.0,0.0,0.0,0.0,3.0372,2.9445,0.0,0.0,3.1599,3.0283,3.0597,0.0,0.0,0.0,2.6602,0.0,0.0,0.0,0.0,0.0,2.1695,2.1695,2.1695,2.1695,2.171,0.0,2.3236,0.0,0.0,0.0,0.0,0.0,3.2841,3.2871,0.0,0.0,3.4234,3.4651,3.4831,0.0,3.2512,3.2721,3.3499,3.172,3.0539,3.0135,3.1719,2.9669,0.0,0.0,0.0,2.7979,2.6871,0.0,0.0,0.0,0.0,0.0,0.0,0.0,0.0,0.0,0.0,0.0,0.0,0.0,0.0,0.0,0.0,0.0,0.0,0.0,0.0,0.0,0.0,0.0,0.0,0.0,0.0,0.0,2.7554,2.9167,2.9167,3.0148,3.0644,3.0644,3.0644,3.1081,3.1926,3.238,3.3196,3.4336,3.4453,3.4691,3.4986,3.4673,3.4158,3.3567,3.4225,3.4109,3.3602,3.4259,3.4109,3.3415,3.2464,3.2141,3.1997,2.1455,2.1395,2.156,0.0,0.0,0.0,0.0,0.0,0.0,0.0,2.9101,0.0,3.317,0.0,3.2138,0.0,3.2736,3.3021,3.2931,3.1135,0.0,3.3469,3.0103,0.0,0.0,0.0,0.0,0.0,0.0,2.2981,2.343,2.2712,2.2383,2.2383,0.0,2.3736,2.5106,0.0,3.0313,0.0,0.0,3.2946,0.0,0.0,3.4218,3.4906,0.0,3.5504,3.531,3.4008,3.4442,3.5205,3.3454,3.2751,3.2751,3.3589,3.1898,2.9891,3.076,3.0999,0.0,2.9295,2.7979,0.0,2.5824,0.0,0.0,0.0,0.0,0.0,0.0,0.0,0.0,0.0,0.0,0.0,0.0,1.9708,0.0,0.0,0.0,0.0,0.0,0.0,0.0,0.0,0.0,0.0,0.0,0.0,2.8607,2.8607,3.0479,3.1511,3.1511,3.1511,3.1839,3.2497,3.3185,3.3844,3.4533,3.519,3.5504,3.5504,3.5504,3.5133,3.4576,3.5246,3.5133,3.461,3.5246,3.51,3.4442,3.3463,3.289,3.2558,2.2128,2.1769,0.0,0.0,2.2877,0.0,0.0,0.0,2.8113,0.0,3.0851,3.07,3.317,3.1315,3.0791,3.3051,3.0522,0.0,3.4891,2.9385,0.0,0.0,2.946,2.8113,3.2422,0.0,0.0,0.0,0.0,0.0,2.6566,2.4537,2.3595,2.3595,2.3595,0.0,2.3864,2.7874,2.9666,2.9906,3.1659,3.3574,3.5145,3.3245,3.3754,3.5504,3.5504,3.5504,3.5504,3.5504,3.5504,3.5504,3.5504,3.5055,3.4563,3.4563,3.4114,3.3589,3.3559,3.3544,3.2931,3.0402,0.0,0.0,0.0,0.0,2.6408,0.0,0.0,0.0,0.0,0.0,0.0,0.0,0.0,0.0,0.0,0.0,0.0,0.0,0.0,0.0,0.0,0.0,0.0,0.0,0.0,0.0,0.0,0.0,2.8397,2.8592,3.0315,3.1346,3.1511,3.1436,3.175,3.2452,3.3155,3.3829,3.4474,3.5175,3.5504,3.5504,3.5504,3.5504,3.5504,3.5504,3.5504,3.5504,3.5504,3.5504,3.5392,3.4428,3.3484,3.282,2.2838,2.2802,2.3116,0.0,2.4612,2.6273,0.0,0.0,0.0,0.0,3.145,3.2018,3.2691,3.3499,3.2871,3.0103,3.0866,0.0,0.0,0.0,0.0,3.537,3.3873,3.2826,3.2497,3.1674,0.0,2.9606,0.0,0.0,2.6566,2.4537,2.3595,2.3595,0.0,0.0,2.3864,2.7874,3.0417,3.1674,3.0717,3.1524,0.0,0.0,3.3754,3.5504,3.5504,3.5504,3.5504,3.5504,3.5504,3.5504,3.5504,3.5385,3.5235,3.5235,3.5115,3.4876,3.4367,3.4249,3.3979,3.2781,3.1031,2.9427,0.0,0.0,0.0,0.0,0.0,0.0,0.0,0.0,0.0,0.0,0.0,0.0,0.0,0.0,0.0,1.9708,0.0,0.0,0.0,0.0,0.0,0.0,0.0,0.0,0.0,0.0,0.0,2.8502,2.8128,2.9041,3.1481,3.0567,3.0657,3.1765,3.2946,3.3589,3.3784,3.4966,3.5504,3.5504,3.5504,3.5504,3.5504,3.5504,3.5504,3.5504,3.5504,3.5504,3.5472,3.5213,3.4476,3.3671,2.3496,2.361,0.0,2.4418,0.0,0.0,2.8951,0.0,0.0,3.2407,3.2303,0.0,3.3694,3.4831,3.4577,3.2258,3.1794,0.0,3.2033,0.0,0.0,3.534,3.4397,3.3349,3.2512,3.2796,0.0,3.0866,0.0,0.0,2.8162,2.504,2.3724,0.0,0.0,2.3595,2.3864,2.7874,3.0717,3.2392,3.1315,0.0,0.0,3.317,3.4188,3.5968,3.6252,3.5983,3.5504,3.5504,3.5504,3.5504,3.5504,3.5504,3.5504,3.5504,3.5504,3.5429,3.504,3.4921,3.4771,3.4083,3.2841,3.1673,3.136,3.0193,2.915,0.0,0.0,0.0,0.0,0.0,0.0,0.0,0.0,0.0,0.0,0.0,0.0,0.0,0.0,0.0,0.0,0.0,0.0,0.0,0.0,0.0,0.0,0.0,0.0,2.6363,2.738,2.8502,2.9789,2.9071,2.937,3.0702,3.2003,3.2946,3.3544,3.4891,3.5504,3.5504,3.5504,3.5504,3.5504,3.5504,3.5504,3.5504,3.5504,3.5504,3.5504,3.5504,3.5133,3.4658,2.4133,0.0,0.0,0.0,0.0,0.0,0.0,3.0205,0.0,3.4696,0.0,3.2931,3.5011,3.5549,3.5878,3.6193,0.0,3.2512,3.5998,3.0821,3.0058,3.5519,3.3424,3.2422,3.3021,3.3514,0.0,0.0,0.0,0.0,0.0,2.5712,0.0,0.0,0.0,0.0,0.0,2.7854,3.0477,3.2497,3.2617,3.3694,3.516,3.4322,3.51,3.6686,3.721,3.6701,3.5759,3.5759,3.5759,3.5744,3.5669,3.5624,3.5609,3.5534,3.5504,3.5537,3.5619,3.5636,3.5533,3.5042,3.4862,3.4635,3.3923,3.3321,3.3044,3.3437,3.2652,3.1539,0.0,0.0,0.0,0.0,0.0,0.0,0.0,0.0,0.0,0.0,0.0,0.0,0.0,0.0,0.0,0.0,0.0,0.0,0.0,0.0,0.0,2.4014,2.7111,2.8513,2.7869,0.0,2.8364,2.9849,3.0957,3.2183,3.3544,3.4891,3.5504,3.5504,3.5504,3.5504,3.5504,3.5504,3.5504,3.5504,3.5504,3.5504,3.5504,3.5504,3.5504,3.5504,0.0,0.0,0.0,0.0,0.0,2.8353,3.1509,3.341,3.4128,3.3155,3.4547,3.516,3.3978,3.5789,3.6462,3.4998,3.4219,0.0,0.0,0.0,0.0,3.6956,3.6133,3.5669,3.5789,3.537,3.5406,0.0,0.0,0.0,0.0,0.0,0.0,0.0,0.0,0.0,2.8498,2.7515,0.0,3.2557,3.3095,3.3544,3.4053,3.5983,3.6941,3.727,3.7375,3.727,3.7075,3.7075,3.7075,3.6985,3.6477,3.6312,3.6207,3.5669,3.5504,3.5636,3.6244,3.6415,3.6538,3.7077,3.6809,3.619,3.5423,3.5227,3.4889,3.374,3.3842,3.3884,3.3061,0.0,0.0,0.0,0.0,0.0,0.0,0.0,0.0,0.0,0.0,0.0,0.0,0.0,0.0,0.0,0.0,0.0,0.0,0.0,0.0,0.0,2.5151,0.0,0.0,0.0,2.8786,3.1167,3.1391,3.2183,3.3544,3.4891,3.5504,3.5504,3.5504,3.5504,3.5504,3.5504,3.5504,3.5504,3.5504,3.5504,3.5504,3.5504,3.5504,3.5504,0.0,0.0,0.0,0.0,0.0,0.0,0.0,3.3844,0.0,3.4696,3.5699,3.6237,3.5594,3.6656,3.7165,3.6552,3.5594,3.5444,3.6447,3.5564,3.5729,3.7345,3.712,0.0,3.5459,3.6213,3.6054,3.5003,0.0,0.0,0.0,0.0,0.0,0.0,0.0,2.6995,0.0,0.0,0.0,3.3826,3.5523,3.621,3.633,3.747,3.7913,3.8027,3.8812,3.9104,3.893,3.7801,3.7404,3.736,3.706,3.6971,3.6836,3.6207,3.6013,3.6022,3.6017,3.6306,3.6691,3.7084,3.7245,3.7237,3.6832,3.6508,3.6208,3.5801,3.5177,3.424,3.2692,3.0892,0.0,0.0,0.0,0.0,0.0,0.0,0.0,0.0,0.0,0.0,0.0,0.0,0.0,0.0,0.0,0.0,0.0,0.0,0.0,0.0,0.0,0.0,0.0,0.0,0.0,3.0972,3.1331,3.2363,3.4038,3.5055,3.5504,3.5504,3.5504,3.5504,3.5504,3.5504,3.5504,3.5504,3.5504,3.5504,3.5504,3.5504,3.5504,3.5504,0.0,2.8068,0.0,0.0,2.882,0.0,3.1195,3.3858,3.6058,3.6611,3.6806,3.7075,3.7569,3.7749,3.7883,3.7973,3.6971,3.6626,3.73,3.6716,3.6596,3.718,3.7479,3.6982,3.5631,3.7075,3.694,0.0,0.0,0.0,0.0,0.0,0.0,0.0,0.0,0.0,0.0,0.0,3.6047,3.6097,3.831,3.9185,3.9199,3.9183,3.9184,3.9314,4.0523,4.0979,4.0722,3.8965,3.8239,3.8054,3.7728,3.7614,3.7494,3.6866,3.6686,3.6637,3.6304,3.663,3.7122,3.7308,3.7803,3.8234,3.8064,3.7753,3.7546,3.7754,3.6391,3.4593,3.2799,3.1946,0.0,0.0,0.0,0.0,0.0,0.0,0.0,0.0,0.0,0.0,0.0,0.0,0.0,0.0,0.0,1.9981,2.0322,2.143,0.0,0.0,0.0,2.6432,2.7375,0.0,2.8723,3.0941,3.1316,3.2557,3.4533,3.519,3.5504,3.5504,3.5504,3.5504,3.5504,3.5504,3.5504,3.5504,3.5504,3.5504,3.5504,3.5504,3.5504,3.5504,0.0,0.0,0.0,0.0,0.0,0.0,3.6133,3.5026,3.4622,3.7015,3.7838,3.8227,3.8287,3.8856,3.8542,3.6821,3.8123,3.7599,3.4173,3.715,3.8317,3.6656,3.7689,3.8599,3.9197,3.8815,3.9202,0.0,0.0,0.0,0.0,0.0,0.0,0.0,0.0,0.0,0.0,3.6464,3.7958,3.958,4.0447,4.0783,4.0863,4.1438,4.166,4.1676,4.1837,4.1869,4.1853,4.1645,4.1042,4.0158,3.8747,3.8302,3.8167,3.7509,3.733,3.7488,3.8292,3.8527,3.8766,3.9578,3.985,3.9705,3.8962,3.9292,3.9403,3.8081,3.7153,3.6531,3.6331,3.4052,3.1506,0.0,0.0,0.0,0.0,0.0,0.0,0.0,0.0,0.0,0.0,0.0,0.0,0.0,0.0,2.0882,2.2334,2.0876,2.1081,2.352,0.0,2.4792,2.6686,2.73,2.9202,3.2317,3.1765,3.2557,3.4533,3.519,3.5504,3.5504,3.5504,3.5504,3.5504,3.5504,3.5504,3.5504,3.5504,3.5504,3.5504,3.5504,3.5504,3.5504,0.0,0.0,0.0,0.0,0.0,0.0,0.0,3.7328,3.8513,3.9964,3.915,3.8542,3.896,3.926,3.911,3.8317,3.9334,3.917,3.718,3.8916,3.9706,3.9039,3.9516,4.0186,4.1051,4.0909,4.0893,0.0,0.0,0.0,0.0,0.0,0.0,0.0,0.0,3.677,3.7208,3.9808,4.108,4.1439,4.2113,4.2393,4.2348,4.2093,4.1997,4.2062,4.2583,4.2785,4.2785,4.2785,4.2189,4.1365,4.0751,4.022,3.9757,3.9582,3.9199,3.8895,3.9371,3.9858,4.0222,4.0126,4.0428,4.0552,3.9789,3.9876,3.9935,3.9293,3.863,3.7862,3.6965,3.5814,3.4121,0.0,0.0,0.0,0.0,0.0,0.0,0.0,0.0,0.0,0.0,0.0,0.0,0.0,0.0,0.0,2.163,2.1957,2.3247,2.5748,0.0,2.7348,3.0179,2.9264,3.0265,3.3095,3.2841,3.3544,3.51,3.5385,3.5504,3.5504,3.5504,3.5504,3.5504,3.5504,3.5504,3.5504,3.5504,3.5504,3.5504,3.5504,3.5744,3.6088,3.6779,0.0,3.5064,0.0,3.6146,3.7382,3.674,3.9277,4.1325,4.1342,4.0446,3.9871,4.0051,4.0075,3.9945,3.9536,4.051,4.0527,3.9183,4.0602,4.1348,4.0896,4.1225,0.0,4.2686,4.2577,4.2367,4.205,4.0067,0.0,0.0,0.0,0.0,0.0,3.9191,3.9975,3.9654,4.2526,4.3446,4.3019,4.3494,4.368,4.3621,4.3,4.2769,4.2831,4.3456,4.368,4.368,4.368,4.3259,4.2676,4.2157,4.1576,4.1119,4.1247,4.0864,4.0432,4.0596,4.1063,4.1366,4.0873,4.098,4.1068,4.0527,4.0265,4.0096,4.0096,3.952,3.8616,3.7371,3.6948,3.5814,3.2784,0.0,0.0,0.0,0.0,0.0,0.0,2.9551,2.9128,3.1125,0.0,0.0,0.0,0.0,0.0,2.1851,2.2524,0.0,0.0,0.0,0.0,0.0,3.0361,3.1211,3.3789,3.4016,3.4602,3.5504,3.5504,3.5504,3.5504,3.5504,3.5504,3.5504,3.5504,3.5504,3.5504,3.5504,3.5504,3.5534,3.5729,3.6088,3.6507,4.0057,4.0989,4.1677,4.1021,4.1453,4.1166,3.8907,4.0512,4.1454,4.0033,4.1709,4.2674,4.1763,4.1658,4.1186,3.9893,4.1612,4.1512,3.8513,4.1963,4.3314,0.0,0.0,4.3476,4.4344,4.3652,4.371,4.457,0.0,0.0,4.002,0.0,3.8937,3.9089,4.2033,4.3341,4.3392,4.4215,4.4598,4.4553,4.457,4.457,4.457,4.457,4.457,4.457,4.457,4.457,4.457,4.457,4.457,4.4281,4.2536,4.1997,4.1997,4.1981,4.1981,4.1997,4.2146,4.2186,4.2196,4.2267,4.1728,4.1204,4.1187,4.0612,4.0096,4.0096,3.952,3.8768,3.8024,3.728,3.5814,3.2784,0.0,0.0,0.0,0.0,0.0,0.0,2.7673,2.7351,2.8891,0.0,0.0,0.0,0.0,0.0,0.0,0.0,0.0,2.5038,2.3832,0.0,2.842,2.982,3.1817,3.4512,3.5222,3.5569,3.5504,3.5504,3.5504,3.5504,3.5504,3.5504,3.5504,3.5504,3.5504,3.5504,3.5504,3.5504,3.5579,3.6237,3.6477,3.6582,3.703,3.9618,4.1438,3.9668,4.1326,4.2649,4.1917,4.3363,4.4351,4.3885,4.488,4.5456,4.5015,4.4012,4.323,0.0,4.2433,4.2215,0.0,4.2526,4.309,4.4112,4.3101,4.2878,4.3685,4.3009,4.2734,4.3041,0.0,0.0,0.0,4.1356,4.1796,4.2871,4.3792,4.4215,4.4215,4.4496,4.4615,4.4615,4.4615,4.4615,4.4615,4.4615,4.4615,4.4615,4.4615,4.4615,4.4615,4.4615,4.4615,4.4514,4.396,4.335,4.3,4.3604,4.335,4.3029,4.3676,4.3843,4.3715,4.3196,4.2878,4.2455,4.1441,4.0629,4.0096,4.0096,3.991,3.9512,3.8785,3.8041,3.6569,3.3541,3.3897,0.0,0.0,0.0,0.0,0.0,2.9484,2.9061,0.0,2.923,0.0,0.0,0.0,0.0,0.0,0.0,0.0,0.0,2.9729,0.0,3.3352,3.245,3.3374,3.6073,3.6311,3.635,3.6244,3.6244,3.5975,3.5504,3.5504,3.5504,3.5504,3.5504,3.5504,3.5549,3.5998,3.6178,3.6252,3.6881,3.7404,3.7808,3.8982,4.1047,4.2528,4.1112,4.2703,4.3918,4.3069,4.4728,4.5906,4.5348,4.6413,4.7252,4.7411,4.6583,0.0,4.5519,4.4593,4.4578,4.5914,4.5112,4.5236,4.6745,4.523,4.4587,4.5083,0.0,0.0,4.3978,4.3707,4.3436,4.3149,4.3149,4.3684,4.4615,4.4615,4.4615,4.4615,4.4615,4.4615,4.4615,4.4615,4.4615,4.4615,4.4615,4.4615,4.4615,4.4615,4.4615,4.4615,4.4615,4.4615,4.4615,4.4615,4.4224,4.3919,4.444,4.4224,4.3902,4.4457,4.4615,4.4496,4.3978,4.3639,4.3003,4.1542,4.0832,4.0434,4.0163,4.0096,3.9876,3.9123,3.8616,3.7618,3.5453,3.5639,3.5571,3.4189,0.0,0.0,0.0,0.0,0.0,0.0,3.1058,3.0245,0.0,0.0,0.0,0.0,0.0,0.0,3.1393,3.185,0.0,3.5231,3.4582,3.5224,3.7177,3.7175,3.7128,3.7054,3.7054,3.6631,3.5911,3.5911,3.575,3.5504,3.5504,3.5654,3.5908,3.6327,3.6626,3.6911,3.7539,3.8033,3.8422,4.4242,4.4462,0.0,0.0,4.5213,0.0,4.2929,4.5026,4.638,4.5021,4.6667,4.8257,4.8934,4.9001,4.8656,4.777,0.0,0.0,0.0,4.8866,4.8849,4.9001,4.8206,4.7736,4.7736,4.7022,4.6684,4.6786,4.6109,4.5432,4.475,4.475,4.4733,4.4682,4.4682,4.4649,4.4615,4.4615,4.4615,4.4615,4.4615,4.4615,4.4615,4.4615,4.4615,4.4615,4.4615,4.4615,4.4615,4.4615,4.4615,4.4615,4.4615,4.4615,4.4615,4.4615,4.4615,4.4615,4.4615,4.4615,4.4615,4.4615,4.3995,4.3037,4.1677,4.1271,4.1018,4.0333,4.0146,3.9893,3.9191,3.9022,3.8768,3.8091,3.7347,3.6812,3.6592,0.0,0.0,0.0,0.0,0.0,0.0,3.2446,3.2462,0.0,0.0,0.0,0.0,0.0,2.7486,3.048,3.1224,3.2628,3.4776,3.6237,3.7289,3.7962,3.7954,3.7921,3.7863,3.7863,3.744,3.6661,3.6661,3.6274,3.5662,3.5662,3.6019,3.6552,3.6596,3.6971,3.7554,3.8212,3.8467,3.8556,0.0,0.0,4.5077,4.3893,4.5263,4.6346,4.5805,4.6819,4.753,4.7175,4.8071,4.8815,4.8984,4.9001,4.8909,4.8688,4.711,4.6965,4.8852,4.7428,4.7242,4.8934,4.7225,4.6227,4.6227,4.5483,4.5681,4.6786,4.6616,4.6447,4.6261,4.6261,4.5974,4.5432,4.5432,4.5128,4.4615,4.4615,4.4615,4.4615,4.4615,4.4615,4.4615,4.4615,4.4615,4.4615,4.4615,4.4615,4.4615,4.4615,4.4615,4.4615,4.4615,4.4615,4.4615,4.4615,4.4615,4.4615,4.4615,4.4615,4.4615,4.4615,4.3995,4.3308,4.2953,4.2016,4.1153,4.0984,4.0476,4.0045,3.9876,3.9377,3.8937,3.8768,3.8125,3.684,3.4539,3.3592,0.0,0.0,3.0804,3.1718,3.2242,3.3829,3.4117,0.0,0.0,0.0,0.0,3.2138,3.2679,3.5154,3.5391,3.6288,3.7922,3.8294,3.8847,3.9556,3.9569,3.9236,3.8635,3.8635,3.8218,3.7515,3.7515,3.7368,3.709,3.709,3.7147,3.724,3.7749,3.8033,3.8242,3.8931,3.917,3.92,4.2658,4.4519,4.594,4.5111,4.6261,4.731,4.731,4.7936,4.8409,4.8409,4.8748,4.9001,4.9001,4.9001,4.9001,4.9001,4.7902,4.7716,4.8917,4.7885,4.775,4.8951,4.7851,4.7208,4.7208,4.6819,4.6836,4.731,4.731,4.7124,4.6786,4.6786,4.6583,4.6194,4.6194,4.5974,4.5613,4.5613,4.5613,4.5596,4.5229,4.5094,4.506,4.4733,4.4615,4.4615,4.4615,4.4615,4.4615,4.4615,4.4615,4.4615,4.4615,4.4615,4.4615,4.4615,4.4615,4.4615,4.4615,4.4615,4.4615,4.4615,4.4265,4.3859,4.3477,4.2794,4.2016,4.1339,4.0882,4.0519,4.0163,3.9774,3.9503,3.9503,3.8007,3.6276,3.4636,3.3254,0.0,3.1562,3.2581,3.3694,3.4759,3.596,3.6163,3.4945,0.0,0.0,3.5402,3.4793,3.5301,3.7229,3.7618,3.82,3.8988,3.9326,3.9706,4.0096,4.0096,3.9859,3.9463,3.9463,3.923,3.8833,3.8833,3.8787,3.8653,3.8278,3.8473,3.9025,3.9023,3.9412,4.0078,4.043,4.0359,3.999,4.6819,4.6972,4.6989,4.7107,4.7665,4.8058,4.8058,4.8612,4.9001,4.9001,4.9001,4.9001,4.9001,4.9001,4.9001,4.9001,4.9001,4.9001,4.9001,4.9001,4.9001,4.9001,4.9001,4.9001,4.9001,4.9001,4.8697,4.8058,4.8058,4.7767,4.7124,4.7124,4.7056,4.6972,4.6972,4.6904,4.6786,4.6786,4.6786,4.6735,4.6126,4.5872,4.5805,4.5162,4.4936,4.4936,4.4818,4.4784,4.475,4.4649,4.4615,4.4615,4.4615,4.4615,4.4615,4.4615,4.4615,4.4615,4.4615,4.4615,4.4615,4.4615,4.4615,4.4429,4.3741,4.3504,4.3037,4.1796,4.1356,4.1018,4.0383,4.018,3.9994,3.9656,3.7449,3.5616,3.516,0.0,3.251,3.4286,3.4793,3.5774,3.7719,3.7905,3.7905,3.7905,3.6681,3.6563,3.799,3.6817,3.6772,3.8193,3.8717,3.9039,3.9157,3.9791,4.0096,4.0096,4.0096,4.0163,4.0282,4.0282,4.0344,4.0431,4.0431,4.0373,4.0257,3.955,3.9993,4.107,4.0334,4.0859,4.1997,4.1997,4.1543,4.0878,4.7597,4.775,4.7936,4.8562,4.8748,4.8832,4.8832,4.8934,4.9001,4.9001,4.9001,4.9001,4.9001,4.9001,4.9001,4.9001,4.9001,4.9001,4.9001,4.9001,4.9001,4.9001,4.9001,4.9001,4.9001,4.9001,4.8951,4.8832,4.8832,4.8781,4.8663,4.8663,4.8342,4.775,4.775,4.7394,4.6786,4.6786,4.6786,4.6786,4.6667,4.6616,4.6616,4.6498,4.6447,4.6363,4.5754,4.5534,4.5432,4.4818,4.4615,4.4615,4.4615,4.4615,4.4615,4.4615,4.4615,4.4615,4.4615,4.4615,4.4615,4.4615,4.4615,4.4581,4.4445,4.3893,4.3325,4.3105,4.2083,4.117,4.1052,4.051,3.9486,3.7625,3.6931,3.5729,3.3173,0.0,3.4827,3.4523,3.6197,3.7516,3.7872,3.7905,3.7905,3.7905,3.7686,3.7922,3.8768,3.8599,3.8853,3.974,3.9283,3.9317,3.9926,4.0045,4.0096,4.0096,4.0096,4.0434,4.1035,4.1035,4.1371,4.1967,4.1967,4.1916,4.1845,4.1727,4.1742,4.1837,4.1709,4.1805,4.1997,4.1997,4.1901,4.1804,4.8359,4.8494,4.8612,4.8951,4.9001,4.9001,4.9001,4.9001,4.9001,4.9001,4.9001,4.9001,4.9001,4.9001,4.9001,4.9001,4.9001,4.9001,4.9001,4.9001,4.9001,4.9001,4.9001,4.9001,4.9001,4.9001,4.9001,4.9001,4.9001,4.9001,4.9001,4.9001,4.8832,4.8494,4.8494,4.8308,4.7986,4.7986,4.7986,4.7953,4.7547,4.7394,4.7361,4.6955,4.6786,4.6752,4.6413,4.6295,4.6244,4.5889,4.5771,4.5771,4.5771,4.5771,4.5771,4.5771,4.5224,4.4615,4.4615,4.4615,4.4615,4.4615,4.4615,4.4615,4.4615,4.4299,4.3927,4.3504,4.2851,4.2269,4.1863,4.1187,4.0358,3.9326,3.7845,0.0,0.0,3.5588,3.6113,3.5797,3.7726,3.9073,3.9073,3.9073,3.9073,3.9073,3.9073,3.9225,3.9571,3.9605,3.9757,4.0096,3.9774,3.9757,4.0096,4.0096,4.0316,4.0679,4.0679,4.1068,4.1779,4.1779,4.2185,4.2895,4.2895,4.3126,4.3459,4.2989,4.3023,4.335,4.2878,4.3,4.341,4.341,4.3092,4.2707,4.89,4.9001,4.9001,4.9001,4.9001,4.9001,4.9001,4.9001,4.9001,4.9001,4.9001,4.9001,4.9001,4.9001,4.9001,4.9001,4.9001,4.9001,4.9001,4.9001,4.9001,4.9001,4.9001,4.9001,4.9001,4.9001,4.9001,4.9001,4.9001,4.9001,4.9001,4.9001,4.9001,4.9001,4.9001,4.9001,4.9001,4.9001,4.9001,4.8951,4.8392,4.8173,4.8075,4.753,4.731,4.7276,4.7124,4.7056,4.7022,4.6853,4.6786,4.6786,4.6786,4.6786,4.6786,4.6786,4.5991,4.5089,4.4919,4.4869,4.479,4.4649,4.4615,4.4615,4.4615,4.4615,4.4429,4.3809,4.3511,4.325,4.2658,4.1948,4.1288,4.0781,0.0,0.0,0.0,3.6914,3.6998,3.7506,3.9063,4.0096,4.0096,4.0096,4.0096,4.0096,4.0096,4.0096,4.0096,4.0265,4.0434,4.062,4.0282,4.018,4.0367,4.0367,4.0713,4.1457,4.1457,4.1847,4.2557,4.2557,4.2963,4.369,4.369,4.4028,4.4542,4.3873,4.4006,4.4542,4.3844,4.4006,4.4615,4.4615,4.4167,4.3591,4.8984,4.9001,4.9001,4.9001,4.9001,4.9001,4.9001,4.9001,4.9001,4.9001,4.9001,4.9001,4.9001,4.9001,4.9001,4.9001,4.9001,4.9001,4.9001,4.9001,4.9001,4.9001,4.9001,4.9001,4.9001,4.9001,4.9001,4.9001,4.9001,4.9001,4.9001,4.9001,4.9001,4.9001,4.9001,4.9001,4.9001,4.9001,4.9001,4.9001,4.8951,4.8934,4.8917,4.8866,4.8849,4.8748,4.8071,4.7804,4.7733,4.7022,4.6786,4.6786,4.6786,4.6786,4.6786,4.6786,4.6718,4.6481,4.5805,4.5618,4.5449,4.4784,4.4615,4.4615,4.4615,4.4615,4.4581,4.453,4.3927,4.3375,4.3325,4.2726,4.1542,3.9495,0.0,0.0,3.7821,3.7212,3.7557,3.9622,3.9994,4.0096,4.0096,4.0096,4.0096,4.0096,4.0096,4.0096,4.0096,4.0747,4.1424,4.21,4.0823,4.0434,4.1119,4.1119,4.1491,4.2219,4.2219,4.2608,4.3308,4.3308,4.3758,4.4513,4.4513,4.4564,4.4615,4.4542,4.4542,4.4598,4.4542,4.4542,4.4615,4.4615,4.4542,4.4514,4.9001,4.9001,4.9001,4.9001,4.9001,4.9001,4.9001,4.9001,4.9001,4.9001,4.9001,4.9001,4.9001,4.9001,4.9001,4.9001,4.9001,4.9001,4.9001,4.9001,4.9001,4.9001,4.9001,4.9001,4.9001,4.9001,4.9001,4.9001,4.9001,4.9001,4.9001,4.9001,4.9001,4.9001,4.9001,4.9001,4.9001,4.9001,4.9001,4.9001,4.9001,4.9001,4.9001,4.9001,4.9001,4.8968,4.8697,4.8595,4.8545,4.8257,4.8156,4.8156,4.8156,4.8156,4.8156,4.8156,4.8156,4.8003,4.7246,4.6735,4.6312,4.6024,4.5618,4.528,4.528,4.4925,4.4615,4.4615,4.435,4.413,4.413,4.3504,4.2726,4.188,0.0,4.0629,4.0629,4.0375,4.0536,4.1339,4.1441,4.1441,4.1441,4.1441,4.1441,4.1441,4.1441,4.1441,4.1441,4.1728,4.1999,4.2286,4.1745,4.1593,4.188,4.188,4.2252,4.298,4.298,4.3386,4.413,4.413,4.4299,4.4615,4.4615,4.4615,4.4615,4.4615,4.4615,4.4615,4.4615,4.4615,4.4615,4.4615,4.4615,4.4615,4.9001,4.9001,4.9001,4.9001,4.9001,4.9001,4.9001,4.9001,4.9001,4.9001,4.9001,4.9001,4.9001,4.9001,4.9001,4.9001,4.9001,4.9001,4.9001,4.9001,4.9001,4.9001,4.9001,4.9001,4.9001,4.9001,4.9001,4.9001,4.9001,4.9001,4.9001,4.9001,4.9001,4.9001,4.9001,4.9001,4.9001,4.9001,4.9001,4.9001,4.9001,4.9001,4.9001,4.9001,4.9001,4.9001,4.9001,4.9001,4.9001,4.9001,4.9001,4.9001,4.9001,4.9001,4.9001,4.9001,4.9001,4.89,4.8392,4.7885,4.7378,4.6904,4.6413,4.6058,4.6058,4.5466,4.4942,4.4942,4.4767,4.4615,4.4615,4.4147,4.3792,4.3792,4.3149,4.2642,4.2642,4.2439,4.2286,4.2286,4.2286,4.2286,4.2286,4.2286,4.2286,4.2286,4.2286,4.2388,4.2625,4.2642,4.276,4.3024,4.3014,4.3014,4.3014,4.276,4.3031,4.3792,4.3792,4.4062,4.4615,4.4615,4.4615,4.4615,4.4615,4.4615,4.4615,4.4615,4.4615,4.4615,4.4615,4.4615,4.4615,4.4615,4.4615,4.4615,4.9001,4.9001,4.9001,4.9001,4.9001,4.9001,4.9001,4.9001,4.9001,4.9001,4.9001,4.9001,4.9001,4.9001,4.9001,4.9001,4.9001,4.9001,4.9001,4.9001,4.9001,4.9001,4.9001,4.9001,4.9001,4.9001,4.9001,4.9001,4.9001,4.9001,4.9001,4.9001,4.9001,4.9001,4.9001,4.9001,4.9001,4.9001,4.9001,4.9001,4.9001,4.9001,4.9001,4.9001,4.9001,4.9001,4.9001,4.9001,4.9001,4.9001,4.9001,4.9001,4.9001,4.9001,4.9001,4.9001,4.9001,4.9001,4.9001,4.9001,4.8646,4.7175,4.6802,4.6802,4.6802,4.6244,4.572,4.572,4.5111,4.4615,4.4615,4.4615,4.4615,4.4615,4.3927,4.3392,4.3392,4.2777,4.2303,4.2303,4.2303,4.2303,4.2303,4.2303,4.2303,4.2303,4.2303,4.2642,4.3358,4.3392,4.3792,4.4581,4.4615,4.4615,4.4615,4.3809,4.3809,4.4615,4.4615,4.4615,4.4615,4.4615,4.4615,4.4615,4.4615,4.4615,4.4615,4.4615,4.4615,4.4615,4.4615,4.4615,4.4615,4.4615,4.4615,4.4615,4.9001,4.9001,4.9001,4.9001,4.9001,4.9001,4.9001,4.9001,4.9001,4.9001,4.9001,4.9001,4.9001,4.9001,4.9001,4.9001,4.9001,4.9001,4.9001,4.9001,4.9001,4.9001,4.9001,4.9001,4.9001,4.9001,4.9001,4.9001,4.9001,4.9001,4.9001,4.9001,4.9001,4.9001,4.9001,4.9001,4.9001,4.9001,4.9001,4.9001,4.9001,4.9001,4.9001,4.9001,4.9001,4.9001,4.9001,4.9001,4.9001,4.9001,4.9001,4.9001,4.9001,4.9001,4.9001,4.9001,4.9001,4.9001,4.9001,4.9001,4.89,4.846,4.7953,4.7581,4.7581,4.7005,4.6464,4.6464,4.5889,4.5365,4.5365,4.4942,4.4615,4.4615,4.4412,4.4231,4.4231,4.4056,4.3921,4.3921,4.3921,4.3921,4.3921,4.3921,4.3921,4.3921,4.3921,4.4022,4.4215,4.4231,4.4333,4.4598,4.4615,4.4615,4.4615,4.435,4.435,4.4615,4.4615,4.4615,4.4615,4.4615,4.4615,4.4615,4.4615,4.4615,4.4615,4.4615,4.4615,4.4615,4.4615,4.4615,4.4615,4.4615,4.4615,4.4615,4.9001,4.9001,4.9001,4.9001,4.9001,4.9001,4.9001,4.9001,4.9001,4.9001,4.9001,4.9001,4.9001,4.9001,4.9001,4.9001,4.9001,4.9001,4.9001,4.9001,4.9001,4.9001,4.9001,4.9001,4.9001,4.9001,4.9001,4.9001,4.9001,4.9001,4.9001,4.9001,4.9001,4.9001,4.9001,4.9001,4.9001,4.9001,4.9001,4.9001,4.9001,4.9001,4.9001,4.9001,4.9001,4.9001,4.9001,4.9001,4.9001,4.9001,4.9001,4.9001,4.9001,4.9001,4.9001,4.9001,4.9001,4.9001,4.9001,4.9001,4.9001,4.9001,4.8663,4.8359,4.8359,4.7767,4.7242,4.7242,4.665,4.6143,4.6143,4.5771,4.5376,4.506,4.5026,4.4925,4.4649,4.4615,4.4615,4.4615,4.4615,4.4615,4.4615,4.4615,4.4615,4.4615,4.4615,4.4615,4.4615,4.4615,4.4615,4.4615,4.4615,4.4615,4.4615,4.4615,4.4615,4.4615,4.4615,4.4615,4.4615,4.4615,4.4615,4.4615,4.4615,4.4615,4.4615,4.4615,4.4615,4.4615,4.4615,4.4615,4.4615,4.4615,4.4615,4.4615,4.9001,4.9001,4.9001,4.9001,4.9001,4.9001,4.9001,4.9001,4.9001,4.9001,4.9001,4.9001,4.9001,4.9001,4.9001,4.9001,4.9001,4.9001,4.9001,4.9001,4.9001,4.9001,4.9001,4.9001,4.9001,4.9001,4.9001,4.9001,4.9001,4.9001,4.9001,4.9001,4.9001,4.9001,4.9001,4.9001,4.9001,4.9001,4.9001,4.9001,4.9001,4.9001,4.9001,4.9001,4.9001,4.9001,4.9001,4.9001,4.9001,4.9001,4.9001,4.9001,4.9001,4.9001,4.9001,4.9001,4.9001,4.9001,4.9001,4.9001,4.9001,4.9001,4.9001,4.9001,4.9001,4.8494,4.799,4.799,4.7411,4.6887,4.6887,4.6836,4.6583,4.5906,4.5805,4.5534,4.4818,4.4699,4.4682,4.4615,4.4615,4.4615,4.4615,4.4615,4.4615,4.4615,4.4615,4.4615,4.4615,4.4615,4.4615,4.4615,4.4615,4.4615,4.4615,4.4615,4.4615,4.4615,4.4615,4.4615,4.4615,4.4615,4.4615,4.4615,4.4615,4.4615,4.4615,4.4615,4.4615,4.4615,4.4615,4.4615,4.4615,4.4615,4.4615,4.4615,4.9001,4.9001,4.9001,4.9001,4.9001,4.9001,4.9001,4.9001,4.9001,4.9001,4.9001,4.9001,4.9001,4.9001,4.9001,4.9001,4.9001,4.9001,4.9001,4.9001,4.9001,4.9001,4.9001,4.9001,4.9001,4.9001,4.9001,4.9001,4.9001,4.9001,4.9001,4.9001,4.9001,4.9001,4.9001,4.9001,4.9001,4.9001,4.9001,4.9001,4.9001,4.9001,4.9001,4.9001,4.9001,4.9001,4.9001,4.9001,4.9001,4.9001,4.9001,4.9001,4.9001,4.9001,4.9001,4.9001,4.9001,4.9001,4.9001,4.9001,4.9001,4.9001,4.9001,4.9001,4.9001,4.8883,4.8765,4.8765,4.8189,4.7682,4.7682,4.7192,4.6735,4.6583,4.6549,4.6295,4.5568,4.5466,4.5246,4.4682,4.4615,4.4615,4.4615,4.4615,4.4615,4.4615,4.4615,4.4615,4.4615,4.4615,4.4615,4.4615,4.4615,4.4615,4.4615,4.4615,4.4615,4.4615,4.4615,4.4615,4.4615,4.4615,4.4615,4.4615,4.4615,4.4615,4.4615,4.4615,4.4615,4.4615,4.4615,4.4615,4.4615,4.4615,4.4615,4.4615,4.9001,4.9001,4.9001,4.9001,4.9001,4.9001,4.9001,4.9001,4.9001,4.9001,4.9001,4.9001,4.9001,4.9001,4.9001,4.9001,4.9001,4.9001,4.9001,4.9001,4.9001,4.9001,4.9001,4.9001,4.9001,4.9001,4.9001,4.9001,4.9001,4.9001,4.9001,4.9001,4.9001,4.9001,4.9001,4.9001,4.9001,4.9001,4.9001,4.9001,4.9001,4.9001,4.9001,4.9001,4.9001,4.9001,4.9001,4.9001,4.9001,4.9001,4.9001,4.9001,4.9001,4.9001,4.9001,4.9001,4.9001,4.9001,4.9001,4.9001,4.9001,4.9001,4.9001,4.9001,4.9001,4.9001,4.9001,4.9001,4.8697,4.8443,4.8443,4.8122,4.7733,4.7394,4.7327,4.7073,4.6329,4.6227,4.6075,4.5715,4.5331,4.4976,4.4632,4.4615,4.4615,4.4615,4.4615,4.4615,4.4615,4.4615,4.4615,4.4615,4.4615,4.4615,4.4615,4.4615,4.4615,4.4615,4.4615,4.4615,4.4615,4.4615,4.4615,4.4615,4.4615,4.4615,4.4615,4.4615,4.4615,4.4615,4.4615,4.4615,4.4615,4.4615,4.4615,4.4615,4.9001,4.9001,4.9001,4.9001,4.9001,4.9001,4.9001,4.9001,4.9001,4.9001,4.9001,4.9001,4.9001,4.9001,4.9001,4.9001,4.9001,4.9001,4.9001,4.9001,4.9001,4.9001,4.9001,4.9001,4.9001,4.9001,4.9001,4.9001,4.9001,4.9001,4.9001,4.9001,4.9001,4.9001,4.9001,4.9001,4.9001,4.9001,4.9001,4.9001,4.9001,4.9001,4.9001,4.9001,4.9001,4.9001,4.9001,4.9001,4.9001,4.9001,4.9001,4.9001,4.9001,4.9001,4.9001,4.9001,4.9001,4.9001,4.9001,4.9001,4.9001,4.9001,4.9001,4.9001,4.9001,4.9001,4.9001,4.9001,4.9001,4.9001,4.9001,4.9001,4.8798,4.8176,4.8075,4.7834,4.709,4.6989,4.6938,4.6802,4.6261,4.5602,4.4869,4.4801,4.475,4.4615,4.4615,4.4615,4.4615,4.4615,4.4615,4.4615,4.4615,4.4615,4.4615,4.4615,4.4615,4.4615,4.4615,4.4615,4.4615,4.4615,4.4615,4.4615,4.4615,4.4615,4.4615,4.4615,4.4615,4.4615,4.4615,4.4615,4.4615,4.4615,4.4615,4.4615,4.9001,4.9001,4.9001,4.9001,4.9001,4.9001,4.9001,4.9001,4.9001,4.9001,4.9001,4.9001,4.9001,4.9001,4.9001,4.9001,4.9001,4.9001,4.9001,4.9001,4.9001,4.9001,4.9001,4.9001,4.9001,4.9001,4.9001,4.9001,4.9001,4.9001,4.9001,4.9001,4.9001,4.9001,4.9001,4.9001,4.9001,4.9001,4.9001,4.9001,4.9001,4.9001,4.9001,4.9001,4.9001,4.9001,4.9001,4.9001,4.9001,4.9001,4.9001,4.9001,4.9001,4.9001,4.9001,4.9001,4.9001,4.9001,4.9001,4.9001,4.9001,4.9001,4.9001,4.9001,4.9001,4.9001,4.9001,4.9001,4.9001,4.9001,4.9001,4.9001,4.8968,4.8883,4.8849,4.8595,4.7868,4.7736,4.7513,4.687,4.6701,4.6363,4.5618,4.5551,4.528,4.4649,4.4615,4.4615,4.4615,4.4615,4.4615,4.4615,4.4615,4.4615,4.4615,4.4615,4.4615,4.4615,4.4615,4.4615,4.4615,4.4615,4.4615,4.4615,4.4615,4.4615,4.4615,4.4615,4.4615,4.4615,4.4615,4.4615,4.4615,4.4615,4.4615,4.4615,4.9001,4.9001,4.9001,4.9001,4.9001,4.9001,4.9001,4.9001,4.9001,4.9001,4.9001,4.9001,4.9001,4.9001,4.9001,4.9001,4.9001,4.9001,4.9001,4.9001,4.9001,4.9001,4.9001,4.9001,4.9001,4.9001,4.9001,4.9001,4.9001,4.9001,4.9001,4.9001,4.9001,4.9001,4.9001,4.9001,4.9001,4.9001,4.9001,4.9001,4.9001,4.9001,4.9001,4.9001,4.9001,4.9001,4.9001,4.9001,4.9001,4.9001,4.9001,4.9001,4.9001,4.9001,4.9001,4.9001,4.9001,4.9001,4.9001,4.9001,4.9001,4.9001,4.9001,4.9001,4.9001,4.9001,4.9001,4.9001,4.9001,4.9001,4.9001,4.9001,4.9001,4.9001,4.9001,4.89,4.8578,4.8528,4.824,4.7513,4.7411,4.7124,4.6397,4.6312,4.6007,4.5263,4.5213,4.5026,4.4632,4.4615,4.4615,4.4615,4.4615,4.4615,4.4615,4.4615,4.4615,4.4615,4.4615,4.4615,4.4615,4.4615,4.4615,4.4615,4.4615,4.4615,4.4615,4.4615,4.4615,4.4615,4.4615,4.4615,4.4615,4.4615,4.4615,4.4615]}]]